[[{"header":{"parameterUnit":"m.s-1","parameterCategory":1,"la1":31.0,"la2":29.5877,"lo1":-88.7671,"lo2":-86.6584,"dy":0.0162,"dx":0.0185,"nx":115,"ny":88,"refTime":"2023-09-30T06:00:00:Z","depth":0,"parameterNumber":2,"parameterNumberName":"U-component_of_WINDS"},"data":[0.0,0.0,0.0,0.0,0.0,0.0,0.0,0.0,0.0,0.0,0.0,0.0,0.0,0.0,0.0,0.0,0.0,0.0,0.0,0.0,0.0,0.0,0.0,0.0,0.0,0.0,0.0,0.0,0.0,0.0,0.0,0.0,0.0,0.0,0.0,0.0,0.0,0.0,0.0,0.0,0.0,0.0,0.0,0.0,0.0,0.0,0.0,0.0,0.0,0.0,0.0,0.0,0.0,0.0,0.0,0.0,0.0,0.0,0.0,0.0,0.0,0.0,0.0,0.0,0.0,0.0,0.0,0.0,0.0,0.0,0.0,0.0,0.0,0.0,0.0,0.0,0.0,0.0,0.0,0.0,0.0,0.0,0.0,0.0,0.0,0.0,0.0,0.0,0.0,0.0,0.0,0.0,0.0,0.0,0.0,0.0,0.0,0.0,0.0,0.0,0.0,0.0,0.0,0.0,0.0,0.0,0.0,0.0,0.0,0.0,0.0,0.0,0.0,0.0,0.0,0.0,0.0,0.0,0.0,0.0,0.0,0.0,0.0,0.0,0.0,0.0,0.0,0.0,0.0,0.0,0.0,0.0,0.0,0.0,0.0,0.0,0.0,0.0,0.0,0.0,0.0,0.0,0.0,0.0,0.0,0.0,0.0,0.0,0.0,0.0,0.0,0.0,0.0,0.0,0.0,0.0,0.0,0.0,0.0,0.0,0.0,0.0,0.0,0.0,0.0,0.0,0.0,0.0,0.0,0.0,0.0,0.0,0.0,0.0,0.0,0.0,0.0,0.0,0.0,0.0,0.0,0.0,0.0,0.0,0.0,0.0,0.0,0.0,0.0,0.0,0.0,0.0,0.0,0.0,0.0,0.0,0.0,0.0,0.0,0.0,0.0,0.0,0.0,0.0,0.0,0.0,0.0,0.0,0.0,0.0,0.0,0.0,0.0,0.0,0.0,0.0,0.0,0.0,0.0,0.0,0.0,0.0,0.0,0.0,0.0,0.0,0.0,0.0,0.0,0.0,0.0,0.0,0.0,0.0,0.0,0.0,0.0,0.0,0.0,0.0,0.0,0.0,0.0,0.0,0.0,0.0,0.0,0.0,0.0,0.0,0.0,0.0,0.0,0.0,0.0,0.0,0.0,0.0,0.0,0.0,0.0,0.0,0.0,0.0,0.0,0.0,0.0,0.0,0.0,0.0,0.0,0.0,0.0,0.0,0.0,0.0,0.0,0.0,0.0,0.0,0.0,0.0,0.0,0.0,0.0,0.0,0.0,0.0,0.0,0.0,0.0,0.0,0.0,0.0,0.0,0.0,0.0,0.0,0.0,0.0,0.0,0.0,0.0,0.0,0.0,0.0,0.0,0.0,0.0,0.0,0.0,0.0,0.0,0.0,0.0,0.0,0.0,0.0,0.0,0.0,0.0,0.0,0.0,0.0,0.0,0.0,0.0,0.0,0.0,0.0,0.0,0.0,0.0,0.0,0.0,0.0,0.0,0.0,0.0,0.0,0.0,0.0,0.0,0.0,0.0,0.0,0.0,0.0,0.0,0.0,0.0,0.0,0.0,0.0,0.0,0.0,0.0,0.0,0.0,0.0,0.0,0.0,0.0,0.0,0.0,0.0,0.0,0.0,0.0,0.0,0.0,0.0,0.0,0.0,0.0,0.0,0.0,0.0,0.0,0.0,0.0,0.0,0.0,0.0,0.0,0.0,0.0,0.0,0.0,0.0,0.0,0.0,0.0,0.0,0.0,0.0,0.0,0.0,0.0,0.0,0.0,0.0,0.0,0.0,0.0,0.0,0.0,0.0,0.0,0.0,0.0,0.0,0.0,0.0,0.0,0.0,0.0,0.0,0.0,0.0,0.0,0.0,0.0,0.0,0.0,0.0,0.0,0.0,0.0,0.0,0.0,0.0,0.0,0.0,0.0,0.0,0.0,0.0,0.0,0.0,0.0,0.0,0.0,0.0,0.0,0.0,0.0,0.0,0.0,0.0,0.0,0.0,0.0,0.0,0.0,0.0,0.0,0.0,0.0,0.0,0.0,0.0,0.0,0.0,0.0,0.0,0.0,0.0,0.0,0.0,0.0,0.0,0.0,0.0,0.0,0.0,0.0,0.0,0.0,0.0,0.0,0.0,0.0,0.0,0.0,0.0,0.0,0.0,0.0,0.0,0.0,0.0,0.0,0.0,0.0,0.0,0.0,0.0,0.0,0.0,0.0,0.0,0.0,0.0,0.0,0.0,0.0,0.0,0.0,0.0,0.0,0.0,0.0,0.0,0.0,0.0,0.0,0.0,0.0,0.0,0.0,0.0,0.0,0.0,0.0,0.0,0.0,0.0,0.0,0.0,0.0,0.0,0.0,0.0,0.0,0.0,0.0,0.0,0.0,0.0,0.0,0.0,0.0,0.0,0.0,0.0,0.0,0.0,0.0,0.0,0.0,0.0,0.0,0.0,0.0,0.0,0.0,0.0,0.0,0.0,0.0,0.0,0.0,0.0,0.0,0.0,0.0,0.0,0.0,0.0,0.0,0.0,0.0,0.0,0.0,0.0,0.0,0.0,0.0,0.0,0.0,0.0,0.0,0.0,0.0,0.0,0.0,0.0,0.0,0.0,0.0,0.0,0.0,0.0,0.0,0.0,0.0,0.0,0.0,0.0,0.0,0.0,0.0,0.0,0.0,0.0,0.0,0.0,0.0,0.0,0.0,0.0,0.0,0.0,0.0,0.0,0.0,0.0,0.0,0.0,0.0,0.0,0.0,0.0,0.0,0.0,0.0,0.0,0.0,0.0,0.0,0.0,0.0,0.0,0.0,0.0,0.0,0.0,0.0,0.0,0.0,0.0,0.0,0.0,0.0,0.0,0.0,0.0,0.0,0.0,0.0,0.0,0.0,0.0,0.0,0.0,0.0,0.0,0.0,0.0,0.0,0.0,0.0,0.0,0.0,0.0,0.0,0.0,0.0,0.0,0.0,0.0,0.0,0.0,0.0,0.0,0.0,0.0,0.0,0.0,0.0,0.0,0.0,0.0,0.0,0.0,0.0,0.0,0.0,0.0,0.0,0.0,0.0,0.0,0.0,0.0,0.0,0.0,0.0,0.0,0.0,0.0,0.0,0.0,0.0,0.0,0.0,0.0,0.0,0.0,0.0,0.0,0.0,0.0,0.0,0.0,0.0,0.0,0.0,0.0,0.0,0.0,0.0,0.0,0.0,0.0,0.0,0.0,0.0,0.0,0.0,0.0,0.0,0.0,0.0,0.0,0.0,0.0,0.0,0.0,0.0,0.0,0.0,0.0,0.0,0.0,0.0,0.0,0.0,0.0,0.0,0.0,0.0,0.0,0.0,0.0,0.0,0.0,0.0,0.0,0.0,0.0,0.0,0.0,0.0,0.0,0.0,0.0,0.0,0.0,0.0,0.0,0.0,0.0,0.0,0.0,0.0,0.0,0.0,0.0,0.0,0.0,0.0,0.0,0.0,0.0,0.0,0.0,0.0,0.0,0.0,0.0,0.0,0.0,0.0,0.0,0.0,0.0,0.0,0.0,0.0,0.0,0.0,0.0,0.0,0.0,0.0,0.0,0.0,0.0,0.0,0.0,0.0,0.0,0.0,0.0,0.0,0.0,0.0,0.0,0.0,0.0,0.0,0.0,0.0,0.0,0.0,0.0,0.0,0.0,0.0,0.0,0.0,0.0,0.0,0.0,0.0,0.0,0.0,0.0,0.0,0.0,0.0,0.0,0.0,0.0,0.0,0.0,0.0,0.0,0.0,0.0,0.0,0.0,0.0,0.0,0.0,0.0,0.0,0.0,0.0,0.0,0.0,0.0,0.0,0.0,0.0,0.0,0.0,0.0,0.0,0.0,0.0,0.0,0.0,0.0,0.0,0.0,0.0,0.0,0.0,0.0,0.0,0.0,0.0,0.0,0.0,0.0,0.0,0.0,0.0,0.0,0.0,0.0,0.0,0.0,0.0,0.0,0.0,0.0,0.0,0.0,0.0,0.0,0.0,0.0,0.0,0.0,0.0,0.0,0.0,0.0,0.0,0.0,0.0,0.0,0.0,0.0,0.0,0.0,0.0,0.0,0.0,0.0,0.0,0.0,0.0,0.0,0.0,0.0,0.0,0.0,0.0,0.0,0.0,0.0,0.0,0.0,0.0,0.0,0.0,0.0,0.0,0.0,0.0,0.0,0.0,0.0,0.0,0.0,0.0,0.0,0.0,0.0,0.0,0.0,0.0,0.0,0.0,0.0,0.0,0.0,0.0,0.0,0.0,0.0,1.1828,0.0,0.0,0.0,0.0,0.0,0.0,0.0,0.0,0.0,0.0,0.0,0.0,0.0,0.0,0.0,0.0,0.0,0.0,0.0,0.0,0.0,0.0,0.0,0.0,0.0,0.0,0.0,0.0,0.0,0.0,0.0,0.0,0.0,0.0,0.0,0.0,0.0,0.0,0.0,0.0,0.0,0.0,0.0,0.0,0.0,0.0,0.0,0.0,0.0,0.0,0.0,0.0,0.0,0.0,0.0,0.0,0.0,0.0,0.0,0.0,0.0,0.0,0.0,0.0,0.0,0.0,0.0,0.0,0.0,0.0,0.0,0.0,0.0,0.0,0.0,0.0,0.0,0.0,0.0,0.0,0.0,0.0,0.0,0.0,0.0,0.0,0.0,0.0,0.0,0.0,0.0,0.0,0.0,0.0,0.0,0.0,0.0,0.0,0.0,0.0,0.0,0.0,0.0,0.0,0.0,0.0,0.0,0.0,0.0,0.0,1.2659,1.2544,1.2323,1.2045,1.1736,0.0,0.0,0.0,0.0,0.0,0.0,0.0,0.0,0.0,0.0,0.0,0.0,0.0,0.0,0.0,0.0,0.0,0.0,0.0,0.0,0.0,0.0,0.0,0.0,0.0,0.0,0.0,0.0,0.0,0.0,0.0,0.0,0.0,0.0,0.0,0.0,0.0,0.0,0.0,0.0,0.0,0.0,0.0,0.0,0.0,0.0,0.0,0.0,0.0,0.0,0.0,0.0,0.0,0.0,0.0,0.0,0.0,0.0,0.0,0.0,0.0,0.0,0.0,0.0,0.0,0.0,0.0,0.0,0.0,0.0,0.0,0.0,0.0,0.0,0.0,0.0,0.0,0.0,0.0,0.0,0.0,0.0,0.0,0.0,0.0,0.0,0.0,0.0,0.0,0.0,0.0,0.0,0.0,0.0,0.0,0.0,0.0,0.0,0.0,0.0,0.0,0.0,0.0,0.0,0.0,0.0,0.0,0.0,0.0,0.0,0.0,0.0,1.2195,1.1913,1.1538,0.0,0.0,0.0,0.0,0.0,0.0,0.0,0.0,0.0,0.0,0.0,0.0,0.0,0.0,0.0,0.0,0.0,0.0,0.0,0.0,0.0,0.0,0.0,0.0,0.0,0.0,0.0,0.0,0.0,0.0,0.0,0.0,0.0,0.0,0.0,0.0,0.0,0.0,0.0,0.0,0.0,0.0,0.0,0.0,0.0,0.0,0.0,0.0,0.0,0.0,0.0,0.0,0.0,0.0,0.0,0.0,0.0,0.0,0.0,0.0,0.0,0.0,0.0,0.0,0.0,0.0,0.0,0.0,0.0,0.0,0.0,0.0,0.0,0.0,0.0,0.0,0.0,0.0,0.0,0.0,0.0,0.0,0.0,0.0,0.0,0.0,0.0,0.0,0.0,0.0,0.0,0.0,0.0,0.0,0.0,0.0,0.0,0.0,0.0,0.0,0.0,0.0,0.0,0.0,0.0,0.0,0.0,0.0,0.0,0.0,1.2443,1.2318,1.2122,0.0,1.1071,0.0,0.0,0.0,0.0,0.0,0.0,0.0,0.0,0.0,0.0,0.0,0.0,0.0,0.0,0.0,0.0,0.0,0.0,0.0,0.0,0.0,0.0,0.0,0.0,0.0,0.0,0.0,0.0,0.0,0.0,0.0,0.0,0.0,0.0,0.0,0.0,0.0,0.0,0.0,0.0,0.0,0.0,0.0,0.0,0.0,0.0,0.0,0.0,0.0,0.0,0.0,0.0,0.0,0.0,0.0,0.0,0.0,0.0,0.0,0.0,0.0,0.0,0.0,0.0,0.0,0.0,0.0,0.0,0.0,0.0,0.0,0.0,0.0,0.0,0.0,0.0,0.0,0.0,0.0,0.0,0.0,0.0,0.0,0.0,0.0,0.0,0.0,0.0,0.0,0.0,0.0,0.0,0.0,0.0,0.0,0.0,0.0,0.0,0.0,0.0,0.0,0.0,0.0,0.0,0.0,0.0,0.0,0.0,0.0,0.0,1.2403,1.2231,1.1901,1.1409,0.0,0.0,0.0,0.0,0.0,0.0,0.0,0.0,0.0,0.0,0.0,0.0,0.0,0.0,0.0,0.0,0.0,0.0,0.0,0.0,0.0,0.0,0.0,0.0,0.0,0.0,0.0,0.0,0.0,0.0,0.0,0.0,0.0,0.0,0.0,0.0,0.0,0.0,0.0,0.0,0.0,0.0,0.0,0.0,0.0,0.0,0.0,0.0,0.0,0.0,0.0,0.0,0.0,0.0,0.0,0.0,0.0,0.0,0.0,0.0,0.0,0.0,0.0,0.0,0.0,0.0,0.0,0.0,0.0,0.0,0.0,0.0,0.0,0.0,0.0,0.0,0.0,0.0,0.0,0.0,0.0,0.0,0.0,0.0,0.0,0.0,0.0,0.0,0.0,0.0,0.0,0.0,0.0,0.0,0.0,0.0,0.0,0.0,0.0,0.0,0.0,0.0,0.0,0.0,0.0,0.0,0.0,0.0,0.0,0.0,1.2737,1.2655,1.2562,1.2111,1.1678,1.1213,0.0,0.0,0.0,0.0,0.0,0.0,0.0,0.0,0.0,0.0,0.0,0.0,0.0,0.0,0.0,0.0,0.0,0.0,0.0,0.0,0.0,0.0,0.0,0.0,0.0,0.0,0.0,0.0,0.0,0.0,0.0,0.0,0.0,0.0,0.0,0.0,0.0,0.0,0.0,0.0,0.0,0.0,0.0,0.0,0.0,0.0,0.0,0.0,0.0,0.0,0.0,0.0,0.0,0.0,0.0,0.0,0.0,0.0,0.0,0.0,0.0,0.0,0.0,0.0,0.0,0.0,0.0,0.0,0.0,0.0,0.0,0.0,0.0,0.0,0.0,0.0,0.0,0.0,0.0,0.0,0.0,0.0,0.0,0.0,0.0,0.0,0.0,0.0,0.0,0.0,0.0,0.0,0.0,0.0,0.0,0.0,0.0,0.0,0.0,0.0,0.0,0.0,0.0,0.0,0.0,0.0,0.0,0.0,1.343,1.3262,1.3246,1.3397,1.3034,1.2685,0.0,0.0,0.0,0.0,0.0,0.0,0.0,0.0,0.0,0.0,0.0,0.0,0.0,0.0,0.0,0.0,0.0,0.0,0.0,0.0,0.0,0.0,0.0,0.0,0.0,0.0,0.0,0.0,0.0,0.0,0.0,0.0,0.0,0.0,0.0,0.0,0.0,0.0,0.0,0.0,0.0,0.0,0.0,0.0,0.0,0.0,0.0,0.0,0.0,0.0,0.0,0.0,0.0,0.0,0.0,0.0,0.0,0.0,0.0,0.0,0.0,0.0,0.0,0.0,0.0,0.0,0.0,0.0,0.0,0.0,0.0,0.0,0.0,0.0,0.0,0.0,0.0,0.0,0.0,0.0,0.0,0.0,0.0,0.0,0.0,0.0,0.0,0.0,0.0,0.0,0.0,0.0,0.0,0.0,0.0,0.0,0.0,0.0,0.0,0.0,0.0,0.0,0.0,0.0,0.0,0.0,0.0,0.0,0.0,1.3945,1.369,1.347,1.3298,1.2926,1.2545,0.0,0.0,0.0,0.0,0.0,0.0,0.0,0.0,0.0,0.0,0.0,0.0,0.0,0.0,0.0,0.0,0.0,0.0,0.0,0.0,0.0,0.0,0.0,0.0,0.0,0.0,0.0,0.0,0.0,0.0,0.0,0.0,0.0,0.0,0.0,0.0,0.0,0.0,0.0,0.0,0.0,0.0,0.0,0.0,0.0,0.0,0.0,0.0,0.0,0.0,0.0,0.0,0.0,0.0,0.0,0.0,0.0,0.0,0.0,0.0,0.0,0.0,0.0,0.0,0.0,0.0,0.0,0.0,0.0,0.0,0.0,0.0,0.0,0.0,0.0,0.0,0.0,0.0,0.0,0.0,0.0,0.0,0.0,0.0,0.0,0.0,0.0,0.0,0.0,0.0,0.0,0.0,0.0,0.0,0.0,0.0,0.0,0.0,0.0,0.0,0.0,0.0,0.0,0.0,0.0,0.0,0.0,0.0,0.0,1.4687,0.0,1.463,1.429,1.3702,1.3199,0.0,0.0,0.0,0.0,0.0,0.0,0.0,0.0,0.0,0.0,0.0,0.0,0.0,0.0,0.0,0.0,0.0,0.0,0.0,0.0,0.0,0.0,0.0,0.0,0.0,0.0,0.0,0.0,0.0,0.0,0.0,0.0,0.0,0.0,0.0,0.0,0.0,0.0,0.0,0.0,0.0,0.0,0.0,0.0,0.0,0.0,0.0,0.0,0.0,0.0,0.0,0.0,0.0,0.0,0.0,0.0,0.0,0.0,0.0,0.0,0.0,0.0,0.0,0.0,0.0,0.0,0.0,0.0,0.0,0.0,0.0,0.0,0.0,0.0,0.0,0.0,0.0,0.0,0.0,0.0,0.0,0.0,0.0,0.0,0.0,0.0,0.0,0.0,0.0,0.0,0.0,0.0,0.0,0.0,0.0,0.0,0.0,0.0,0.0,0.0,0.0,0.0,0.0,0.0,0.0,0.0,0.0,0.0,1.4712,1.5638,1.6532,1.6787,1.6572,1.5482,1.4831,0.0,0.0,0.0,0.0,0.0,0.0,0.0,0.0,0.0,0.0,0.0,0.0,0.0,0.0,0.0,0.0,0.0,0.0,0.0,0.0,0.0,0.0,0.0,0.0,0.0,0.0,0.0,0.0,0.0,0.0,0.0,0.0,0.0,0.0,0.0,0.0,0.0,0.0,0.0,0.0,0.0,0.0,0.0,0.0,0.0,0.0,0.0,0.0,0.0,0.0,0.0,0.0,0.0,0.0,0.0,0.0,0.0,0.0,0.0,0.0,0.0,0.0,0.0,0.0,0.0,0.0,0.0,0.0,0.0,0.0,0.0,0.0,0.0,0.0,0.0,0.0,0.0,0.0,0.0,0.0,0.0,0.0,0.0,0.0,0.0,0.0,0.0,0.0,0.0,0.0,0.0,0.0,0.0,0.0,0.0,0.0,0.0,0.0,0.0,0.0,0.0,0.0,0.0,0.0,0.0,0.0,0.0,0.0,0.0,1.7056,1.7083,1.6904,1.653,1.5849,1.5009,0.0,0.0,0.0,0.0,0.0,0.0,0.0,0.0,0.0,0.0,0.0,0.0,0.0,0.0,0.0,0.0,0.0,0.0,0.0,0.0,0.0,0.0,0.0,0.0,0.0,0.0,0.0,0.0,0.0,0.0,0.0,0.0,0.0,0.0,0.0,0.0,0.0,0.0,0.0,0.0,0.0,0.0,0.0,0.0,0.0,0.0,0.0,0.0,0.0,0.0,0.0,0.0,0.0,0.0,0.0,0.0,0.0,0.0,0.0,0.0,0.0,0.0,0.0,0.0,0.0,0.0,0.0,0.0,0.0,0.0,0.0,0.0,0.0,0.0,0.0,0.0,0.0,0.0,0.0,0.0,0.0,0.0,0.0,0.0,0.0,0.0,0.0,0.0,0.0,0.0,0.0,0.0,0.0,0.0,0.0,0.0,0.0,0.0,0.0,0.0,0.0,0.0,0.0,0.0,0.0,0.0,0.0,0.0,0.0,1.8661,1.8287,1.7919,1.7511,1.661,1.5673,1.4748,0.0,0.0,0.0,0.0,0.0,0.0,0.0,0.0,0.0,0.0,0.0,0.0,0.0,0.0,0.0,0.0,0.0,0.0,0.0,0.0,0.0,0.0,0.0,0.0,0.0,0.0,0.0,0.0,0.0,0.0,0.0,0.0,0.0,0.0,0.0,0.0,0.0,0.0,0.0,0.0,0.0,0.0,0.0,0.0,0.0,0.0,0.0,0.0,0.0,0.0,0.0,0.0,0.0,0.0,0.0,0.0,0.0,0.0,0.0,0.0,0.0,0.0,0.0,0.0,0.0,0.0,0.0,0.0,0.0,0.0,0.0,0.0,0.0,0.0,0.0,0.0,0.0,0.0,0.0,0.0,0.0,0.0,0.0,0.0,0.0,0.0,0.0,0.0,0.0,0.0,0.0,0.0,0.0,0.0,0.0,0.0,0.0,0.0,0.0,0.0,0.0,0.0,0.0,0.0,0.0,0.0,0.0,0.0,2.0335,2.0033,1.9649,1.9205,1.7672,1.6713,0.0,0.0,0.0,0.0,0.0,0.0,0.0,0.0,0.0,0.0,0.0,0.0,0.0,0.0,0.0,0.0,0.0,0.0,0.0,0.0,0.0,0.0,0.0,0.0,0.0,0.0,0.0,0.0,0.0,0.0,0.0,0.0,0.0,0.0,0.0,0.0,0.0,0.0,0.0,0.0,0.0,0.0,0.0,0.0,0.0,0.0,0.0,0.0,0.0,0.0,0.0,0.0,0.0,0.0,0.0,0.0,0.0,0.0,0.0,0.0,0.0,0.0,0.0,0.0,0.0,0.0,0.0,0.0,0.0,0.0,0.0,0.0,0.0,0.0,0.0,0.0,0.0,0.0,0.0,0.0,0.0,0.0,0.0,0.0,0.0,0.0,0.0,0.0,0.0,0.0,0.0,0.0,0.0,0.0,0.0,0.0,0.0,0.0,0.0,0.0,0.0,0.0,0.0,0.0,0.0,0.0,0.0,0.0,0.0,2.0936,2.0822,2.0381,1.9586,1.8385,1.7145,0.0,0.0,0.0,0.0,0.0,0.0,0.0,0.0,0.0,0.0,0.0,0.0,0.0,0.0,0.0,0.0,0.0,0.0,0.0,0.0,0.0,0.0,0.0,0.0,0.0,0.0,0.0,0.0,0.0,0.0,0.0,0.0,0.0,0.0,0.0,0.0,0.0,0.0,0.0,0.0,0.0,0.0,0.0,0.0,0.0,0.0,0.0,0.0,0.0,0.0,0.0,0.0,0.0,0.0,0.0,0.0,0.0,0.0,0.0,0.0,0.0,0.0,0.0,0.0,0.0,0.0,0.0,0.0,0.0,0.0,0.0,0.0,0.0,0.0,0.0,0.0,0.0,0.0,0.0,0.0,0.0,0.0,0.0,0.0,0.0,0.0,0.0,0.0,0.0,0.0,0.0,0.0,0.0,0.0,0.0,0.0,0.0,0.0,0.0,0.0,0.0,0.0,0.0,0.0,0.0,0.0,0.0,0.0,2.1339,2.1653,2.1721,2.1369,2.0588,1.9181,1.7826,0.0,0.0,0.0,0.0,0.0,0.0,0.0,0.0,0.0,0.0,0.0,0.0,0.0,0.0,0.0,0.0,0.0,0.0,0.0,0.0,0.0,0.0,0.0,0.0,0.0,0.0,0.0,0.0,0.0,0.0,0.0,0.0,0.0,0.0,0.0,0.0,0.0,0.0,0.0,0.0,0.0,0.0,0.0,0.0,0.0,0.0,0.0,0.0,0.0,0.0,0.0,0.0,0.0,0.0,0.0,0.0,0.0,0.0,0.0,0.0,0.0,0.0,0.0,0.0,0.0,0.0,0.0,0.0,0.0,0.0,0.0,0.0,0.0,0.0,0.0,0.0,0.0,0.0,0.0,0.0,0.0,0.0,0.0,0.0,0.0,0.0,0.0,0.0,0.0,0.0,0.0,0.0,0.0,0.0,0.0,0.0,0.0,0.0,0.0,0.0,0.0,0.0,0.0,0.0,0.0,0.0,0.0,0.0,2.168,2.2278,2.2449,2.2263,2.1689,1.9968,1.8654,0.0,0.0,0.0,0.0,0.0,0.0,0.0,0.0,0.0,0.0,0.0,0.0,0.0,0.0,0.0,0.0,0.0,0.0,0.0,0.0,0.0,0.0,0.0,0.0,0.0,0.0,0.0,0.0,0.0,0.0,0.0,0.0,0.0,0.0,0.0,0.0,0.0,0.0,0.0,0.0,0.0,0.0,0.0,0.0,0.0,0.0,0.0,0.0,0.0,0.0,0.0,0.0,0.0,0.0,0.0,0.0,0.0,0.0,0.0,0.0,0.0,0.0,0.0,0.0,0.0,0.0,0.0,0.0,0.0,0.0,0.0,0.0,0.0,0.0,0.0,0.0,0.0,0.0,0.0,0.0,0.0,0.0,0.0,0.0,0.0,0.0,0.0,0.0,0.0,0.0,0.0,0.0,0.0,0.0,0.0,0.0,0.0,0.0,0.0,0.0,0.0,0.0,0.0,0.0,0.0,0.0,0.0,0.0,2.1997,2.2303,2.2081,2.1716,2.1196,2.0411,1.9377,0.0,0.0,0.0,0.0,0.0,0.0,0.0,0.0,0.0,0.0,0.0,0.0,0.0,0.0,0.0,0.0,0.0,0.0,0.0,0.0,0.0,0.0,0.0,0.0,0.0,0.0,0.0,0.0,0.0,0.0,0.0,0.0,0.0,0.0,0.0,0.0,0.0,0.0,0.0,0.0,0.0,0.0,0.0,0.0,0.0,0.0,0.0,0.0,1.8616,0.0,0.0,0.0,0.0,0.0,0.0,0.0,0.0,0.0,0.0,0.0,0.0,0.0,0.0,0.0,0.0,0.0,0.0,0.0,0.0,0.0,0.0,0.0,0.0,0.0,0.0,0.0,0.0,0.0,0.0,0.0,0.0,0.0,0.0,0.0,0.0,0.0,0.0,0.0,0.0,0.0,0.0,0.0,0.0,0.0,0.0,0.0,0.0,0.0,0.0,0.0,0.0,0.0,0.0,0.0,0.0,0.0,0.0,0.0,2.1988,2.2457,2.2219,2.1894,2.153,2.0961,1.9918,0.0,0.0,0.0,0.0,0.0,0.0,0.0,0.0,0.0,0.0,0.0,0.0,0.0,0.0,0.0,0.0,0.0,0.0,0.0,0.0,0.0,0.0,0.0,0.0,0.0,0.0,0.0,0.0,0.0,0.0,0.0,0.0,0.0,0.0,0.0,0.0,0.0,0.0,0.0,0.0,0.0,0.0,0.0,0.0,0.0,0.0,0.0,0.0,0.0,0.0,0.0,0.0,0.0,0.0,0.0,0.0,0.0,0.0,0.0,0.0,0.0,0.0,0.0,0.0,0.0,0.0,0.0,0.0,0.0,0.0,0.0,0.0,0.0,0.0,0.0,0.0,0.0,0.0,0.0,0.0,0.0,0.0,0.0,0.0,0.0,0.0,0.0,0.0,0.0,0.0,0.0,0.0,0.0,0.0,0.0,0.0,0.0,0.0,0.0,0.0,0.0,0.0,0.0,0.0,0.0,0.0,0.0,2.1186,2.1913,2.2563,2.2421,2.2195,2.1968,2.1381,2.0274,1.8634,0.0,0.0,0.0,0.0,0.0,0.0,0.0,0.0,0.0,0.0,0.0,0.0,0.0,0.0,0.0,0.0,0.0,0.0,0.0,0.0,0.0,0.0,0.0,0.0,0.0,0.0,0.0,0.0,0.0,0.0,0.0,0.0,0.0,0.0,0.0,0.0,0.0,0.0,1.716,1.7959,0.0,0.0,0.0,0.0,0.0,0.0,0.0,0.0,2.0846,0.0,0.0,0.0,0.0,0.0,0.0,0.0,0.0,0.0,0.0,0.0,0.0,0.0,0.0,0.0,0.0,0.0,0.0,0.0,0.0,0.0,0.0,0.0,0.0,0.0,0.0,0.0,0.0,0.0,0.0,0.0,0.0,0.0,0.0,0.0,0.0,0.0,0.0,0.0,0.0,0.0,0.0,0.0,0.0,0.0,0.0,0.0,0.0,0.0,0.0,0.0,0.0,0.0,0.0,0.0,0.0,2.0866,2.1668,2.2132,2.2193,2.2006,2.1741,2.1358,2.1026,2.0365,1.9336,0.0,0.0,0.0,0.0,0.0,0.0,0.0,0.0,0.0,0.0,0.0,0.0,0.0,0.0,0.0,0.0,0.0,0.0,0.0,0.0,0.0,0.0,0.0,0.0,0.0,0.0,0.0,0.0,0.0,0.0,0.0,0.0,0.0,0.0,0.0,0.0,0.0,0.0,0.0,1.9413,2.0006,0.0,0.0,0.0,0.0,0.0,0.0,0.0,0.0,2.1065,0.0,0.0,0.0,0.0,0.0,0.0,0.0,0.0,0.0,0.0,0.0,0.0,0.0,0.0,0.0,0.0,0.0,0.0,0.0,0.0,0.0,0.0,0.0,0.0,0.0,0.0,0.0,0.0,0.0,0.0,0.0,0.0,0.0,0.0,0.0,0.0,0.0,0.0,0.0,0.0,0.0,0.0,0.0,0.0,0.0,0.0,0.0,0.0,0.0,0.0,0.0,0.0,0.0,0.0,0.0,2.072,2.1317,2.1781,2.2069,2.1691,2.1499,2.1487,2.1053,2.0494,0.0,0.0,0.0,0.0,0.0,0.0,0.0,0.0,0.0,0.0,0.0,0.0,0.0,0.0,0.0,0.0,0.0,0.0,0.0,0.0,0.0,0.0,0.0,0.0,0.0,0.0,0.0,0.0,0.0,0.0,0.0,0.0,0.0,0.0,0.0,0.0,0.0,0.0,0.0,0.0,2.0038,2.0389,2.0658,0.0,0.0,0.0,0.0,0.0,0.0,2.1867,2.185,0.0,0.0,0.0,0.0,0.0,0.0,0.0,0.0,0.0,0.0,0.0,0.0,0.0,0.0,0.0,0.0,0.0,0.0,0.0,0.0,0.0,0.0,0.0,0.0,0.0,0.0,0.0,0.0,0.0,0.0,0.0,0.0,0.0,0.0,0.0,0.0,0.0,0.0,0.0,0.0,0.0,0.0,0.0,0.0,0.0,0.0,0.0,0.0,0.0,0.0,0.0,0.0,0.0,0.0,0.0,2.0497,2.1032,2.1526,2.1927,2.1507,2.1409,2.165,2.1161,2.0563,0.0,0.0,0.0,0.0,0.0,0.0,0.0,0.0,0.0,0.0,0.0,0.0,0.0,0.0,0.0,0.0,0.0,0.0,0.0,0.0,0.0,0.0,0.0,0.0,0.0,0.0,0.0,0.0,0.0,0.0,0.0,0.0,0.0,0.0,0.0,0.0,0.0,0.0,0.0,0.0,0.0,2.0856,2.1558,2.1682,0.0,0.0,0.0,0.0,2.2735,2.2719,0.0,0.0,0.0,0.0,0.0,0.0,0.0,0.0,0.0,0.0,0.0,0.0,0.0,0.0,0.0,0.0,0.0,0.0,0.0,0.0,0.0,0.0,0.0,0.0,0.0,0.0,0.0,0.0,0.0,0.0,0.0,0.0,0.0,0.0,0.0,0.0,0.0,0.0,0.0,0.0,0.0,0.0,0.0,0.0,0.0,0.0,0.0,0.0,0.0,0.0,0.0,0.0,0.0,0.0,0.0,0.0,2.0578,2.152,2.1847,2.1571,2.1511,2.1391,2.1271,2.1192,2.0541,0.0,0.0,0.0,0.0,0.0,0.0,0.0,0.0,0.0,0.0,0.0,0.0,0.0,0.0,0.0,0.0,0.0,0.0,0.0,0.0,0.0,0.0,0.0,0.0,0.0,0.0,0.0,0.0,0.0,0.0,0.0,0.0,0.0,0.0,0.0,0.0,0.0,0.0,0.0,0.0,0.0,2.2274,2.2214,2.2251,2.2202,0.0,0.0,2.2926,2.2971,2.2926,0.0,0.0,0.0,0.0,0.0,0.0,0.0,0.0,0.0,0.0,0.0,0.0,0.0,0.0,0.0,0.0,0.0,0.0,0.0,0.0,0.0,0.0,0.0,0.0,0.0,0.0,0.0,0.0,0.0,0.0,0.0,0.0,0.0,0.0,0.0,0.0,0.0,0.0,0.0,0.0,0.0,0.0,0.0,0.0,0.0,0.0,0.0,0.0,0.0,0.0,0.0,0.0,0.0,0.0,0.0,2.042,2.1213,2.1698,2.203,2.2224,2.1903,2.1683,2.1602,2.1332,2.0524,0.0,0.0,0.0,0.0,0.0,0.0,0.0,0.0,0.0,0.0,0.0,0.0,0.0,0.0,0.0,0.0,0.0,0.0,0.0,0.0,0.0,0.0,0.0,0.0,0.0,0.0,0.0,0.0,0.0,0.0,0.0,0.0,0.0,0.0,0.0,0.0,0.0,0.0,0.0,0.0,0.0,0.0,2.256,2.2856,0.0,0.0,0.0,2.3349,2.3619,0.0,0.0,0.0,0.0,0.0,0.0,0.0,0.0,0.0,0.0,0.0,0.0,0.0,0.0,0.0,0.0,0.0,0.0,0.0,0.0,0.0,0.0,0.0,0.0,0.0,0.0,0.0,0.0,0.0,0.0,0.0,0.0,0.0,0.0,0.0,0.0,0.0,0.0,0.0,0.0,0.0,0.0,0.0,0.0,0.0,0.0,0.0,0.0,0.0,0.0,0.0,0.0,0.0,0.0,0.0,0.0,0.0,2.171,2.1848,2.2168,2.2694,2.2291,2.1992,2.1896,2.1372,0.0,0.0,0.0,0.0,0.0,0.0,0.0,0.0,0.0,0.0,0.0,0.0,0.0,0.0,0.0,0.0,0.0,0.0,0.0,0.0,0.0,0.0,0.0,0.0,0.0,0.0,0.0,1.4433,0.0,0.0,0.0,0.0,0.0,0.0,0.0,0.0,0.0,0.0,0.0,0.0,0.0,0.0,2.305,2.3411,2.3671,2.3766,0.0,0.0,2.3848,2.4134,2.3801,2.3432,0.0,0.0,0.0,0.0,0.0,0.0,0.0,0.0,0.0,0.0,0.0,0.0,0.0,0.0,0.0,0.0,0.0,0.0,0.0,0.0,0.0,0.0,0.0,0.0,0.0,0.0,0.0,0.0,0.0,0.0,0.0,0.0,0.0,0.0,0.0,0.0,0.0,0.0,0.0,0.0,0.0,0.0,0.0,0.0,0.0,0.0,0.0,0.0,0.0,0.0,0.0,0.0,0.0,0.0,0.0,2.1768,2.2029,2.23,2.2521,2.248,2.2285,2.1915,2.1273,2.0338,0.0,0.0,0.0,0.0,0.0,0.0,0.0,0.0,0.0,0.0,0.0,0.0,0.0,0.0,0.0,0.0,0.0,0.0,0.0,0.0,0.0,0.0,0.0,0.0,0.0,0.0,0.0,0.0,0.0,0.0,0.0,0.0,0.0,0.0,0.0,0.0,0.0,0.0,0.0,0.0,0.0,2.4567,2.5247,2.4962,2.4709,0.0,0.0,2.4567,2.417,2.3931,2.3521,2.2695,0.0,0.0,0.0,0.0,0.0,0.0,0.0,0.0,0.0,0.0,0.0,0.0,0.0,0.0,0.0,0.0,0.0,0.0,0.0,0.0,0.0,0.0,0.0,0.0,0.0,0.0,0.0,0.0,0.0,0.0,0.0,0.0,0.0,0.0,0.0,0.0,0.0,0.0,0.0,0.0,0.0,0.0,0.0,0.0,0.0,0.0,0.0,0.0,0.0,0.0,0.0,0.0,0.0,2.1211,2.2231,2.2445,2.2692,2.2869,2.2888,2.2557,2.1935,2.151,2.0559,0.0,0.0,0.0,0.0,0.0,0.0,0.0,0.0,0.0,0.0,0.0,0.0,0.0,0.0,0.0,0.0,0.0,0.0,0.0,0.0,0.0,0.0,0.0,0.0,0.0,0.0,0.0,0.0,1.5996,1.6512,1.679,0.0,0.0,0.0,0.0,0.0,0.0,0.0,0.0,0.0,0.0,2.4621,2.5025,2.5113,0.0,0.0,2.4988,2.4976,2.4891,2.4391,2.3823,2.3374,2.2534,0.0,0.0,0.0,0.0,0.0,0.0,0.0,0.0,0.0,0.0,0.0,0.0,0.0,0.0,0.0,0.0,0.0,0.0,0.0,0.0,0.0,0.0,0.0,0.0,0.0,0.0,0.0,0.0,0.0,0.0,0.0,0.0,0.0,0.0,0.0,0.0,0.0,0.0,0.0,0.0,0.0,0.0,0.0,0.0,0.0,0.0,0.0,0.0,0.0,0.0,0.0,0.0,2.1557,2.239,2.26,2.2843,2.3103,2.3101,2.2771,2.209,2.1645,2.08,0.0,0.0,0.0,0.0,0.0,0.0,0.0,0.0,0.0,0.0,0.0,0.0,0.0,0.0,0.0,0.0,0.0,0.0,0.0,0.0,0.0,0.0,0.0,0.0,0.0,0.0,0.0,0.0,1.6425,1.7025,1.7489,0.0,0.0,0.0,0.0,0.0,0.0,0.0,0.0,0.0,0.0,2.4612,2.5013,2.5248,2.5325,2.5202,2.5226,2.5286,2.5334,2.4684,2.4058,2.3658,0.0,0.0,0.0,0.0,0.0,0.0,0.0,0.0,0.0,0.0,0.0,0.0,0.0,0.0,0.0,0.0,0.0,0.0,0.0,0.0,0.0,0.0,0.0,0.0,0.0,0.0,0.0,0.0,0.0,0.0,0.0,0.0,0.0,0.0,0.0,0.0,0.0,0.0,0.0,0.0,0.0,0.0,0.0,0.0,0.0,0.0,0.0,0.0,0.0,0.0,0.0,0.0,0.0,2.1647,2.2205,2.2389,2.2693,2.3081,2.3101,2.2886,2.2459,2.1659,2.1075,2.074,0.0,0.0,0.0,0.0,0.0,0.0,0.0,0.0,0.0,0.0,0.0,0.0,0.0,0.0,0.0,0.0,0.0,0.0,0.0,0.0,0.0,0.0,0.0,0.0,0.0,0.0,1.6443,1.6895,1.7563,0.0,0.0,0.0,0.0,0.0,0.0,0.0,0.0,0.0,0.0,2.4666,2.473,2.5527,2.5441,2.527,2.5289,2.5484,2.5542,2.518,2.4707,2.4098,0.0,0.0,0.0,0.0,0.0,0.0,0.0,0.0,0.0,0.0,0.0,0.0,0.0,0.0,0.0,0.0,0.0,0.0,0.0,0.0,0.0,0.0,0.0,0.0,0.0,0.0,0.0,2.2212,2.2012,0.0,0.0,0.0,0.0,0.0,0.0,0.0,0.0,0.0,0.0,0.0,2.1879,2.1632,0.0,0.0,0.0,0.0,0.0,0.0,0.0,0.0,0.0,0.0,0.0,0.0,2.1568,2.2369,2.2435,2.2487,2.2621,2.2816,2.271,2.2326,2.187,2.1331,2.0613,0.0,0.0,0.0,0.0,0.0,0.0,0.0,0.0,0.0,0.0,0.0,0.0,0.0,0.0,0.0,0.0,0.0,0.0,0.0,0.0,0.0,0.0,0.0,0.0,0.0,1.7737,0.0,0.0,0.0,0.0,0.0,0.0,0.0,0.0,0.0,0.0,0.0,2.3177,2.3878,2.4302,2.4679,2.5115,2.5094,2.5039,0.0,0.0,0.0,0.0,0.0,0.0,0.0,0.0,0.0,0.0,0.0,0.0,0.0,0.0,2.1865,2.1408,2.1321,2.1528,2.23,0.0,0.0,0.0,0.0,0.0,0.0,0.0,0.0,0.0,0.0,0.0,0.0,0.0,0.0,0.0,0.0,2.2838,0.0,0.0,0.0,0.0,0.0,0.0,0.0,0.0,2.3316,2.3446,2.3106,2.2848,2.267,0.0,2.2351,2.1856,0.0,0.0,0.0,0.0,0.0,0.0,0.0,0.0,2.1783,2.2435,2.2574,2.2681,2.2835,2.2949,2.289,2.2621,2.216,2.1489,2.0632,1.9774,1.9349,0.0,0.0,0.0,0.0,0.0,0.0,0.0,0.0,0.0,0.0,0.0,0.0,0.0,0.0,0.0,0.0,0.0,0.0,0.0,0.0,0.0,0.0,0.0,1.8634,0.0,0.0,0.0,0.0,0.0,0.0,0.0,0.0,0.0,2.167,2.2553,2.3241,2.3522,2.4102,2.4528,2.4666,0.0,0.0,0.0,0.0,0.0,0.0,0.0,2.4326,2.4592,2.403,2.3633,2.3836,2.3617,2.346,2.3549,0.0,0.0,2.2473,2.2211,2.2311,2.3097,2.3359,2.3595,2.3984,2.4062,2.389,0.0,0.0,0.0,0.0,0.0,0.0,0.0,0.0,2.5714,2.5584,0.0,2.4795,0.0,0.0,0.0,0.0,0.0,0.0,0.0,0.0,2.4279,2.4325,2.4161,2.4118,2.403,2.3856,2.3533,2.3404,2.3308,2.2191,0.0,0.0,0.0,0.0,0.0,0.0,2.2174,2.2435,2.2787,2.3206,2.3626,2.3477,2.3383,2.3352,2.2411,2.1585,2.0898,2.0613,2.0287,1.9806,1.991,0.0,0.0,0.0,0.0,0.0,0.0,0.0,0.0,0.0,0.0,0.0,0.0,0.0,0.0,0.0,0.0,0.0,0.0,0.0,0.0,1.9646,0.0,0.0,0.0,0.0,0.0,0.0,0.0,0.0,0.0,0.0,2.2057,2.2904,2.3532,2.3727,0.0,0.0,0.0,0.0,2.4491,2.4779,2.4779,2.4857,2.517,2.4583,2.4146,2.4461,0.0,0.0,2.4106,2.4186,2.4245,2.459,2.4356,2.4015,2.3169,2.3017,2.318,2.3648,2.4012,2.4236,2.4273,2.4695,2.4962,2.6471,0.0,0.0,0.0,0.0,2.6333,2.6625,2.6686,2.6804,2.6765,2.6522,2.5823,0.0,0.0,0.0,0.0,0.0,0.0,2.4868,2.4712,2.5139,2.5289,2.5169,2.4961,2.4843,2.4796,2.4294,2.3973,2.3729,2.3104,2.2505,2.1912,0.0,0.0,0.0,0.0,2.1919,2.2695,2.268,2.2808,2.3125,2.3271,2.3214,2.2964,2.2566,2.2154,2.1828,2.1095,2.0788,2.0978,2.0542,0.0,0.0,0.0,0.0,0.0,0.0,0.0,0.0,0.0,0.0,0.0,0.0,0.0,0.0,0.0,0.0,0.0,0.0,0.0,2.0733,2.0785,2.0683,0.0,0.0,0.0,0.0,0.0,0.0,0.0,0.0,0.0,2.1816,2.2339,2.2828,0.0,0.0,2.3415,2.3458,2.3676,2.3771,2.3639,0.0,0.0,0.0,2.3887,2.3912,2.436,2.4437,2.4423,2.436,2.4174,2.4022,2.3964,2.3852,2.372,2.352,2.3595,2.3857,2.4239,2.4301,2.4279,2.4332,2.4428,2.4341,2.8927,2.7478,2.7214,2.7076,2.7141,2.7601,2.7779,2.7693,2.7779,2.7671,2.7346,2.6995,2.656,2.6065,2.5275,0.0,0.0,0.0,2.5418,2.5338,2.5497,2.5605,2.5614,2.5365,2.5239,2.5195,2.4746,2.4461,2.4312,2.3802,2.3262,2.2626,0.0,0.0,2.2185,2.182,2.2028,2.2781,2.2655,2.2799,2.325,2.3439,2.3377,2.306,2.2771,2.2535,2.2296,2.1687,2.1491,2.1768,2.1349,2.0958,0.0,0.0,0.0,0.0,0.0,0.0,0.0,0.0,0.0,0.0,0.0,2.0372,2.1328,0.0,0.0,0.0,2.1743,2.1571,2.1663,2.183,0.0,0.0,0.0,0.0,0.0,0.0,0.0,2.1329,2.1386,2.1489,2.1804,2.1868,2.2045,2.2511,2.285,2.3004,2.2857,0.0,2.3152,2.307,2.3152,2.3288,2.3532,2.3426,2.3479,2.3867,2.4193,2.4316,2.4146,2.3995,2.3856,2.3748,2.3722,2.3744,2.374,2.3908,2.4069,2.4359,2.4527,2.4542,2.4417,2.4376,2.4267,3.1059,3.051,2.9133,2.8521,2.8443,2.8634,2.8706,2.8706,2.8683,2.8423,2.7949,2.8184,2.7623,2.6498,2.5979,0.0,2.5738,2.5674,2.5737,2.5844,2.5559,2.5547,2.5755,2.5467,2.5362,2.5336,2.5063,2.4896,2.4807,2.4263,2.3782,2.3376,2.279,2.2506,2.2536,2.2279,2.2377,2.2821,2.2803,2.3117,2.3786,2.3846,2.3749,2.3476,2.306,2.2788,2.2615,2.2356,2.2244,2.2244,2.2171,2.2003,2.1765,0.0,0.0,0.0,0.0,0.0,0.0,0.0,0.0,0.0,0.0,0.0,0.0,0.0,0.0,0.0,2.3084,0.0,2.2727,2.2708,0.0,0.0,0.0,2.113,2.1576,2.0971,2.0816,2.1653,0.0,0.0,2.1846,0.0,2.1334,2.1772,2.2478,2.2802,2.2427,2.2511,2.2658,2.2849,2.2696,2.2752,2.3195,2.3081,2.2971,2.3203,2.3419,2.3658,2.3689,2.3717,2.3733,2.3763,2.3838,2.3844,2.3901,2.3914,2.3988,2.4038,2.4535,2.486,2.4363,2.4453,2.4434,3.2347,3.1891,3.1182,3.0341,2.9455,2.9511,2.9511,2.9536,2.9536,2.9311,2.8957,2.8849,2.8396,2.7675,2.7135,2.69,2.6893,2.639,2.6268,2.6382,2.6081,2.602,2.6159,2.5831,2.5661,2.5644,2.5311,2.4906,2.4439,2.3986,2.3611,2.3278,2.2673,2.2533,2.2858,2.2655,2.2971,2.3747,2.3467,2.3467,2.3805,2.3864,2.3959,2.4079,2.3545,2.3329,2.3477,2.2797,2.2511,2.2639,2.2367,2.2271,2.2512,2.2235,0.0,0.0,0.0,0.0,0.0,0.0,0.0,0.0,0.0,2.2762,2.4277,0.0,2.3599,0.0,2.3404,2.292,2.2853,2.2868,0.0,0.0,2.2417,2.2151,2.1722,2.1603,2.147,2.1264,2.136,2.1423,2.1379,2.1496,2.1509,2.1408,2.1904,2.2294,2.2218,2.2408,2.2464,2.2107,2.2146,2.2258,2.2444,2.2592,2.2761,2.302,2.3291,2.352,2.3568,2.3544,2.352,2.3324,2.3296,2.3313,2.3301,2.3516,2.3668,2.3718,2.383,2.3869,2.3738,2.3827,2.3851,3.3007,3.2628,3.2168,3.1564,3.0882,3.0557,3.0326,3.0189,3.0189,3.0023,2.9699,2.9136,2.8528,2.7889,2.7336,2.7086,2.7012,2.6399,2.6176,2.6246,2.5932,2.5835,2.5867,2.5415,2.5211,2.5211,2.485,2.4478,2.4183,2.3772,2.3549,2.3379,2.2906,2.2776,2.2983,2.2685,2.2907,2.3692,2.3748,2.3788,2.3849,2.399,2.4134,2.4287,2.3808,2.3621,2.3809,2.3123,2.2814,2.2902,2.2835,2.2885,2.3096,2.3041,2.3186,0.0,0.0,0.0,0.0,0.0,0.0,0.0,0.0,0.0,0.0,0.0,2.4255,2.4312,2.3634,2.3246,2.3286,2.3253,2.3078,2.2681,2.2484,2.2248,2.1873,2.1803,2.1658,2.1357,2.1509,2.154,2.1255,2.1366,2.1461,2.1406,2.1658,2.1843,2.1743,2.1861,2.1847,2.154,2.1628,2.1803,2.2036,2.2516,2.2867,2.3037,2.32,2.3321,2.333,2.3183,2.305,2.2917,2.2766,2.2629,2.2686,2.2772,2.2935,2.292,2.3012,2.3198,2.3474,2.3455,2.3371,3.3426,3.2987,3.2577,3.233,3.2185,3.156,3.1102,3.077,3.0653,3.0457,3.0103,2.9197,2.8388,2.7712,2.7162,2.6871,2.6784,2.617,2.5877,2.5818,2.5524,2.5452,2.5422,2.4844,2.456,2.4483,2.4216,2.4004,2.3955,2.3674,2.3512,2.3512,2.3168,2.3045,2.3061,2.2581,2.2668,2.3288,2.3813,2.4062,2.4004,2.4215,2.4402,2.4433,2.4032,2.3871,2.3942,2.3513,2.3257,2.3279,2.3496,2.3608,2.3672,2.3847,2.4109,0.0,2.4543,0.0,0.0,0.0,0.0,0.0,0.0,0.0,0.0,2.5454,2.4819,2.4275,2.3788,2.3579,2.365,2.3538,2.3231,2.2732,2.2247,2.1982,2.2001,2.18,2.164,2.1569,2.1636,2.1552,2.125,2.1218,2.1357,2.1471,2.1499,2.1446,2.1254,2.1278,2.1312,2.1238,2.1224,2.1424,2.1872,2.2409,2.2781,2.2856,2.2856,2.2931,2.2947,2.2736,2.254,2.25,2.2313,2.2122,2.2093,2.2121,2.2121,2.2184,2.2395,2.2751,2.3244,2.3255,2.3075,3.4029,3.3109,3.2983,3.2581,3.2065,3.1921,3.1566,3.1077,3.0464,2.9886,2.93,2.8858,2.8398,2.7989,2.7616,2.7306,2.7042,2.6666,2.6305,2.6022,2.5723,2.5565,2.5534,2.5154,2.4841,2.4594,2.4516,2.4193,2.3656,2.3626,2.3565,2.3565,2.2976,2.2946,2.3443,0.0,0.0,0.0,2.4019,2.426,2.4376,2.4538,2.4836,2.5251,2.4794,0.0,2.4824,2.4414,2.4157,2.4157,2.4202,0.0,0.0,0.0,0.0,0.0,0.0,0.0,0.0,0.0,0.0,0.0,2.5386,2.5765,2.6256,2.5638,2.4939,2.4394,2.3722,2.3178,2.2911,2.2685,2.2549,2.2541,2.2436,2.2317,2.2127,2.2038,2.183,2.1336,2.1497,2.1497,2.1204,2.1334,2.145,2.124,2.1218,2.1159,2.1123,2.1328,2.1413,2.125,2.1206,2.1238,2.1375,2.1553,2.1818,2.1809,2.1895,2.2025,2.2255,2.225,2.2202,2.2193,2.2145,2.2083,2.2073,2.2104,2.2041,2.2073,2.2133,2.2323,2.2708,2.2938,2.3023,3.42,0.0,3.3224,3.2945,0.0,3.1808,3.1353,3.1058,3.0657,3.0024,2.917,2.8813,2.8254,2.7597,2.7067,2.6649,2.6344,2.6024,2.5799,2.5606,2.5413,2.5252,2.5043,2.4735,2.4386,2.4062,2.3902,2.3574,2.312,2.3106,2.3018,2.2857,2.2526,2.2546,2.2822,2.2691,2.2963,2.3624,2.4083,2.4333,2.4384,2.4694,2.5071,2.5365,0.0,0.0,0.0,0.0,0.0,0.0,0.0,0.0,0.0,0.0,0.0,2.5567,2.5465,2.5319,2.5216,2.5216,2.5176,2.5006,2.5139,2.5323,2.5597,2.4881,2.4246,2.3878,2.338,2.2986,2.2859,2.2754,2.2609,2.2355,2.2314,2.2141,2.1782,2.1788,2.1661,2.1294,2.1406,2.1475,2.1132,2.1254,2.1299,2.1141,2.1109,2.1109,2.1096,2.1227,2.1282,2.1177,2.1303,2.141,2.1396,2.155,2.1684,2.1807,2.1835,2.1905,2.2076,2.1961,2.1853,2.1821,2.1727,2.1614,2.1614,2.1614,2.1601,2.1655,2.1842,2.2076,2.2298,2.2517,2.2744,3.3998,3.3528,3.3127,3.2962,3.2801,3.1519,3.0909,3.0771,0.0,0.0,0.0,2.8653,2.7991,2.7078,2.6532,2.6079,2.5685,2.5391,2.5179,2.5048,2.4988,2.4794,2.4451,2.4131,2.381,2.3505,2.3243,2.2958,2.2664,2.2682,2.2496,2.2216,2.2188,2.219,2.2219,2.2464,2.287,2.3401,2.3979,2.4289,2.4381,2.4787,2.5112,2.5342,2.4942,2.4827,2.5026,2.4457,2.4117,2.4141,2.4395,2.4692,2.5032,2.5321,2.5685,2.616,2.594,2.5804,2.5726,2.5496,2.5195,2.4748,2.4516,2.4469,2.4606,2.4038,2.3553,2.3358,2.3078,2.2907,2.284,2.2896,2.2677,2.2092,2.2002,2.1805,2.1362,2.1449,2.1479,2.1197,2.1325,2.1393,2.1127,2.1096,2.1109,2.1109,2.1109,2.1109,2.1109,2.1127,2.11,2.1119,2.1312,2.1492,2.1538,2.1668,2.1929,2.1856,2.1884,2.1915,2.1853,2.1709,2.152,2.152,2.1299,2.1172,2.1109,2.1127,2.1109,2.1109,2.1577,2.2024,2.205,2.2258,2.2586,3.3459,3.2745,3.2343,3.2013,3.1699,3.1158,3.052,2.9855,2.9263,2.8581,2.7808,2.7774,2.752,2.7116,2.7012,2.6582,2.5948,2.5893,2.5496,0.0,2.462,2.4493,2.441,2.4122,2.382,2.3514,2.3453,2.3266,2.2953,2.2939,2.2804,2.2538,2.2542,2.2501,2.2517,2.2572,2.2793,2.3142,2.3479,2.4093,2.5088,2.4847,2.4942,2.5424,2.5488,2.554,2.5591,2.5684,2.5774,2.5748,2.5607,2.5535,2.5566,2.5415,2.5263,2.5118,2.4823,2.4535,2.4333,2.4375,2.4419,2.4417,2.3972,2.3735,2.3905,2.3907,2.375,2.3479,2.319,2.2824,2.2334,2.2244,2.212,2.1758,2.1678,2.1622,2.1503,2.1523,2.1469,2.1155,2.1132,2.1172,2.1109,2.1109,2.1109,2.1109,2.1109,2.1109,2.1109,2.1109,2.1109,2.1109,2.1141,2.1172,2.1204,2.1204,2.1299,2.1267,2.1299,2.133,2.1299,2.1235,2.1172,2.1141,2.1077,2.1077,2.1077,2.1109,2.1109,2.1136,2.1577,2.1997,2.2024,2.2425,2.2813,3.2806,3.2243,3.183,3.1469,3.106,3.047,2.9756,2.9016,2.8496,2.8223,2.8075,2.7513,2.7083,2.6741,2.6323,2.5846,2.537,2.537,2.5158,2.4826,2.4687,2.4525,2.4336,2.4081,2.3756,2.3427,2.3249,2.2983,2.2711,2.2683,2.2533,2.2312,2.2309,2.2318,2.2356,2.2517,2.2762,2.3102,2.3543,2.3953,2.4306,2.4597,2.4882,2.5113,2.5103,2.5217,2.5358,2.5289,2.5214,2.524,2.511,2.5044,2.5101,2.4987,2.489,2.486,2.4726,2.4545,2.4215,2.398,2.384,2.3901,2.3534,2.3255,2.316,2.3349,2.3264,2.2811,2.2797,2.2569,2.1917,2.1998,2.197,2.1631,2.1614,2.1513,2.1353,2.133,2.1267,2.1141,2.1109,2.1109,2.1109,2.1109,2.1109,2.1109,2.1109,2.1109,2.1109,2.1109,2.1109,2.1109,2.1109,2.1109,2.1077,2.1109,2.1109,2.1109,2.1109,2.1014,2.0887,2.0824,2.0761,2.0615,2.071,2.0792,2.0824,2.0982,2.1077,2.1131,2.1577,2.1924,2.2077,2.2492,2.2853,3.222,3.1888,3.1406,3.0902,3.0307,2.9701,2.9023,2.8306,2.7891,2.7958,2.8141,2.7349,2.6764,2.6511,2.5901,2.5405,2.5032,2.5005,2.4905,2.4751,2.4696,2.4526,2.4298,2.4012,2.3722,2.3394,2.3113,2.2846,2.2598,2.2552,2.2365,2.2117,2.2084,2.2129,2.2194,2.237,2.2689,2.3085,2.3566,2.3777,2.3755,2.4384,2.473,2.4828,2.4816,2.4899,2.5128,2.493,2.4781,2.4799,2.4728,2.4733,2.4782,2.4662,2.4633,2.471,2.4628,2.445,2.412,2.3593,2.332,2.329,2.3037,2.2749,2.2559,2.2807,2.2734,2.2236,2.2364,2.2248,2.1768,2.1825,2.1866,2.1538,2.1488,2.138,2.1141,2.1109,2.1109,2.1109,2.1109,2.1109,2.1109,2.1109,2.1109,2.1109,2.1109,2.1109,2.1109,2.1109,2.1077,2.1014,2.1046,2.1046,2.1014,2.0982,2.0919,2.0887,2.0856,2.0697,2.0539,2.0488,2.0425,2.0234,2.0329,2.0456,2.052,2.0679,2.0792,2.0832,2.1253,2.1753,2.1931,2.2247,2.2709,3.1746,3.1635,3.0946,3.0052,2.9149,2.8973,2.8462,2.7742,2.7386,2.7284,2.7314,2.688,2.6687,2.6673,2.6556,2.6162,2.5615,2.5591,2.5242,2.4639,2.4348,2.4241,2.4214,2.3933,2.3799,2.3688,2.342,2.326,2.3172,2.2953,2.2672,2.2378,2.2117,2.2167,2.2402,2.2272,2.246,2.3099,2.3131,2.3595,2.4364,2.418,2.4356,2.4953,2.5193,2.5338,2.5329,2.5593,2.5674,2.5645,2.541,2.53,2.5247,2.4783,2.4509,2.4483,2.3946,2.3506,2.3241,2.2856,2.2701,2.2669,2.2424,2.2239,2.2184,2.2458,2.2518,2.2198,2.2111,2.2027,2.1668,2.166,2.1574,2.1316,2.1239,2.1141,2.1122,2.1109,2.1109,2.1109,2.1109,2.1109,2.1109,2.1109,2.1109,2.1109,2.1109,2.1077,2.1046,2.1046,2.0919,2.0792,2.0887,2.0919,2.0729,2.0634,2.0552,2.0329,2.0234,2.0202,2.017,2.0138,2.0106,1.9947,2.0106,2.0138,2.0138,2.0202,2.0234,2.0393,2.0747,2.1206,2.1654,2.1928,2.2173,3.1056,3.0545,3.0266,2.9573,2.8725,2.85,2.8216,2.7832,2.7317,2.7075,2.7022,2.6703,2.6457,2.6319,2.6115,2.5818,2.5572,2.5558,2.5335,2.4903,2.4783,2.4636,2.4436,2.4155,2.4022,2.4008,2.3728,2.3594,2.3541,2.3287,2.2993,2.2672,2.2392,2.2311,2.2418,2.2378,2.2488,2.2748,2.3139,2.3635,2.4106,2.3917,2.3859,2.4116,2.4392,2.4685,2.4877,2.5169,2.5227,2.5036,2.4919,2.4701,2.429,2.4025,2.3848,2.3657,2.3231,2.3006,2.3093,2.2595,2.2398,2.2583,2.2472,2.239,2.2346,2.2484,2.2401,2.2143,2.2199,2.2199,2.1876,2.1843,2.1792,2.1662,2.163,2.1563,2.1422,2.1395,2.1309,2.1149,2.1109,2.1109,2.1109,2.1109,2.1109,2.1109,2.1077,2.1046,2.0856,2.0792,2.0634,2.0393,2.0425,2.0456,2.0329,2.0297,2.0234,2.0138,2.0119,2.0074,1.9839,1.9807,1.9743,1.9564,1.9679,1.9807,1.9807,2.0011,2.0119,2.0201,2.0532,2.1065,2.1692,2.1794,2.1966,3.0414,2.9734,2.9621,2.9074,2.834,2.8132,2.7981,2.7806,2.732,2.7079,2.7025,2.6666,2.6437,2.6254,2.5914,2.5718,2.5638,2.5638,2.5478,2.5224,2.5197,2.505,2.4756,2.4556,2.4396,2.4289,2.4022,2.3884,2.3803,2.3567,2.3287,2.2993,2.2779,2.2619,2.2546,2.2511,2.2528,2.266,2.3051,2.3387,2.3645,2.3541,2.3549,2.3793,2.3939,2.4146,2.4354,2.4593,2.4668,2.4384,2.4384,2.4191,2.3683,2.3503,2.3278,2.299,2.2724,2.2752,2.3024,2.2515,2.2308,2.2535,2.2512,2.2401,2.2378,2.2421,2.2362,2.2164,2.2397,2.2443,2.2057,2.2024,2.2024,2.2024,2.2024,2.1917,2.1729,2.1703,2.1596,2.1283,2.1256,2.1189,2.1091,2.1077,2.1077,2.0951,2.0951,2.0869,2.0552,2.0456,2.0329,2.0011,1.9966,1.9979,1.9979,1.9979,1.9947,1.9819,1.9788,1.9692,1.952,1.9488,1.9424,1.9328,1.9392,1.9456,1.9456,1.9692,1.9964,2.0083,2.0384,2.0822,2.128,2.1437,2.1462,2.9969,2.9509,2.92,2.8646,2.7934,2.7921,2.769,2.7405,2.7296,2.7296,2.7229,2.6921,2.6787,2.6747,2.644,2.6199,2.5998,2.5971,2.581,2.5518,2.5491,2.5344,2.5064,2.5037,2.489,2.4572,2.4356,2.4075,2.3843,2.3803,2.3607,2.3313,2.3225,2.3126,2.2907,2.2612,2.2573,2.2841,2.2742,2.2775,2.3056,2.3051,2.3551,2.4307,2.4237,2.4085,2.4162,2.4116,2.4162,2.4116,2.4131,2.4054,2.4008,2.3435,2.2974,2.2695,2.2638,2.2714,2.2902,2.2636,2.2482,2.2457,2.226,2.209,2.217,2.2338,2.2425,2.2405,2.2653,2.2633,2.2171,2.2131,2.2058,2.2058,2.2017,2.2017,2.201,2.1964,2.1863,2.1636,2.151,2.1371,2.1131,2.1109,2.0914,2.0737,2.0628,2.0572,2.0323,2.0157,2.0042,1.9818,1.9665,1.9628,1.9628,1.9616,1.9488,1.9392,1.936,1.9212,1.9168,1.9104,1.9104,1.9104,1.9168,1.92,1.9136,1.9277,1.9512,1.9727,1.9943,2.0334,2.0914,2.0814,2.0873,2.9495,2.902,2.8659,2.8341,2.8066,2.7877,2.7714,2.7522,2.7389,2.7309,2.7296,2.7148,2.7108,2.7081,2.68,2.6507,2.6253,2.6279,2.6118,2.5825,2.5837,2.5677,2.5384,2.5358,2.5197,2.4943,2.4847,2.4516,2.4088,2.4048,2.3901,2.3661,2.3607,2.3554,2.3442,2.3153,2.3027,2.3138,2.3107,2.3145,2.3266,2.3301,2.353,2.3876,2.3992,2.4151,2.4406,2.4391,2.4278,2.404,2.3848,2.3624,2.34,2.3175,2.2992,2.2846,2.2679,2.259,2.2621,2.2386,2.2269,2.2411,2.2325,2.2352,2.2546,2.2666,2.2733,2.276,2.2813,2.276,2.2666,2.2586,2.2586,2.2586,2.2572,2.2445,2.2311,2.2258,2.2151,2.1871,2.1521,2.1174,2.1057,2.0844,2.0696,2.058,2.0676,2.0602,2.0366,2.028,2.0112,1.9875,1.9788,1.9788,1.9788,1.9447,1.9232,1.9168,1.9136,1.916,1.9128,1.9177,1.9189,1.9225,1.9189,1.9201,1.9237,1.9249,1.9455,1.9769,1.9917,2.018,2.0591,2.0676,2.07,2.8894,2.8613,2.8305,2.8192,2.8152,2.7978,2.7884,2.7816,2.767,2.759,2.7576,2.7496,2.7402,2.7403,2.7094,2.6867,2.6693,2.6519,2.6319,2.6145,2.6131,2.5945,2.5705,2.5651,2.5504,2.5251,2.5224,2.4957,2.4529,2.4489,2.4275,2.3928,2.395,2.3861,2.379,2.3567,2.3474,2.3455,2.3504,2.3534,2.3542,2.3571,2.3679,2.3788,2.3978,2.4084,2.4083,2.4039,2.3941,2.3681,2.3453,2.3191,2.2864,2.2831,2.284,2.2805,2.2574,2.2529,2.2591,2.2405,2.2352,2.2539,2.2565,2.2659,2.288,2.2893,2.2893,2.2893,2.2893,2.2859,2.2722,2.2709,2.2722,2.2688,2.2688,2.2587,2.2253,2.2193,2.2062,2.1732,2.1293,2.1006,2.0947,2.0751,2.062,2.049,2.0633,2.0601,2.0314,2.0214,2.0181,1.996,1.9878,1.9866,1.9875,1.9666,1.9544,1.9467,1.9406,1.9346,1.9265,1.9322,1.9322,1.9346,1.9358,1.9358,1.9358,1.9358,1.96,1.9938,2.0108,2.0277,2.0531,2.0688,2.07,2.8248,2.8248,2.8192,2.8192,2.8179,2.8152,2.8165,2.8152,2.8138,2.8085,2.8045,2.7816,2.7696,2.7642,2.7402,2.7296,2.7188,2.676,2.6453,2.64,2.6426,2.6279,2.6011,2.5998,2.5837,2.5518,2.5504,2.5358,2.5064,2.5024,2.477,2.4329,2.4262,2.4155,2.3857,2.3857,2.3803,2.379,2.3785,2.3785,2.3803,2.3781,2.3882,2.417,2.4249,2.3915,2.3149,2.3126,2.3187,2.3131,2.3051,2.2845,2.2619,2.2586,2.2502,2.2512,2.2418,2.2599,2.2813,2.2827,2.28,2.2853,2.2867,2.2867,2.288,2.2893,2.2859,2.2825,2.2825,2.2722,2.2379,2.231,2.231,2.231,2.231,2.2194,2.1941,2.1816,2.1692,2.1412,2.1098,2.0913,2.09,2.08,2.0647,2.0481,2.0476,2.0425,2.0182,2.0127,1.9975,1.9941,2.0026,2.0086,2.0023,1.9926,1.9926,1.9914,1.983,1.9724,1.9676,1.9664,1.9639,1.9672,1.966,1.9672,1.966,1.9684,1.9842,2.0132,2.0241,2.035,2.0543,2.07,2.07,2.8457,2.843,2.8272,2.8192,2.8192,2.8192,2.8192,2.8192,2.8192,2.8192,2.8165,2.8085,2.8045,2.7978,2.7737,2.7562,2.7522,2.7202,2.6894,2.672,2.6654,2.6533,2.6306,2.6305,2.6092,2.5825,2.5598,2.5478,2.5398,2.5384,2.5264,2.5104,2.489,2.477,2.4623,2.4289,2.4062,2.4048,2.391,2.3817,2.3817,2.3817,2.3888,2.3946,2.3946,2.3801,2.3581,2.3591,2.3508,2.3268,2.3052,2.2896,2.2795,2.2795,2.2768,2.2746,2.276,2.2786,2.2867,2.2907,2.2907,2.2907,2.2907,2.2893,2.2893,2.2893,2.2756,2.2551,2.2482,2.2345,2.2035,2.1966,2.1966,2.1979,2.1966,2.1897,2.176,2.176,2.1769,2.1598,2.1153,2.0868,2.0788,2.0687,2.0484,2.0407,2.0483,2.0525,2.0468,2.0398,2.0458,2.0458,2.0458,2.0352,2.0337,2.0301,2.0301,2.0241,2.0144,2.0096,2.0047,2.0035,1.9977,1.9999,1.9953,1.9987,1.9975,2.0023,2.0168,2.0241,2.0313,2.047,2.064,2.07,2.07,2.8698,2.8591,2.8433,2.8286,2.8192,2.8192,2.8192,2.8192,2.8192,2.8192,2.8192,2.8179,2.8192,2.8152,2.7991,2.7869,2.7884,2.771,2.7469,2.7161,2.7014,2.6881,2.6707,2.6587,2.64,2.6132,2.5932,2.5785,2.5678,2.5678,2.5625,2.5491,2.5331,2.5237,2.5224,2.489,2.469,2.4663,2.4529,2.4422,2.4432,2.4352,2.4262,2.4285,2.4155,2.4048,2.3964,2.399,2.3852,2.3573,2.3332,2.3228,2.3241,2.3228,2.3228,2.3241,2.3241,2.3241,2.3228,2.3161,2.3033,2.302,2.296,2.2893,2.2859,2.2791,2.2551,2.2345,2.2173,2.1966,2.1656,2.1587,2.1531,2.1427,2.1531,2.1496,2.1427,2.1393,2.138,2.1274,2.099,2.0813,2.0686,2.0617,2.0458,2.0483,2.0591,2.07,2.07,2.0688,2.07,2.07,2.064,2.0616,2.0664,2.0676,2.0676,2.0555,2.0434,2.0374,2.0337,2.0337,2.0325,2.0337,2.0337,2.035,2.0337,2.0313,2.0386,2.041,2.0434,2.0555,2.07,2.07,2.07,2.8911,2.8657,2.8617,2.843,2.8245,2.8205,2.8192,2.8192,2.8192,2.8192,2.8192,2.8192,2.8192,2.8192,2.8138,2.8138,2.8165,2.8125,2.7965,2.7669,2.7468,2.7336,2.7188,2.6947,2.672,2.6507,2.6413,2.6305,2.6066,2.6038,2.5838,2.5651,2.5585,2.5531,2.5518,2.5466,2.5411,2.5371,2.5411,2.5384,2.5384,2.5197,2.5064,2.5074,2.481,2.4583,2.4396,2.4365,2.4165,2.3857,2.3723,2.3723,2.3777,2.3803,2.3736,2.3723,2.3754,2.375,2.3723,2.3522,2.3354,2.3327,2.3105,2.2913,2.2889,2.26,2.2319,2.2169,2.1923,2.16,2.1276,2.1185,2.1047,2.0839,2.1047,2.1047,2.077,2.0735,2.0839,2.0804,2.07,2.07,2.0698,2.0664,2.0664,2.0676,2.0688,2.07,2.07,2.07,2.07,2.07,2.07,2.07,2.07,2.07,2.07,2.0664,2.0579,2.0555,2.0531,2.0543,2.0567,2.0591,2.0603,2.064,2.064,2.0567,2.0555,2.0579,2.0628,2.0688,2.07,2.07,2.07,2.9325,2.9205,2.8791,2.8564,2.8457,2.8286,2.8192,2.8192,2.8192,2.8192,2.8192,2.8192,2.8192,2.8192,2.8192,2.8192,2.8192,2.8192,2.8165,2.8072,2.8005,2.7684,2.7376,2.7242,2.7108,2.7028,2.68,2.6667,2.6587,2.64,2.6239,2.6159,2.5945,2.5891,2.5864,2.5638,2.5518,2.5518,2.5518,2.5531,2.5531,2.5464,2.5398,2.5384,2.5304,2.5224,2.5157,2.517,2.4703,2.3884,2.3817,2.3817,2.3843,2.3843,2.3821,2.3821,2.3808,2.3794,2.3781,2.3714,2.3625,2.3647,2.3258,2.3139,2.309,2.2578,2.2125,2.1817,2.1518,2.1232,2.092,2.0839,2.077,2.0735,2.0804,2.0804,2.0735,2.07,2.07,2.07,2.07,2.07,2.07,2.07,2.07,2.07,2.07,2.07,2.07,2.07,2.07,2.07,2.07,2.07,2.07,2.07,2.07,2.07,2.0664,2.0652,2.064,2.0652,2.0664,2.0676,2.0652,2.0676,2.0688,2.0652,2.07,2.07,2.07,2.07,2.07,2.07,2.07,2.9593,2.9459,2.9112,2.8831,2.8604,2.8404,2.8312,2.8205,2.8192,2.8192,2.8192,2.8192,2.8192,2.8192,2.8192,2.8192,2.8192,2.8192,2.8179,2.8179,2.8165,2.7911,2.759,2.7455,2.7429,2.7296,2.7094,2.7028,2.6987,2.6841,2.6707,2.656,2.64,2.6266,2.6172,2.5985,2.5879,2.5892,2.5879,2.5879,2.5879,2.5758,2.5705,2.5665,2.5598,2.5518,2.5504,2.5352,2.4929,2.4452,2.4365,2.4275,2.4142,2.4128,2.4056,2.3911,2.3875,2.3816,2.3632,2.353,2.3451,2.3376,2.3145,2.2982,2.2837,2.2446,2.1967,2.1801,2.15,2.1201,2.0939,2.0773,2.0712,2.07,2.07,2.07,2.07,2.07,2.07,2.07,2.07,2.07,2.07,2.07,2.07,2.07,2.07,2.07,2.07,2.07,2.07,2.07,2.07,2.07,2.07,2.07,2.07,2.07,2.07,2.07,2.07,2.07,2.07,2.07,2.07,2.07,2.07,2.07,2.07,2.07,2.07,2.07,2.07,2.07,2.07,2.9766,2.9526,2.9486,2.9179,2.8751,2.8671,2.8524,2.8326,2.8339,2.8299,2.8272,2.8245,2.8232,2.8192,2.8192,2.8192,2.8192,2.8192,2.8192,2.8192,2.8165,2.8018,2.7831,2.7791,2.7684,2.7496,2.7389,2.7349,2.7322,2.7296,2.7108,2.6907,2.6854,2.6734,2.6573,2.648,2.648,2.648,2.648,2.6426,2.636,2.6199,2.6118,2.5972,2.5812,2.5666,2.5524,2.5254,2.5006,2.5033,2.5031,2.4719,2.452,2.4531,2.4345,2.4099,2.4011,2.385,2.3525,2.3334,2.3144,2.3093,2.2866,2.2641,2.2607,2.2281,2.1979,2.1943,2.1703,2.1377,2.116,2.0918,2.0797,2.0785,2.0749,2.07,2.07,2.07,2.07,2.07,2.07,2.07,2.07,2.07,2.07,2.07,2.07,2.07,2.07,2.07,2.07,2.07,2.07,2.07,2.07,2.07,2.07,2.07,2.07,2.07,2.07,2.07,2.07,2.07,2.07,2.07,2.07,2.07,2.07,2.07,2.07,2.07,2.07,2.07,2.07,2.9887,2.9806,2.9579,2.9419,2.9272,2.9045,2.8911,2.8788,2.8831,2.8684,2.8551,2.8511,2.8433,2.8219,2.8272,2.8192,2.8259,2.8232,2.8192,2.8192,2.8192,2.8165,2.8085,2.8072,2.8045,2.7924,2.7737,2.7615,2.7575,2.7456,2.7282,2.7188,2.7161,2.7175,2.7095,2.7041,2.7122,2.7122,2.7095,2.6961,2.6747,2.6667,2.6507,2.6346,2.6239,2.6003,2.5767,2.5649,2.5348,2.4881,2.4508,2.4316,2.4328,2.4315,2.4226,2.4137,2.4125,2.3985,2.3732,2.358,2.3503,2.3239,2.3004,2.283,2.2781,2.2264,2.1995,2.1898,2.1643,2.1534,2.1414,2.1172,2.1039,2.099,2.0857,2.0736,2.0712,2.07,2.07,2.07,2.07,2.07,2.07,2.07,2.07,2.07,2.07,2.07,2.07,2.07,2.07,2.07,2.07,2.07,2.07,2.07,2.07,2.07,2.07,2.07,2.07,2.07,2.07,2.07,2.07,2.07,2.07,2.07,2.07,2.07,2.07,2.07,2.07,2.07,2.07,3.0047,2.99,2.974,2.9606,2.9472,2.9312,2.9121,2.9015,2.9001,2.8921,2.8828,2.8938,2.8911,2.8821,2.8807,2.8821,2.8727,2.85,2.8312,2.8232,2.8192,2.8192,2.8192,2.8192,2.8179,2.8152,2.8031,2.7951,2.7898,2.7777,2.767,2.7468,2.7468,2.7403,2.7322,2.7322,2.7282,2.7282,2.7309,2.7215,2.7054,2.7028,2.6866,2.6599,2.6479,2.6225,2.5721,2.5428,2.5115,2.4623,2.4081,2.3897,2.4149,2.4188,2.4111,2.3957,2.3919,2.3753,2.354,2.3477,2.3376,2.3278,2.3076,2.2964,2.2815,2.2419,2.2224,2.2103,2.197,2.1812,2.1704,2.1462,2.1317,2.1281,2.1172,2.1039,2.0906,2.0785,2.07,2.07,2.07,2.07,2.07,2.07,2.07,2.07,2.07,2.07,2.07,2.07,2.07,2.07,2.07,2.07,2.07,2.07,2.07,2.07,2.07,2.07,2.07,2.07,2.07,2.07,2.07,2.07,2.07,2.07,2.07,2.07,2.07,2.07,2.0712,2.0724,2.0712,3.0207,2.998,2.994,2.9766,2.9566,2.9553,2.9419,2.9175,2.9121,2.9148,2.9138,2.9392,2.9423,2.949,2.9419,2.9503,2.9325,2.9018,2.8657,2.8404,2.8339,2.8312,2.8299,2.8232,2.8192,2.8192,2.8152,2.8152,2.8152,2.8165,2.7978,2.7831,2.7762,2.7724,2.751,2.7456,2.7523,2.7536,2.7536,2.7456,2.7348,2.724,2.6926,2.6507,2.6412,2.6118,2.5557,2.5222,2.4811,2.4427,2.3719,2.3655,2.3906,2.4057,2.4005,2.3643,2.3692,2.3577,2.3361,2.322,2.3196,2.3106,2.3097,2.3012,2.283,2.2745,2.2586,2.2417,2.2272,2.2151,2.197,2.1728,2.1595,2.1559,2.1547,2.1401,2.1196,2.0954,2.0882,2.07,2.07,2.07,2.07,2.07,2.07,2.07,2.07,2.07,2.07,2.07,2.07,2.07,2.07,2.07,2.07,2.07,2.07,2.0712,2.0712,2.0724,2.0724,2.07,2.07,2.07,2.07,2.0712,2.0712,2.07,2.07,2.07,2.07,2.07,2.0712,2.0702,2.0773,3.0373,3.0261,3.002,2.9887,2.9847,2.9847,2.9793,2.978,2.9726,2.9619,2.9432,2.9472,2.9584,2.9557,2.9499,2.9499,2.9486,2.9352,2.9165,2.8858,2.8671,2.8564,2.8444,2.8326,2.8219,2.8192,2.815,2.815,2.815,2.8179,2.8054,2.8056,2.8001,2.7934,2.7866,2.8031,2.7826,2.7715,2.7757,2.7677,2.7503,2.7214,2.6763,2.6195,2.6141,2.5817,2.5479,2.5236,2.487,2.4175,2.3957,2.3821,2.3739,2.3564,2.3548,2.3714,2.3742,2.3617,2.3418,2.3342,2.3261,2.3155,2.313,2.3106,2.3034,2.2997,2.2864,2.2635,2.2429,2.2284,2.2236,2.1994,2.1873,2.18,2.1692,2.1547,2.1462,2.1329,2.1172,2.0894,2.0797,2.0736,2.0773,2.0773,2.0749,2.0736,2.07,2.07,2.07,2.07,2.07,2.07,2.07,2.07,2.07,2.07,2.07,2.0724,2.0736,2.0773,2.0761,2.0712,2.0712,2.0845,2.0821,2.0761,2.0749,2.0761,2.0809,2.0894,2.0809,2.0736,2.0857,2.0943,2.1027,3.0635,3.04,3.0253,3.006,2.9927,2.9913,2.9913,2.9913,2.9913,2.9847,2.9793,2.9905,2.9985,2.9985,2.9985,2.986,2.9766,2.9931,2.9673,2.9325,2.9125,2.8858,2.8671,2.85,2.8326,2.8148,2.7981,2.7854,2.7812,2.7812,2.7728,2.7503,2.7461,2.7474,2.7474,2.7392,2.7503,2.7503,2.7503,2.7438,2.7265,2.6958,2.6574,2.6176,2.5933,2.5686,2.52,2.4896,2.4562,2.4039,2.3506,2.352,2.358,2.3534,2.3428,2.3724,2.3824,2.3776,2.3643,2.3607,2.3547,2.3502,2.3442,2.3381,2.3297,2.3225,2.3068,2.2792,2.2623,2.2441,2.2308,2.2187,2.2127,2.2091,2.1982,2.1849,2.1764,2.1728,2.1486,2.1184,2.1196,2.1135,2.093,2.0906,2.0833,2.0773,2.0736,2.0736,2.0761,2.0785,2.0821,2.0797,2.0821,2.0821,2.0833,2.0833,2.0845,2.0833,2.0857,2.0894,2.0954,2.0966,2.1063,2.1196,2.1087,2.0966,2.0978,2.1051,2.1075,2.1099,2.1123,2.11,2.1136,2.122,2.1281,3.0915,3.048,3.0426,3.0194,2.994,2.9913,2.9913,2.9913,2.9913,2.9913,2.994,3.0127,3.0261,3.04,3.0413,3.0287,3.0047,3.0346,3.0172,2.9824,2.9704,2.9379,2.9005,2.8622,2.8459,2.8055,2.7676,2.7484,2.7529,2.7431,2.7135,2.6995,2.6825,2.6783,2.6868,2.6953,2.6783,2.6783,2.6783,2.6783,2.6698,2.6656,2.6443,2.5976,2.589,2.5471,2.4975,2.4583,2.4235,2.3771,2.3325,2.3165,2.3723,2.3587,2.3574,2.3891,2.3969,2.3957,2.3957,2.3884,2.3872,2.3836,2.3812,2.368,2.3547,2.339,2.3234,2.2899,2.278,2.2707,2.2562,2.2417,2.2381,2.2357,2.2308,2.2224,2.2054,2.197,2.1909,2.174,2.1692,2.151,2.1281,2.1184,2.1135,2.1111,2.1075,2.1051,2.1063,2.1027,2.1027,2.0978,2.0978,2.0943,2.099,2.1039,2.1051,2.1087,2.1123,2.1184,2.1244,2.1305,2.1401,2.145,2.1462,2.1353,2.1353,2.1317,2.1305,2.1353,2.1426,2.1438,2.1389,2.1462,2.1571,3.1036,3.0715,3.0474,3.0194,2.994,2.9913,2.9913,2.9913,2.9913,2.9913,2.9913,2.9967,3.0127,3.0373,3.0654,3.0587,3.0507,3.0574,3.056,3.0266,3.0194,2.993,2.9593,2.8973,2.8487,2.8048,2.7543,2.7397,2.7345,2.7123,2.6838,2.6698,2.6613,2.6741,2.6613,2.6583,2.6783,2.6783,2.6741,2.6571,2.6231,2.6188,2.589,2.5519,2.5177,2.4897,2.4667,2.4314,2.3938,2.3553,2.3382,2.3421,2.3698,2.3695,2.3953,2.4294,2.4528,2.4487,2.4456,2.4258,2.415,2.4101,2.3969,2.3824,2.3692,2.3547,2.3402,2.3354,2.3152,2.2997,2.2877,2.2756,2.2683,2.2586,2.2514,2.2393,2.226,2.2248,2.2187,2.2103,2.1994,2.18,2.1595,2.1522,2.1414,2.1402,2.1378,2.1377,2.1341,2.1268,2.1244,2.1208,2.116,2.116,2.1148,2.122,2.1244,2.1293,2.1389,2.1462,2.1522,2.1571,2.1571,2.1619,2.1667,2.1704,2.1655,2.1607,2.1523,2.1571,2.1716,2.1643,2.151,2.1643,2.1812,3.1209,3.0782,3.0662,3.0341,2.994,2.9913,2.9913,2.9913,2.9913,2.9913,2.9913,2.9913,2.9993,3.0167,3.0421,3.052,3.048,3.0648,3.0728,3.0484,3.028,3.0037,2.9605,2.9074,2.8539,2.8086,2.777,2.7573,2.7391,2.6818,2.6316,2.611,2.6055,2.5945,2.6165,2.6043,2.5988,2.5988,2.5988,2.5903,2.5763,2.5677,2.5476,2.5049,2.4792,2.4578,2.4321,2.3935,2.3634,2.3419,2.3419,2.3589,2.3884,2.4148,2.4515,2.4993,2.5041,2.4939,2.4661,2.4487,2.4439,2.4354,2.4174,2.3981,2.3836,2.3716,2.3547,2.3414,2.3306,2.3225,2.313,2.2985,2.2937,2.2864,2.2756,2.2635,2.255,2.2514,2.2465,2.2393,2.2308,2.2077,2.1871,2.1714,2.1582,2.151,2.1486,2.1498,2.145,2.1402,2.139,2.1414,2.1402,2.1414,2.139,2.139,2.1426,2.1498,2.1667,2.1728,2.1776,2.1813,2.1825,2.1909,2.203,2.2018,2.1946,2.1933,2.1921,2.1946,2.197,2.1897,2.1837,2.1946,2.2115,3.1263,3.0795,3.0795,3.0448,2.9927,2.9913,2.9913,2.9913,2.9913,2.9913,2.9913,2.9913,2.9913,2.9953,3.014,3.0279,3.0261,3.0463,3.0478,3.032,3.007,2.9689,2.9299,2.8876,2.8425,2.8103,2.7479,2.7295,2.7004,2.6591,2.6056,2.568,2.5943,2.5791,2.5651,2.5633,2.5628,2.5519,2.5519,2.5476,2.5391,2.5305,2.5049,2.4749,2.4492,2.4224,2.3935,2.3462,2.3247,2.3204,2.3333,2.3568,2.4029,2.4403,2.4831,2.5233,2.5306,2.5186,2.4933,2.4764,2.4704,2.4607,2.4439,2.4198,2.3969,2.3897,2.38,2.3571,2.3523,2.3402,2.3297,2.3212,2.314,2.3116,2.3082,2.2961,2.284,2.2804,2.2768,2.2681,2.2545,2.2333,2.2128,2.19,2.1747,2.1618,2.1607,2.1619,2.1619,2.1571,2.1691,2.1703,2.1764,2.1764,2.1788,2.174,2.1704,2.1716,2.1885,2.1982,2.203,2.2091,2.2139,2.2248,2.2345,2.2248,2.2115,2.2212,2.2296,2.2199,2.2151,2.2212,2.2248,2.232,2.2369,3.1076,3.0795,3.0782,3.0448,2.9913,2.9913,2.9913,2.9913,2.9913,2.9913,2.9913,2.9913,2.9913,2.9882,2.9909,2.9904,2.9935,2.9735,2.973,2.9664,2.9446,2.9203,2.8858,2.8457,2.795,2.7443,2.7029,2.668,2.6435,2.6443,2.6298,2.6451,2.6238,2.6258,2.609,2.5837,2.5668,2.5517,2.5425,2.5401,2.5304,2.5066,2.4742,2.4504,2.3935,2.3462,2.3419,2.3074,2.2859,2.2859,2.329,2.3623,2.4064,2.4578,2.5049,2.5305,2.5391,2.5318,2.5198,2.5065,2.4981,2.4897,2.4716,2.4451,2.4198,2.4174,2.4041,2.386,2.386,2.3788,2.3668,2.3559,2.3463,2.3393,2.3321,2.3215,2.3118,2.307,2.3007,2.2957,2.273,2.2431,2.2154,2.189,2.1702,2.158,2.1575,2.1588,2.1796,2.1833,2.1967,2.2089,2.215,2.2199,2.2212,2.2151,2.203,2.2042,2.2175,2.2236,2.2272,2.2345,2.2478,2.2453,2.2514,2.2405,2.2357,2.2465,2.2502,2.2357,2.2332,2.2417,2.2478,2.2526,2.2586,3.0795,3.0574,3.0574,3.0287,2.9913,2.9913,2.9913,2.9913,2.9913,2.9913,2.9913,2.9913,2.9913,2.9824,2.9554,2.9465,2.9433,2.9061,2.9034,2.8947,2.8787,2.8657,2.8368,2.7918,2.7361,2.7053,2.6674,2.6467,2.6363,2.6266,2.645,2.6563,2.6441,2.6331,2.6138,2.6102,2.5926,2.5766,2.5556,2.5437,2.5327,2.4826,2.4367,2.402,2.3754,2.3258,2.2988,2.2805,2.2729,2.2913,2.3484,2.3883,2.4215,2.4773,2.5146,2.536,2.5391,2.5391,2.5391,2.5282,2.5186,2.5017,2.4885,2.4728,2.4475,2.4439,2.4403,2.4306,2.4246,2.4174,2.4029,2.3945,2.386,2.3692,2.3587,2.3454,2.3369,2.3333,2.308,2.2928,2.2626,2.2276,2.2071,2.1804,2.1659,2.1513,2.1551,2.1609,2.1768,2.1942,2.2053,2.2178,2.2253,2.238,2.2417,2.2369,2.232,2.2393,2.2465,2.2502,2.2562,2.2756,2.284,2.2818,2.277,2.2719,2.2731,2.2806,2.2733,2.2514,2.2526,2.2673,2.2683,2.2719,2.2816,3.06,3.04,3.0306,3.01,2.9927,2.9913,2.9913,2.9913,2.9913,2.9913,2.9913,2.9913,2.9824,2.9644,2.9362,2.9092,2.8925,2.8545,2.8466,2.8236,2.7945,2.7781,2.7522,2.7164,2.6607,2.655,2.6364,2.6109,2.6075,2.6167,2.6329,2.6347,2.6245,2.6155,2.6439,2.6198,2.6049,2.5713,2.5525,2.5315,2.5181,2.4646,2.4237,2.3831,2.3578,2.3304,2.3086,2.301,2.3076,2.3381,2.3848,2.4269,2.4644,2.4984,2.5377,2.5427,2.5403,2.5403,2.5403,2.5379,2.5318,2.5174,2.5138,2.4969,2.48,2.4704,2.4668,2.4547,2.4547,2.4511,2.4318,2.427,2.4234,2.4089,2.3933,2.384,2.3612,2.35,2.3159,2.2855,2.2509,2.2116,2.1862,2.1654,2.1557,2.1438,2.144,2.1502,2.1681,2.1807,2.1936,2.2089,2.2229,2.2409,2.2562,2.2611,2.2671,2.2707,2.2756,2.278,2.2915,2.3097,2.3133,2.3012,2.3,2.3097,2.3072,2.3,2.2816,2.2635,2.2731,2.2864,2.2915,2.2925,2.3058,3.0413,3.036,3.0047,2.9927,2.9913,2.9913,2.9913,2.9913,2.9913,2.9869,2.9824,2.9824,2.9599,2.9272,2.9047,2.8777,2.8429,2.792,2.7686,2.7484,2.6917,2.6541,2.6279,2.604,2.5777,2.5651,2.5525,2.549,2.5559,2.549,2.5742,2.5994,2.59,2.5978,2.6785,2.6255,2.556,2.4963,2.493,2.4909,2.482,2.4419,2.4064,2.3908,2.361,2.3334,2.328,2.3368,2.3489,2.3853,2.4449,2.4808,2.505,2.5473,2.5692,2.5511,2.5475,2.5451,2.5427,2.5415,2.5415,2.5355,2.5294,2.521,2.5053,2.4981,2.4921,2.4812,2.4716,2.4656,2.4595,2.4583,2.4547,2.4427,2.4258,2.408,2.3891,2.371,2.3378,2.2843,2.2332,2.1878,2.1629,2.1439,2.1417,2.1329,2.1318,2.1379,2.1506,2.1642,2.1751,2.2008,2.2215,2.2534,2.2752,2.2949,2.306,2.3072,2.3058,2.307,2.3118,2.3227,2.3215,2.3143,2.3215,2.3336,2.3227,2.3106,2.3082,2.3043,2.3034,2.3094,2.3106,2.3167,2.3324,3.0074,3.006,2.9909,2.9913,2.9913,2.9913,2.9913,2.9913,2.9869,2.9734,2.9465,2.942,2.9195,2.8777,2.8372,2.8146,2.783,2.7118,2.68,2.6697,2.6118,2.5936,2.5696,2.5377,2.5103,2.4966,2.4829,2.4703,2.4588,2.4703,2.4921,2.5149,2.5514,2.5742,2.5958,2.5775,2.5513,2.5286,2.5049,2.4811,2.4744,2.4261,2.3948,2.3937,2.3594,2.3484,2.354,2.3729,2.4041,2.4353,2.4886,2.5292,2.5483,2.5866,2.5993,2.5897,2.5897,2.5953,2.5953,2.5897,2.5728,2.556,2.5439,2.5403,2.527,2.5258,2.5198,2.5126,2.5053,2.4993,2.4921,2.4873,2.48,2.4595,2.4422,2.4245,2.4074,2.3886,2.3622,2.2908,2.2311,2.1652,2.1289,2.1127,2.1077,2.1083,2.1025,2.1009,2.1067,2.1285,2.1473,2.185,2.216,2.257,2.2939,2.3125,2.3227,2.3203,2.3237,2.3321,2.3369,2.3406,2.3478,2.349,2.3538,2.3575,2.3478,2.343,2.3538,2.3523,2.3418,2.3381,2.3454,2.3526,2.3635,2.942,2.942,2.942,2.942,2.9465,2.9779,2.9913,2.9869,2.9734,2.9496,2.9227,2.9047,2.8687,2.8236,2.7875,2.7377,2.7196,2.6652,2.6118,2.6027,2.556,2.5377,2.5149,2.4875,2.46,2.4474,2.4337,2.4164,2.421,2.4164,2.4337,2.4657,2.5058,2.5103,2.5195,2.5126,2.5252,2.5138,2.4888,2.4819,2.4695,2.4401,2.4097,2.402,2.3888,2.3925,2.4004,2.4318,2.4711,2.4968,2.5358,2.5813,2.5956,2.6097,2.627,2.6222,2.6174,2.6206,2.6138,2.6138,2.5945,2.5764,2.5668,2.562,2.556,2.5523,2.5451,2.5403,2.5427,2.5318,2.5186,2.5138,2.5053,2.4849,2.4544,2.4377,2.4122,2.3943,2.3381,2.2724,2.2253,2.1592,2.096,2.0837,2.0765,2.075,2.0744,2.0735,2.0802,2.1075,2.1446,2.1929,2.2306,2.2729,2.3107,2.3378,2.3418,2.3372,2.3442,2.3547,2.3571,2.3647,2.3728,2.3812,2.3752,2.3716,2.3752,2.3776,2.3776,2.3728,2.3631,2.3668,2.3788,2.3824,2.3836,2.852,2.852,2.852,2.8565,2.8655,2.942,2.9779,2.9824,2.9362,2.9137,2.9092,2.861,2.8146,2.7694,2.7604,2.7105,2.6425,2.6197,2.5879,2.5514,2.5012,2.4875,2.4692,2.4428,2.4291,2.4164,2.4118,2.4118,2.4118,2.4118,2.4118,2.4199,2.46,2.4657,2.4646,2.4738,2.4909,2.4909,2.5001,2.4955,2.4933,2.4887,2.4626,2.4512,2.4536,2.4696,2.4889,2.5218,2.565,2.5979,2.6229,2.6428,2.6513,2.6608,2.6439,2.6307,2.6258,2.6283,2.6307,2.6319,2.6295,2.621,2.6254,2.6097,2.5916,2.5832,2.5728,2.5632,2.5596,2.5499,2.5415,2.5403,2.5336,2.5052,2.4667,2.4409,2.4097,2.3637,2.3009,2.2492,2.2166,2.1588,2.0972,2.0712,2.0526,2.0662,2.0765,2.1081,2.1124,2.1154,2.1614,2.2293,2.2647,2.2957,2.3277,2.3592,2.3647,2.3562,2.3692,2.3824,2.3836,2.3872,2.4005,2.4041,2.3921,2.3909,2.4029,2.4017,2.3933,2.3897,2.3945,2.3812,2.3884,2.3897,2.3909,2.852,2.852,2.852,2.852,2.852,2.8803,2.9105,2.9317,2.8925,2.8507,2.8133,2.801,2.7468,2.6743,2.6652,2.6288,2.5879,2.5423,2.5183,2.4875,2.4555,2.4382,2.4291,2.421,2.4118,2.4118,2.4118,2.4072,2.4072,2.4072,2.4072,2.4164,2.4337,2.4382,2.4555,2.4738,2.4864,2.5001,2.524,2.5332,2.5377,2.5377,2.5195,2.5195,2.5195,2.5332,2.5468,2.5833,2.6209,2.63,2.6664,2.6819,2.6852,2.6873,2.6801,2.6777,2.6765,2.6765,2.6798,2.6785,2.6716,2.6692,2.6749,2.6508,2.6278,2.6109,2.6017,2.5897,2.588,2.5788,2.5704,2.5668,2.549,2.5113,2.4738,2.4368,2.4012,2.3463,2.2842,2.2416,2.2086,2.1377,2.0766,2.0452,2.0351,2.0574,2.0847,2.118,2.1407,2.1431,2.1823,2.2542,2.2855,2.3132,2.3482,2.3788,2.3788,2.38,2.3969,2.4089,2.4113,2.4174,2.4306,2.4306,2.4222,2.427,2.4391,2.4318,2.4198,2.4318,2.4354,2.4125,2.3969,2.4029,2.4077,2.7344,2.7344,2.7344,2.7558,2.7875,2.7933,2.8204,2.8507,2.8281,2.7965,2.7694,2.7332,2.6845,2.6379,2.6106,2.5742,2.5286,2.5058,2.4772,2.4463,2.4199,2.4199,2.4118,2.4072,2.4118,2.4118,2.4072,2.3981,2.3924,2.3843,2.3843,2.4118,2.4199,2.4509,2.4818,2.5195,2.5468,2.556,2.5696,2.5833,2.5879,2.5879,2.5788,2.5696,2.5742,2.5879,2.5924,2.6345,2.6527,2.6573,2.6936,2.6981,2.6981,2.6981,2.6981,2.6945,2.6945,2.6933,2.6966,2.6991,2.7015,2.7027,2.7027,2.6813,2.6608,2.6427,2.6283,2.615,2.6182,2.6158,2.6061,2.5921,2.5489,2.509,2.4693,2.431,2.381,2.3323,2.2848,2.2385,2.173,2.1016,2.0508,2.0269,2.0305,2.0669,2.1073,2.1432,2.163,2.1719,2.219,2.2867,2.3038,2.3219,2.3643,2.4041,2.4089,2.415,2.4258,2.4354,2.4391,2.4427,2.4487,2.4535,2.4535,2.4583,2.4607,2.4571,2.4499,2.462,2.4656,2.4451,2.4306,2.4306,2.4342,2.5651,2.5651,2.5605,2.6197,2.6821,2.6936,2.7208,2.7501,2.7558,2.7558,2.7377,2.6652,2.6209,2.5924,2.5651,2.524,2.4829,2.4555,2.428,2.4016,2.3786,2.3797,2.3935,2.4016,2.3981,2.4072,2.4072,2.397,2.3603,2.3659,2.3889,2.4107,2.4509,2.4818,2.5046,2.5696,2.6061,2.6254,2.63,2.6345,2.6345,2.63,2.6152,2.5924,2.6106,2.6345,2.6482,2.6709,2.7027,2.6981,2.6981,2.7027,2.7027,2.7027,2.7027,2.7027,2.7027,2.7027,2.7027,2.7027,2.7027,2.7027,2.7027,2.6945,2.6801,2.6704,2.6548,2.6463,2.6496,2.6411,2.6283,2.6034,2.5654,2.5129,2.4631,2.418,2.3654,2.3119,2.2555,2.2025,2.1379,2.0716,2.061,2.0422,2.0683,2.0976,2.132,2.1673,2.198,2.2093,2.258,2.317,2.3203,2.3404,2.4033,2.4391,2.4463,2.4535,2.4583,2.462,2.4644,2.4656,2.4668,2.4764,2.4885,2.4788,2.4764,2.4788,2.4824,2.4812,2.4812,2.4716,2.4656,2.4656,2.4632,2.5605,2.5605,2.5605,2.5742,2.597,2.6334,2.63,2.6152,2.647,2.6606,2.6515,2.6015,2.556,2.5286,2.5103,2.4738,2.4337,2.4016,2.3705,2.3465,2.3235,2.3419,2.3557,2.3649,2.3797,2.4026,2.4072,2.397,2.3786,2.3843,2.3935,2.4153,2.46,2.5001,2.5423,2.6106,2.6482,2.6709,2.6755,2.6755,2.6755,2.68,2.6755,2.6664,2.68,2.68,2.6845,2.6891,2.7027,2.6981,2.6981,2.7027,2.7027,2.7027,2.7027,2.7027,2.7027,2.7027,2.7027,2.7027,2.7027,2.7027,2.7027,2.7027,2.6957,2.6909,2.6849,2.6789,2.6716,2.662,2.6458,2.6187,2.5771,2.5187,2.4562,2.4041,2.3566,2.2908,2.2266,2.1703,2.1054,2.0797,2.0656,2.0835,2.1055,2.1371,2.1653,2.2052,2.2493,2.2726,2.2961,2.3386,2.3333,2.3619,2.4312,2.4704,2.4764,2.4788,2.4812,2.4849,2.4897,2.4957,2.5017,2.515,2.5222,2.5102,2.5065,2.5198,2.5198,2.5102,2.5065,2.5017,2.5065,2.509,2.5017,2.4932,2.4977,2.5149,2.524,2.5332,2.5788,2.5833,2.5651,2.5651,2.5651,2.5605,2.5332,2.5058,2.4738,2.46,2.4245,2.3797,2.3567,2.3291,2.3015,2.2867,2.3051,2.3189,2.3429,2.3751,2.3981,2.3843,2.3751,2.3832,2.3832,2.3832,2.4382,2.4875,2.5377,2.5879,2.6345,2.6721,2.6981,2.7006,2.7051,2.7006,2.6994,2.7027,2.7027,2.7027,2.7027,2.7027,2.7027,2.7027,2.7027,2.7027,2.7027,2.7027,2.7027,2.7027,2.7027,2.7027,2.7027,2.7027,2.7027,2.7027,2.7027,2.7027,2.7027,2.7027,2.6945,2.6945,2.693,2.6885,2.6813,2.6699,2.6392,2.5963,2.5386,2.4755,2.4152,2.3474,2.2702,2.2275,2.189,2.1377,2.0999,2.1003,2.144,2.1641,2.1725,2.2028,2.2502,2.2934,2.3346,2.3585,2.3798,2.3852,2.4135,2.4819,2.5053,2.5053,2.5053,2.5041,2.5102,2.5162,2.5282,2.5379,2.5367,2.5367,2.5355,2.5367,2.5391,2.5391,2.5282,2.5306,2.5343,2.5391,2.5403,2.5306,2.4164,2.4164,2.4555,2.4738,2.4783,2.5286,2.5423,2.5332,2.5012,2.4738,2.4635,2.46,2.46,2.4463,2.4245,2.3751,2.3337,2.3061,2.2785,2.259,2.2498,2.2729,2.3051,2.3383,2.3705,2.3797,2.3705,2.3659,2.3649,2.3832,2.4234,2.4829,2.5377,2.589,2.6357,2.6757,2.7066,2.7114,2.7126,2.7102,2.7066,2.7006,2.6994,2.7027,2.7027,2.7027,2.7027,2.7027,2.7027,2.7027,2.7027,2.7027,2.7027,2.7027,2.7027,2.7027,2.7027,2.7027,2.7027,2.7027,2.7027,2.7027,2.7027,2.7027,2.7027,2.7027,2.7027,2.6981,2.6981,2.6891,2.6743,2.6413,2.5935,2.5457,2.4766,2.4227,2.3467,2.2757,2.2423,2.2144,2.175,2.1324,2.159,2.1985,2.2145,2.2207,2.2502,2.2946,2.3433,2.3805,2.4119,2.4468,2.4676,2.5073,2.5336,2.5306,2.5234,2.5258,2.5246,2.5331,2.5391,2.5391,2.5391,2.5391,2.5391,2.5415,2.5403,2.5391,2.5391,2.5439,2.5391,2.5391,2.5391,2.5403,2.5439,2.4118,2.4118,2.4199,2.4245,2.4337,2.4738,2.4738,2.4474,2.4692,2.4417,2.3832,2.3694,2.3649,2.3649,2.3603,2.3245,2.2785,2.2498,2.2268,2.2037,2.2139,2.2406,2.2775,2.3235,2.3659,2.3705,2.3613,2.3659,2.374,2.4188,2.46,2.4864,2.5811,2.6232,2.6393,2.6852,2.7307,2.7331,2.7381,2.7371,2.7201,2.7105,2.7006,2.7027,2.7027,2.7027,2.7027,2.7027,2.7027,2.7027,2.7027,2.7027,2.7027,2.7027,2.7027,2.7027,2.7027,2.7027,2.7027,2.7027,2.7027,2.7027,2.7027,2.7027,2.7027,2.7027,2.6981,2.6981,2.6936,2.6709,2.6515,2.6015,2.5503,2.5001,2.4434,2.4252,2.3788,2.3286,2.2875,2.2588,2.2281,2.2164,2.2306,2.26,2.2768,2.2829,2.2973,2.3424,2.3886,2.4282,2.4667,2.5056,2.5398,2.538,2.5427,2.5379,2.5343,2.5379,2.5427,2.5475,2.5475,2.5403,2.5415,2.5547,2.5499,2.5475,2.5451,2.556,2.5511,2.5547,2.5439,2.5391,2.5427,2.5499,2.5608]},{"header":{"parameterUnit":"m.s-1","parameterCategory":1,"la1":31.0,"la2":29.5877,"lo1":-88.7671,"lo2":-86.6584,"dy":0.0162,"dx":0.0185,"nx":115,"ny":88,"refTime":"2023-09-30T06:00:00:Z","depth":0,"parameterNumber":3,"parameterNumberName":"V-component_of_WINDS"},"data":[0.0,0.0,0.0,0.0,0.0,0.0,0.0,0.0,0.0,0.0,0.0,0.0,0.0,0.0,0.0,0.0,0.0,0.0,0.0,0.0,0.0,0.0,0.0,0.0,0.0,0.0,0.0,0.0,0.0,0.0,0.0,0.0,0.0,0.0,0.0,0.0,0.0,0.0,0.0,0.0,0.0,0.0,0.0,0.0,0.0,0.0,0.0,0.0,0.0,0.0,0.0,0.0,0.0,0.0,0.0,0.0,0.0,0.0,0.0,0.0,0.0,0.0,0.0,0.0,0.0,0.0,0.0,0.0,0.0,0.0,0.0,0.0,0.0,0.0,0.0,0.0,0.0,0.0,0.0,0.0,0.0,0.0,0.0,0.0,0.0,0.0,0.0,0.0,0.0,0.0,0.0,0.0,0.0,0.0,0.0,0.0,0.0,0.0,0.0,0.0,0.0,0.0,0.0,0.0,0.0,0.0,0.0,0.0,0.0,0.0,0.0,0.0,0.0,0.0,0.0,0.0,0.0,0.0,0.0,0.0,0.0,0.0,0.0,0.0,0.0,0.0,0.0,0.0,0.0,0.0,0.0,0.0,0.0,0.0,0.0,0.0,0.0,0.0,0.0,0.0,0.0,0.0,0.0,0.0,0.0,0.0,0.0,0.0,0.0,0.0,0.0,0.0,0.0,0.0,0.0,0.0,0.0,0.0,0.0,0.0,0.0,0.0,0.0,0.0,0.0,0.0,0.0,0.0,0.0,0.0,0.0,0.0,0.0,0.0,0.0,0.0,0.0,0.0,0.0,0.0,0.0,0.0,0.0,0.0,0.0,0.0,0.0,0.0,0.0,0.0,0.0,0.0,0.0,0.0,0.0,0.0,0.0,0.0,0.0,0.0,0.0,0.0,0.0,0.0,0.0,0.0,0.0,0.0,0.0,0.0,0.0,0.0,0.0,0.0,0.0,0.0,0.0,0.0,0.0,0.0,0.0,0.0,0.0,0.0,0.0,0.0,0.0,0.0,0.0,0.0,0.0,0.0,0.0,0.0,0.0,0.0,0.0,0.0,0.0,0.0,0.0,0.0,0.0,0.0,0.0,0.0,0.0,0.0,0.0,0.0,0.0,0.0,0.0,0.0,0.0,0.0,0.0,0.0,0.0,0.0,0.0,0.0,0.0,0.0,0.0,0.0,0.0,0.0,0.0,0.0,0.0,0.0,0.0,0.0,0.0,0.0,0.0,0.0,0.0,0.0,0.0,0.0,0.0,0.0,0.0,0.0,0.0,0.0,0.0,0.0,0.0,0.0,0.0,0.0,0.0,0.0,0.0,0.0,0.0,0.0,0.0,0.0,0.0,0.0,0.0,0.0,0.0,0.0,0.0,0.0,0.0,0.0,0.0,0.0,0.0,0.0,0.0,0.0,0.0,0.0,0.0,0.0,0.0,0.0,0.0,0.0,0.0,0.0,0.0,0.0,0.0,0.0,0.0,0.0,0.0,0.0,0.0,0.0,0.0,0.0,0.0,0.0,0.0,0.0,0.0,0.0,0.0,0.0,0.0,0.0,0.0,0.0,0.0,0.0,0.0,0.0,0.0,0.0,0.0,0.0,0.0,0.0,0.0,0.0,0.0,0.0,0.0,0.0,0.0,0.0,0.0,0.0,0.0,0.0,0.0,0.0,0.0,0.0,0.0,0.0,0.0,0.0,0.0,0.0,0.0,0.0,0.0,0.0,0.0,0.0,0.0,0.0,0.0,0.0,0.0,0.0,0.0,0.0,0.0,0.0,0.0,0.0,0.0,0.0,0.0,0.0,0.0,0.0,0.0,0.0,0.0,0.0,0.0,0.0,0.0,0.0,0.0,0.0,0.0,0.0,0.0,0.0,0.0,0.0,0.0,0.0,0.0,0.0,0.0,0.0,0.0,0.0,0.0,0.0,0.0,0.0,0.0,0.0,0.0,0.0,0.0,0.0,0.0,0.0,0.0,0.0,0.0,0.0,0.0,0.0,0.0,0.0,0.0,0.0,0.0,0.0,0.0,0.0,0.0,0.0,0.0,0.0,0.0,0.0,0.0,0.0,0.0,0.0,0.0,0.0,0.0,0.0,0.0,0.0,0.0,0.0,0.0,0.0,0.0,0.0,0.0,0.0,0.0,0.0,0.0,0.0,0.0,0.0,0.0,0.0,0.0,0.0,0.0,0.0,0.0,0.0,0.0,0.0,0.0,0.0,0.0,0.0,0.0,0.0,0.0,0.0,0.0,0.0,0.0,0.0,0.0,0.0,0.0,0.0,0.0,0.0,0.0,0.0,0.0,0.0,0.0,0.0,0.0,0.0,0.0,0.0,0.0,0.0,0.0,0.0,0.0,0.0,0.0,0.0,0.0,0.0,0.0,0.0,0.0,0.0,0.0,0.0,0.0,0.0,0.0,0.0,0.0,0.0,0.0,0.0,0.0,0.0,0.0,0.0,0.0,0.0,0.0,0.0,0.0,0.0,0.0,0.0,0.0,0.0,0.0,0.0,0.0,0.0,0.0,0.0,0.0,0.0,0.0,0.0,0.0,0.0,0.0,0.0,0.0,0.0,0.0,0.0,0.0,0.0,0.0,0.0,0.0,0.0,0.0,0.0,0.0,0.0,0.0,0.0,0.0,0.0,0.0,0.0,0.0,0.0,0.0,0.0,0.0,0.0,0.0,0.0,0.0,0.0,0.0,0.0,0.0,0.0,0.0,0.0,0.0,0.0,0.0,0.0,0.0,0.0,0.0,0.0,0.0,0.0,0.0,0.0,0.0,0.0,0.0,0.0,0.0,0.0,0.0,0.0,0.0,0.0,0.0,0.0,0.0,0.0,0.0,0.0,0.0,0.0,0.0,0.0,0.0,0.0,0.0,0.0,0.0,0.0,0.0,0.0,0.0,0.0,0.0,0.0,0.0,0.0,0.0,0.0,0.0,0.0,0.0,0.0,0.0,0.0,0.0,0.0,0.0,0.0,0.0,0.0,0.0,0.0,0.0,0.0,0.0,0.0,0.0,0.0,0.0,0.0,0.0,0.0,0.0,0.0,0.0,0.0,0.0,0.0,0.0,0.0,0.0,0.0,0.0,0.0,0.0,0.0,0.0,0.0,0.0,0.0,0.0,0.0,0.0,0.0,0.0,0.0,0.0,0.0,0.0,0.0,0.0,0.0,0.0,0.0,0.0,0.0,0.0,0.0,0.0,0.0,0.0,0.0,0.0,0.0,0.0,0.0,0.0,0.0,0.0,0.0,0.0,0.0,0.0,0.0,0.0,0.0,0.0,0.0,0.0,0.0,0.0,0.0,0.0,0.0,0.0,0.0,0.0,0.0,0.0,0.0,0.0,0.0,0.0,0.0,0.0,0.0,0.0,0.0,0.0,0.0,0.0,0.0,0.0,0.0,0.0,0.0,0.0,0.0,0.0,0.0,0.0,0.0,0.0,0.0,0.0,0.0,0.0,0.0,0.0,0.0,0.0,0.0,0.0,0.0,0.0,0.0,0.0,0.0,0.0,0.0,0.0,0.0,0.0,0.0,0.0,0.0,0.0,0.0,0.0,0.0,0.0,0.0,0.0,0.0,0.0,0.0,0.0,0.0,0.0,0.0,0.0,0.0,0.0,0.0,0.0,0.0,0.0,0.0,0.0,0.0,0.0,0.0,0.0,0.0,0.0,0.0,0.0,0.0,0.0,0.0,0.0,0.0,0.0,0.0,0.0,0.0,0.0,0.0,0.0,0.0,0.0,0.0,0.0,0.0,0.0,0.0,0.0,0.0,0.0,0.0,0.0,0.0,0.0,0.0,0.0,0.0,0.0,0.0,0.0,0.0,0.0,0.0,0.0,0.0,0.0,0.0,0.0,0.0,0.0,0.0,0.0,0.0,0.0,0.0,0.0,0.0,0.0,0.0,0.0,0.0,0.0,0.0,0.0,0.0,0.0,0.0,0.0,0.0,0.0,0.0,0.0,0.0,0.0,0.0,0.0,0.0,0.0,0.0,0.0,0.0,0.0,0.0,0.0,0.0,0.0,0.0,0.0,0.0,0.0,0.0,0.0,0.0,0.0,0.0,0.0,0.0,0.0,0.0,0.0,0.0,0.0,0.0,0.0,0.0,0.0,0.0,0.0,0.0,0.0,0.0,0.0,0.0,0.0,0.0,0.0,0.0,0.0,0.0,0.0,0.0,0.0,0.0,0.0,0.0,0.0,0.0,0.0,0.0,0.0,0.0,0.0,0.0,0.0,0.0,0.0,0.0,0.0,0.0,0.0,0.0,0.0,0.0,0.9848,0.0,0.0,0.0,0.0,0.0,0.0,0.0,0.0,0.0,0.0,0.0,0.0,0.0,0.0,0.0,0.0,0.0,0.0,0.0,0.0,0.0,0.0,0.0,0.0,0.0,0.0,0.0,0.0,0.0,0.0,0.0,0.0,0.0,0.0,0.0,0.0,0.0,0.0,0.0,0.0,0.0,0.0,0.0,0.0,0.0,0.0,0.0,0.0,0.0,0.0,0.0,0.0,0.0,0.0,0.0,0.0,0.0,0.0,0.0,0.0,0.0,0.0,0.0,0.0,0.0,0.0,0.0,0.0,0.0,0.0,0.0,0.0,0.0,0.0,0.0,0.0,0.0,0.0,0.0,0.0,0.0,0.0,0.0,0.0,0.0,0.0,0.0,0.0,0.0,0.0,0.0,0.0,0.0,0.0,0.0,0.0,0.0,0.0,0.0,0.0,0.0,0.0,0.0,0.0,0.0,0.0,0.0,0.0,0.0,0.0,0.8822,0.9051,0.9286,0.9581,0.9957,0.0,0.0,0.0,0.0,0.0,0.0,0.0,0.0,0.0,0.0,0.0,0.0,0.0,0.0,0.0,0.0,0.0,0.0,0.0,0.0,0.0,0.0,0.0,0.0,0.0,0.0,0.0,0.0,0.0,0.0,0.0,0.0,0.0,0.0,0.0,0.0,0.0,0.0,0.0,0.0,0.0,0.0,0.0,0.0,0.0,0.0,0.0,0.0,0.0,0.0,0.0,0.0,0.0,0.0,0.0,0.0,0.0,0.0,0.0,0.0,0.0,0.0,0.0,0.0,0.0,0.0,0.0,0.0,0.0,0.0,0.0,0.0,0.0,0.0,0.0,0.0,0.0,0.0,0.0,0.0,0.0,0.0,0.0,0.0,0.0,0.0,0.0,0.0,0.0,0.0,0.0,0.0,0.0,0.0,0.0,0.0,0.0,0.0,0.0,0.0,0.0,0.0,0.0,0.0,0.0,0.0,0.0,0.0,0.0,0.0,0.0,0.0,0.9389,0.9744,1.0186,0.0,0.0,0.0,0.0,0.0,0.0,0.0,0.0,0.0,0.0,0.0,0.0,0.0,0.0,0.0,0.0,0.0,0.0,0.0,0.0,0.0,0.0,0.0,0.0,0.0,0.0,0.0,0.0,0.0,0.0,0.0,0.0,0.0,0.0,0.0,0.0,0.0,0.0,0.0,0.0,0.0,0.0,0.0,0.0,0.0,0.0,0.0,0.0,0.0,0.0,0.0,0.0,0.0,0.0,0.0,0.0,0.0,0.0,0.0,0.0,0.0,0.0,0.0,0.0,0.0,0.0,0.0,0.0,0.0,0.0,0.0,0.0,0.0,0.0,0.0,0.0,0.0,0.0,0.0,0.0,0.0,0.0,0.0,0.0,0.0,0.0,0.0,0.0,0.0,0.0,0.0,0.0,0.0,0.0,0.0,0.0,0.0,0.0,0.0,0.0,0.0,0.0,0.0,0.0,0.0,0.0,0.0,0.0,0.0,0.0,0.9124,0.9293,0.9546,0.0,1.0691,0.0,0.0,0.0,0.0,0.0,0.0,0.0,0.0,0.0,0.0,0.0,0.0,0.0,0.0,0.0,0.0,0.0,0.0,0.0,0.0,0.0,0.0,0.0,0.0,0.0,0.0,0.0,0.0,0.0,0.0,0.0,0.0,0.0,0.0,0.0,0.0,0.0,0.0,0.0,0.0,0.0,0.0,0.0,0.0,0.0,0.0,0.0,0.0,0.0,0.0,0.0,0.0,0.0,0.0,0.0,0.0,0.0,0.0,0.0,0.0,0.0,0.0,0.0,0.0,0.0,0.0,0.0,0.0,0.0,0.0,0.0,0.0,0.0,0.0,0.0,0.0,0.0,0.0,0.0,0.0,0.0,0.0,0.0,0.0,0.0,0.0,0.0,0.0,0.0,0.0,0.0,0.0,0.0,0.0,0.0,0.0,0.0,0.0,0.0,0.0,0.0,0.0,0.0,0.0,0.0,0.0,0.0,0.0,0.0,0.0,0.9178,0.9343,0.9821,1.0329,0.0,0.0,0.0,0.0,0.0,0.0,0.0,0.0,0.0,0.0,0.0,0.0,0.0,0.0,0.0,0.0,0.0,0.0,0.0,0.0,0.0,0.0,0.0,0.0,0.0,0.0,0.0,0.0,0.0,0.0,0.0,0.0,0.0,0.0,0.0,0.0,0.0,0.0,0.0,0.0,0.0,0.0,0.0,0.0,0.0,0.0,0.0,0.0,0.0,0.0,0.0,0.0,0.0,0.0,0.0,0.0,0.0,0.0,0.0,0.0,0.0,0.0,0.0,0.0,0.0,0.0,0.0,0.0,0.0,0.0,0.0,0.0,0.0,0.0,0.0,0.0,0.0,0.0,0.0,0.0,0.0,0.0,0.0,0.0,0.0,0.0,0.0,0.0,0.0,0.0,0.0,0.0,0.0,0.0,0.0,0.0,0.0,0.0,0.0,0.0,0.0,0.0,0.0,0.0,0.0,0.0,0.0,0.0,0.0,0.0,0.9318,0.9623,1.006,1.0598,1.1131,1.1599,0.0,0.0,0.0,0.0,0.0,0.0,0.0,0.0,0.0,0.0,0.0,0.0,0.0,0.0,0.0,0.0,0.0,0.0,0.0,0.0,0.0,0.0,0.0,0.0,0.0,0.0,0.0,0.0,0.0,0.0,0.0,0.0,0.0,0.0,0.0,0.0,0.0,0.0,0.0,0.0,0.0,0.0,0.0,0.0,0.0,0.0,0.0,0.0,0.0,0.0,0.0,0.0,0.0,0.0,0.0,0.0,0.0,0.0,0.0,0.0,0.0,0.0,0.0,0.0,0.0,0.0,0.0,0.0,0.0,0.0,0.0,0.0,0.0,0.0,0.0,0.0,0.0,0.0,0.0,0.0,0.0,0.0,0.0,0.0,0.0,0.0,0.0,0.0,0.0,0.0,0.0,0.0,0.0,0.0,0.0,0.0,0.0,0.0,0.0,0.0,0.0,0.0,0.0,0.0,0.0,0.0,0.0,0.0,0.9825,1.0051,1.0643,1.162,1.2141,1.2561,0.0,0.0,0.0,0.0,0.0,0.0,0.0,0.0,0.0,0.0,0.0,0.0,0.0,0.0,0.0,0.0,0.0,0.0,0.0,0.0,0.0,0.0,0.0,0.0,0.0,0.0,0.0,0.0,0.0,0.0,0.0,0.0,0.0,0.0,0.0,0.0,0.0,0.0,0.0,0.0,0.0,0.0,0.0,0.0,0.0,0.0,0.0,0.0,0.0,0.0,0.0,0.0,0.0,0.0,0.0,0.0,0.0,0.0,0.0,0.0,0.0,0.0,0.0,0.0,0.0,0.0,0.0,0.0,0.0,0.0,0.0,0.0,0.0,0.0,0.0,0.0,0.0,0.0,0.0,0.0,0.0,0.0,0.0,0.0,0.0,0.0,0.0,0.0,0.0,0.0,0.0,0.0,0.0,0.0,0.0,0.0,0.0,0.0,0.0,0.0,0.0,0.0,0.0,0.0,0.0,0.0,0.0,0.0,0.0,1.0508,1.0901,1.1415,1.2026,1.2482,1.2864,0.0,0.0,0.0,0.0,0.0,0.0,0.0,0.0,0.0,0.0,0.0,0.0,0.0,0.0,0.0,0.0,0.0,0.0,0.0,0.0,0.0,0.0,0.0,0.0,0.0,0.0,0.0,0.0,0.0,0.0,0.0,0.0,0.0,0.0,0.0,0.0,0.0,0.0,0.0,0.0,0.0,0.0,0.0,0.0,0.0,0.0,0.0,0.0,0.0,0.0,0.0,0.0,0.0,0.0,0.0,0.0,0.0,0.0,0.0,0.0,0.0,0.0,0.0,0.0,0.0,0.0,0.0,0.0,0.0,0.0,0.0,0.0,0.0,0.0,0.0,0.0,0.0,0.0,0.0,0.0,0.0,0.0,0.0,0.0,0.0,0.0,0.0,0.0,0.0,0.0,0.0,0.0,0.0,0.0,0.0,0.0,0.0,0.0,0.0,0.0,0.0,0.0,0.0,0.0,0.0,0.0,0.0,0.0,0.0,1.1656,0.0,1.3057,1.3428,1.3643,1.397,0.0,0.0,0.0,0.0,0.0,0.0,0.0,0.0,0.0,0.0,0.0,0.0,0.0,0.0,0.0,0.0,0.0,0.0,0.0,0.0,0.0,0.0,0.0,0.0,0.0,0.0,0.0,0.0,0.0,0.0,0.0,0.0,0.0,0.0,0.0,0.0,0.0,0.0,0.0,0.0,0.0,0.0,0.0,0.0,0.0,0.0,0.0,0.0,0.0,0.0,0.0,0.0,0.0,0.0,0.0,0.0,0.0,0.0,0.0,0.0,0.0,0.0,0.0,0.0,0.0,0.0,0.0,0.0,0.0,0.0,0.0,0.0,0.0,0.0,0.0,0.0,0.0,0.0,0.0,0.0,0.0,0.0,0.0,0.0,0.0,0.0,0.0,0.0,0.0,0.0,0.0,0.0,0.0,0.0,0.0,0.0,0.0,0.0,0.0,0.0,0.0,0.0,0.0,0.0,0.0,0.0,0.0,0.0,1.1874,1.3327,1.4739,1.562,1.6073,1.5893,1.5974,0.0,0.0,0.0,0.0,0.0,0.0,0.0,0.0,0.0,0.0,0.0,0.0,0.0,0.0,0.0,0.0,0.0,0.0,0.0,0.0,0.0,0.0,0.0,0.0,0.0,0.0,0.0,0.0,0.0,0.0,0.0,0.0,0.0,0.0,0.0,0.0,0.0,0.0,0.0,0.0,0.0,0.0,0.0,0.0,0.0,0.0,0.0,0.0,0.0,0.0,0.0,0.0,0.0,0.0,0.0,0.0,0.0,0.0,0.0,0.0,0.0,0.0,0.0,0.0,0.0,0.0,0.0,0.0,0.0,0.0,0.0,0.0,0.0,0.0,0.0,0.0,0.0,0.0,0.0,0.0,0.0,0.0,0.0,0.0,0.0,0.0,0.0,0.0,0.0,0.0,0.0,0.0,0.0,0.0,0.0,0.0,0.0,0.0,0.0,0.0,0.0,0.0,0.0,0.0,0.0,0.0,0.0,0.0,0.0,1.5732,1.6443,1.696,1.7324,1.7583,1.7438,0.0,0.0,0.0,0.0,0.0,0.0,0.0,0.0,0.0,0.0,0.0,0.0,0.0,0.0,0.0,0.0,0.0,0.0,0.0,0.0,0.0,0.0,0.0,0.0,0.0,0.0,0.0,0.0,0.0,0.0,0.0,0.0,0.0,0.0,0.0,0.0,0.0,0.0,0.0,0.0,0.0,0.0,0.0,0.0,0.0,0.0,0.0,0.0,0.0,0.0,0.0,0.0,0.0,0.0,0.0,0.0,0.0,0.0,0.0,0.0,0.0,0.0,0.0,0.0,0.0,0.0,0.0,0.0,0.0,0.0,0.0,0.0,0.0,0.0,0.0,0.0,0.0,0.0,0.0,0.0,0.0,0.0,0.0,0.0,0.0,0.0,0.0,0.0,0.0,0.0,0.0,0.0,0.0,0.0,0.0,0.0,0.0,0.0,0.0,0.0,0.0,0.0,0.0,0.0,0.0,0.0,0.0,0.0,0.0,1.9177,1.9103,1.9236,1.9555,1.9513,1.9226,1.8666,0.0,0.0,0.0,0.0,0.0,0.0,0.0,0.0,0.0,0.0,0.0,0.0,0.0,0.0,0.0,0.0,0.0,0.0,0.0,0.0,0.0,0.0,0.0,0.0,0.0,0.0,0.0,0.0,0.0,0.0,0.0,0.0,0.0,0.0,0.0,0.0,0.0,0.0,0.0,0.0,0.0,0.0,0.0,0.0,0.0,0.0,0.0,0.0,0.0,0.0,0.0,0.0,0.0,0.0,0.0,0.0,0.0,0.0,0.0,0.0,0.0,0.0,0.0,0.0,0.0,0.0,0.0,0.0,0.0,0.0,0.0,0.0,0.0,0.0,0.0,0.0,0.0,0.0,0.0,0.0,0.0,0.0,0.0,0.0,0.0,0.0,0.0,0.0,0.0,0.0,0.0,0.0,0.0,0.0,0.0,0.0,0.0,0.0,0.0,0.0,0.0,0.0,0.0,0.0,0.0,0.0,0.0,0.0,2.3316,2.2593,2.2307,2.2536,2.1678,2.1295,0.0,0.0,0.0,0.0,0.0,0.0,0.0,0.0,0.0,0.0,0.0,0.0,0.0,0.0,0.0,0.0,0.0,0.0,0.0,0.0,0.0,0.0,0.0,0.0,0.0,0.0,0.0,0.0,0.0,0.0,0.0,0.0,0.0,0.0,0.0,0.0,0.0,0.0,0.0,0.0,0.0,0.0,0.0,0.0,0.0,0.0,0.0,0.0,0.0,0.0,0.0,0.0,0.0,0.0,0.0,0.0,0.0,0.0,0.0,0.0,0.0,0.0,0.0,0.0,0.0,0.0,0.0,0.0,0.0,0.0,0.0,0.0,0.0,0.0,0.0,0.0,0.0,0.0,0.0,0.0,0.0,0.0,0.0,0.0,0.0,0.0,0.0,0.0,0.0,0.0,0.0,0.0,0.0,0.0,0.0,0.0,0.0,0.0,0.0,0.0,0.0,0.0,0.0,0.0,0.0,0.0,0.0,0.0,0.0,2.5062,2.5713,2.5565,2.4651,2.415,2.3224,0.0,0.0,0.0,0.0,0.0,0.0,0.0,0.0,0.0,0.0,0.0,0.0,0.0,0.0,0.0,0.0,0.0,0.0,0.0,0.0,0.0,0.0,0.0,0.0,0.0,0.0,0.0,0.0,0.0,0.0,0.0,0.0,0.0,0.0,0.0,0.0,0.0,0.0,0.0,0.0,0.0,0.0,0.0,0.0,0.0,0.0,0.0,0.0,0.0,0.0,0.0,0.0,0.0,0.0,0.0,0.0,0.0,0.0,0.0,0.0,0.0,0.0,0.0,0.0,0.0,0.0,0.0,0.0,0.0,0.0,0.0,0.0,0.0,0.0,0.0,0.0,0.0,0.0,0.0,0.0,0.0,0.0,0.0,0.0,0.0,0.0,0.0,0.0,0.0,0.0,0.0,0.0,0.0,0.0,0.0,0.0,0.0,0.0,0.0,0.0,0.0,0.0,0.0,0.0,0.0,0.0,0.0,0.0,2.5743,2.7498,2.8532,2.8748,2.8111,2.6767,2.5429,0.0,0.0,0.0,0.0,0.0,0.0,0.0,0.0,0.0,0.0,0.0,0.0,0.0,0.0,0.0,0.0,0.0,0.0,0.0,0.0,0.0,0.0,0.0,0.0,0.0,0.0,0.0,0.0,0.0,0.0,0.0,0.0,0.0,0.0,0.0,0.0,0.0,0.0,0.0,0.0,0.0,0.0,0.0,0.0,0.0,0.0,0.0,0.0,0.0,0.0,0.0,0.0,0.0,0.0,0.0,0.0,0.0,0.0,0.0,0.0,0.0,0.0,0.0,0.0,0.0,0.0,0.0,0.0,0.0,0.0,0.0,0.0,0.0,0.0,0.0,0.0,0.0,0.0,0.0,0.0,0.0,0.0,0.0,0.0,0.0,0.0,0.0,0.0,0.0,0.0,0.0,0.0,0.0,0.0,0.0,0.0,0.0,0.0,0.0,0.0,0.0,0.0,0.0,0.0,0.0,0.0,0.0,0.0,2.7377,2.997,3.0863,3.1429,3.1781,2.9361,2.7656,0.0,0.0,0.0,0.0,0.0,0.0,0.0,0.0,0.0,0.0,0.0,0.0,0.0,0.0,0.0,0.0,0.0,0.0,0.0,0.0,0.0,0.0,0.0,0.0,0.0,0.0,0.0,0.0,0.0,0.0,0.0,0.0,0.0,0.0,0.0,0.0,0.0,0.0,0.0,0.0,0.0,0.0,0.0,0.0,0.0,0.0,0.0,0.0,0.0,0.0,0.0,0.0,0.0,0.0,0.0,0.0,0.0,0.0,0.0,0.0,0.0,0.0,0.0,0.0,0.0,0.0,0.0,0.0,0.0,0.0,0.0,0.0,0.0,0.0,0.0,0.0,0.0,0.0,0.0,0.0,0.0,0.0,0.0,0.0,0.0,0.0,0.0,0.0,0.0,0.0,0.0,0.0,0.0,0.0,0.0,0.0,0.0,0.0,0.0,0.0,0.0,0.0,0.0,0.0,0.0,0.0,0.0,0.0,2.896,3.1017,3.1462,3.1857,3.2252,3.1132,2.9661,0.0,0.0,0.0,0.0,0.0,0.0,0.0,0.0,0.0,0.0,0.0,0.0,0.0,0.0,0.0,0.0,0.0,0.0,0.0,0.0,0.0,0.0,0.0,0.0,0.0,0.0,0.0,0.0,0.0,0.0,0.0,0.0,0.0,0.0,0.0,0.0,0.0,0.0,0.0,0.0,0.0,0.0,0.0,0.0,0.0,0.0,0.0,0.0,2.0926,0.0,0.0,0.0,0.0,0.0,0.0,0.0,0.0,0.0,0.0,0.0,0.0,0.0,0.0,0.0,0.0,0.0,0.0,0.0,0.0,0.0,0.0,0.0,0.0,0.0,0.0,0.0,0.0,0.0,0.0,0.0,0.0,0.0,0.0,0.0,0.0,0.0,0.0,0.0,0.0,0.0,0.0,0.0,0.0,0.0,0.0,0.0,0.0,0.0,0.0,0.0,0.0,0.0,0.0,0.0,0.0,0.0,0.0,0.0,3.0473,3.2675,3.2979,3.3196,3.3433,3.2823,3.1265,0.0,0.0,0.0,0.0,0.0,0.0,0.0,0.0,0.0,0.0,0.0,0.0,0.0,0.0,0.0,0.0,0.0,0.0,0.0,0.0,0.0,0.0,0.0,0.0,0.0,0.0,0.0,0.0,0.0,0.0,0.0,0.0,0.0,0.0,0.0,0.0,0.0,0.0,0.0,0.0,0.0,0.0,0.0,0.0,0.0,0.0,0.0,0.0,0.0,0.0,0.0,0.0,0.0,0.0,0.0,0.0,0.0,0.0,0.0,0.0,0.0,0.0,0.0,0.0,0.0,0.0,0.0,0.0,0.0,0.0,0.0,0.0,0.0,0.0,0.0,0.0,0.0,0.0,0.0,0.0,0.0,0.0,0.0,0.0,0.0,0.0,0.0,0.0,0.0,0.0,0.0,0.0,0.0,0.0,0.0,0.0,0.0,0.0,0.0,0.0,0.0,0.0,0.0,0.0,0.0,0.0,0.0,2.9943,3.1959,3.4252,3.4485,3.4631,3.4775,3.4175,3.2564,2.9857,0.0,0.0,0.0,0.0,0.0,0.0,0.0,0.0,0.0,0.0,0.0,0.0,0.0,0.0,0.0,0.0,0.0,0.0,0.0,0.0,0.0,0.0,0.0,0.0,0.0,0.0,0.0,0.0,0.0,0.0,0.0,0.0,0.0,0.0,0.0,0.0,0.0,0.0,2.007,2.2401,0.0,0.0,0.0,0.0,0.0,0.0,0.0,0.0,2.5743,0.0,0.0,0.0,0.0,0.0,0.0,0.0,0.0,0.0,0.0,0.0,0.0,0.0,0.0,0.0,0.0,0.0,0.0,0.0,0.0,0.0,0.0,0.0,0.0,0.0,0.0,0.0,0.0,0.0,0.0,0.0,0.0,0.0,0.0,0.0,0.0,0.0,0.0,0.0,0.0,0.0,0.0,0.0,0.0,0.0,0.0,0.0,0.0,0.0,0.0,0.0,0.0,0.0,0.0,0.0,0.0,2.9019,3.1417,3.3319,3.4586,3.4751,3.4963,3.5153,3.4395,3.3151,3.1399,0.0,0.0,0.0,0.0,0.0,0.0,0.0,0.0,0.0,0.0,0.0,0.0,0.0,0.0,0.0,0.0,0.0,0.0,0.0,0.0,0.0,0.0,0.0,0.0,0.0,0.0,0.0,0.0,0.0,0.0,0.0,0.0,0.0,0.0,0.0,0.0,0.0,0.0,0.0,2.5674,2.7036,0.0,0.0,0.0,0.0,0.0,0.0,0.0,0.0,2.7115,0.0,0.0,0.0,0.0,0.0,0.0,0.0,0.0,0.0,0.0,0.0,0.0,0.0,0.0,0.0,0.0,0.0,0.0,0.0,0.0,0.0,0.0,0.0,0.0,0.0,0.0,0.0,0.0,0.0,0.0,0.0,0.0,0.0,0.0,0.0,0.0,0.0,0.0,0.0,0.0,0.0,0.0,0.0,0.0,0.0,0.0,0.0,0.0,0.0,0.0,0.0,0.0,0.0,0.0,0.0,3.0219,3.236,3.4107,3.5404,3.5224,3.5342,3.5805,3.4652,3.3484,0.0,0.0,0.0,0.0,0.0,0.0,0.0,0.0,0.0,0.0,0.0,0.0,0.0,0.0,0.0,0.0,0.0,0.0,0.0,0.0,0.0,0.0,0.0,0.0,0.0,0.0,0.0,0.0,0.0,0.0,0.0,0.0,0.0,0.0,0.0,0.0,0.0,0.0,0.0,0.0,2.7834,2.9118,2.9502,0.0,0.0,0.0,0.0,0.0,0.0,2.9789,2.9461,0.0,0.0,0.0,0.0,0.0,0.0,0.0,0.0,0.0,0.0,0.0,0.0,0.0,0.0,0.0,0.0,0.0,0.0,0.0,0.0,0.0,0.0,0.0,0.0,0.0,0.0,0.0,0.0,0.0,0.0,0.0,0.0,0.0,0.0,0.0,0.0,0.0,0.0,0.0,0.0,0.0,0.0,0.0,0.0,0.0,0.0,0.0,0.0,0.0,0.0,0.0,0.0,0.0,0.0,0.0,3.1449,3.3333,3.4913,3.6179,3.5793,3.5852,3.6436,3.5044,3.3762,0.0,0.0,0.0,0.0,0.0,0.0,0.0,0.0,0.0,0.0,0.0,0.0,0.0,0.0,0.0,0.0,0.0,0.0,0.0,0.0,0.0,0.0,0.0,0.0,0.0,0.0,0.0,0.0,0.0,0.0,0.0,0.0,0.0,0.0,0.0,0.0,0.0,0.0,0.0,0.0,0.0,3.1213,3.234,3.268,0.0,0.0,0.0,0.0,3.3195,3.2446,0.0,0.0,0.0,0.0,0.0,0.0,0.0,0.0,0.0,0.0,0.0,0.0,0.0,0.0,0.0,0.0,0.0,0.0,0.0,0.0,0.0,0.0,0.0,0.0,0.0,0.0,0.0,0.0,0.0,0.0,0.0,0.0,0.0,0.0,0.0,0.0,0.0,0.0,0.0,0.0,0.0,0.0,0.0,0.0,0.0,0.0,0.0,0.0,0.0,0.0,0.0,0.0,0.0,0.0,0.0,0.0,3.2419,3.4733,3.6136,3.6528,3.6473,3.6543,3.6749,3.5709,3.4186,0.0,0.0,0.0,0.0,0.0,0.0,0.0,0.0,0.0,0.0,0.0,0.0,0.0,0.0,0.0,0.0,0.0,0.0,0.0,0.0,0.0,0.0,0.0,0.0,0.0,0.0,0.0,0.0,0.0,0.0,0.0,0.0,0.0,0.0,0.0,0.0,0.0,0.0,0.0,0.0,0.0,3.3974,3.4247,3.5012,3.5274,0.0,0.0,3.5135,3.5246,3.4433,0.0,0.0,0.0,0.0,0.0,0.0,0.0,0.0,0.0,0.0,0.0,0.0,0.0,0.0,0.0,0.0,0.0,0.0,0.0,0.0,0.0,0.0,0.0,0.0,0.0,0.0,0.0,0.0,0.0,0.0,0.0,0.0,0.0,0.0,0.0,0.0,0.0,0.0,0.0,0.0,0.0,0.0,0.0,0.0,0.0,0.0,0.0,0.0,0.0,0.0,0.0,0.0,0.0,0.0,0.0,3.1406,3.3866,3.5495,3.68,3.7776,3.7511,3.7368,3.7415,3.6034,3.4242,0.0,0.0,0.0,0.0,0.0,0.0,0.0,0.0,0.0,0.0,0.0,0.0,0.0,0.0,0.0,0.0,0.0,0.0,0.0,0.0,0.0,0.0,0.0,0.0,0.0,0.0,0.0,0.0,0.0,0.0,0.0,0.0,0.0,0.0,0.0,0.0,0.0,0.0,0.0,0.0,0.0,0.0,3.5972,3.6846,0.0,0.0,0.0,3.7321,3.7752,0.0,0.0,0.0,0.0,0.0,0.0,0.0,0.0,0.0,0.0,0.0,0.0,0.0,0.0,0.0,0.0,0.0,0.0,0.0,0.0,0.0,0.0,0.0,0.0,0.0,0.0,0.0,0.0,0.0,0.0,0.0,0.0,0.0,0.0,0.0,0.0,0.0,0.0,0.0,0.0,0.0,0.0,0.0,0.0,0.0,0.0,0.0,0.0,0.0,0.0,0.0,0.0,0.0,0.0,0.0,0.0,0.0,3.5212,3.6226,3.74,3.8768,3.8415,3.8091,3.7877,3.6237,0.0,0.0,0.0,0.0,0.0,0.0,0.0,0.0,0.0,0.0,0.0,0.0,0.0,0.0,0.0,0.0,0.0,0.0,0.0,0.0,0.0,0.0,0.0,0.0,0.0,0.0,0.0,1.6955,0.0,0.0,0.0,0.0,0.0,0.0,0.0,0.0,0.0,0.0,0.0,0.0,0.0,0.0,3.6356,3.8156,3.8913,3.9358,0.0,0.0,3.9445,3.982,3.8604,3.7454,0.0,0.0,0.0,0.0,0.0,0.0,0.0,0.0,0.0,0.0,0.0,0.0,0.0,0.0,0.0,0.0,0.0,0.0,0.0,0.0,0.0,0.0,0.0,0.0,0.0,0.0,0.0,0.0,0.0,0.0,0.0,0.0,0.0,0.0,0.0,0.0,0.0,0.0,0.0,0.0,0.0,0.0,0.0,0.0,0.0,0.0,0.0,0.0,0.0,0.0,0.0,0.0,0.0,0.0,0.0,3.6183,3.7165,3.8048,3.8959,3.8937,3.8599,3.791,3.6341,3.4398,0.0,0.0,0.0,0.0,0.0,0.0,0.0,0.0,0.0,0.0,0.0,0.0,0.0,0.0,0.0,0.0,0.0,0.0,0.0,0.0,0.0,0.0,0.0,0.0,0.0,0.0,0.0,0.0,0.0,0.0,0.0,0.0,0.0,0.0,0.0,0.0,0.0,0.0,0.0,0.0,0.0,3.9554,4.12,4.1647,4.1843,0.0,0.0,4.1654,4.0981,4.0124,3.9049,3.7677,0.0,0.0,0.0,0.0,0.0,0.0,0.0,0.0,0.0,0.0,0.0,0.0,0.0,0.0,0.0,0.0,0.0,0.0,0.0,0.0,0.0,0.0,0.0,0.0,0.0,0.0,0.0,0.0,0.0,0.0,0.0,0.0,0.0,0.0,0.0,0.0,0.0,0.0,0.0,0.0,0.0,0.0,0.0,0.0,0.0,0.0,0.0,0.0,0.0,0.0,0.0,0.0,0.0,3.4235,3.7044,3.7962,3.8814,3.966,3.9694,3.9119,3.7944,3.6791,3.4903,0.0,0.0,0.0,0.0,0.0,0.0,0.0,0.0,0.0,0.0,0.0,0.0,0.0,0.0,0.0,0.0,0.0,0.0,0.0,0.0,0.0,0.0,0.0,0.0,0.0,0.0,0.0,0.0,2.1059,2.2137,2.2952,0.0,0.0,0.0,0.0,0.0,0.0,0.0,0.0,0.0,0.0,3.9934,4.17,4.2421,0.0,0.0,4.2902,4.2773,4.2415,4.1305,4.0143,3.9046,3.7089,0.0,0.0,0.0,0.0,0.0,0.0,0.0,0.0,0.0,0.0,0.0,0.0,0.0,0.0,0.0,0.0,0.0,0.0,0.0,0.0,0.0,0.0,0.0,0.0,0.0,0.0,0.0,0.0,0.0,0.0,0.0,0.0,0.0,0.0,0.0,0.0,0.0,0.0,0.0,0.0,0.0,0.0,0.0,0.0,0.0,0.0,0.0,0.0,0.0,0.0,0.0,0.0,3.5307,3.7541,3.8415,3.9269,4.0066,4.0113,3.9491,3.8261,3.7209,3.5577,0.0,0.0,0.0,0.0,0.0,0.0,0.0,0.0,0.0,0.0,0.0,0.0,0.0,0.0,0.0,0.0,0.0,0.0,0.0,0.0,0.0,0.0,0.0,0.0,0.0,0.0,0.0,0.0,2.2686,2.4034,2.5093,0.0,0.0,0.0,0.0,0.0,0.0,0.0,0.0,0.0,0.0,4.0809,4.257,4.3293,4.37,4.3816,4.3802,4.3632,4.3333,4.222,4.1047,4.0014,0.0,0.0,0.0,0.0,0.0,0.0,0.0,0.0,0.0,0.0,0.0,0.0,0.0,0.0,0.0,0.0,0.0,0.0,0.0,0.0,0.0,0.0,0.0,0.0,0.0,0.0,0.0,0.0,0.0,0.0,0.0,0.0,0.0,0.0,0.0,0.0,0.0,0.0,0.0,0.0,0.0,0.0,0.0,0.0,0.0,0.0,0.0,0.0,0.0,0.0,0.0,0.0,0.0,3.5937,3.7696,3.8584,3.9356,4.0079,4.0113,3.974,3.8949,3.7562,3.6366,3.5386,0.0,0.0,0.0,0.0,0.0,0.0,0.0,0.0,0.0,0.0,0.0,0.0,0.0,0.0,0.0,0.0,0.0,0.0,0.0,0.0,0.0,0.0,0.0,0.0,0.0,0.0,2.3106,2.4554,2.613,0.0,0.0,0.0,0.0,0.0,0.0,0.0,0.0,0.0,0.0,4.146,4.278,4.4215,4.4625,4.4721,4.4755,4.4645,4.4296,4.3558,4.2794,4.1792,0.0,0.0,0.0,0.0,0.0,0.0,0.0,0.0,0.0,0.0,0.0,0.0,0.0,0.0,0.0,0.0,0.0,0.0,0.0,0.0,0.0,0.0,0.0,0.0,0.0,0.0,0.0,2.4941,2.4962,0.0,0.0,0.0,0.0,0.0,0.0,0.0,0.0,0.0,0.0,0.0,3.2783,3.2994,0.0,0.0,0.0,0.0,0.0,0.0,0.0,0.0,0.0,0.0,0.0,0.0,3.6983,3.855,3.9503,4.0102,4.0341,4.0275,3.9886,3.9161,3.8072,3.6623,3.469,0.0,0.0,0.0,0.0,0.0,0.0,0.0,0.0,0.0,0.0,0.0,0.0,0.0,0.0,0.0,0.0,0.0,0.0,0.0,0.0,0.0,0.0,0.0,0.0,0.0,2.5538,0.0,0.0,0.0,0.0,0.0,0.0,0.0,0.0,0.0,0.0,0.0,3.8572,4.0791,4.2306,4.362,4.4674,4.4865,4.494,0.0,0.0,0.0,0.0,0.0,0.0,0.0,0.0,0.0,0.0,0.0,0.0,0.0,0.0,3.5988,3.3604,3.3427,3.4037,3.5258,0.0,0.0,0.0,0.0,0.0,0.0,0.0,0.0,0.0,0.0,0.0,0.0,0.0,0.0,0.0,0.0,2.7798,0.0,0.0,0.0,0.0,0.0,0.0,0.0,0.0,3.4689,3.5634,3.6181,3.6344,3.6456,0.0,3.6652,3.5535,0.0,0.0,0.0,0.0,0.0,0.0,0.0,0.0,3.8257,3.9503,4.0412,4.1022,4.1249,4.0873,4.0458,3.9982,3.8626,3.6893,3.4723,3.287,3.1574,0.0,0.0,0.0,0.0,0.0,0.0,0.0,0.0,0.0,0.0,0.0,0.0,0.0,0.0,0.0,0.0,0.0,0.0,0.0,0.0,0.0,0.0,0.0,2.8186,0.0,0.0,0.0,0.0,0.0,0.0,0.0,0.0,0.0,3.6606,3.8624,4.0663,4.2164,4.3763,4.4999,4.5547,0.0,0.0,0.0,0.0,0.0,0.0,0.0,4.4397,4.4251,4.2909,4.1878,4.2077,4.1797,4.1571,4.1835,0.0,0.0,3.7355,3.6737,3.7178,3.8392,3.8828,3.9415,4.0819,4.1677,4.2226,0.0,0.0,0.0,0.0,0.0,0.0,0.0,0.0,3.2254,3.2308,0.0,3.1736,0.0,0.0,0.0,0.0,0.0,0.0,0.0,0.0,3.761,3.8553,3.9621,3.9647,3.9746,3.985,3.9951,3.9982,3.9767,3.6795,0.0,0.0,0.0,0.0,0.0,0.0,3.9695,4.0578,4.1321,4.2027,4.2732,4.1921,4.1435,4.1274,3.9112,3.7199,3.5655,3.469,3.3473,3.1889,3.1593,0.0,0.0,0.0,0.0,0.0,0.0,0.0,0.0,0.0,0.0,0.0,0.0,0.0,0.0,0.0,0.0,0.0,0.0,0.0,0.0,3.0325,0.0,0.0,0.0,0.0,0.0,0.0,0.0,0.0,0.0,0.0,3.9537,4.1479,4.3229,4.41,0.0,0.0,0.0,0.0,4.8066,4.7918,4.7918,4.7877,4.7713,4.6477,4.5471,4.5346,0.0,0.0,4.3939,4.4029,4.4308,4.5054,4.527,4.4345,4.1108,4.0476,4.0608,4.1375,4.2066,4.2838,4.3847,4.513,4.6275,3.8069,0.0,0.0,0.0,0.0,3.5425,3.5695,3.5941,3.5854,3.5883,3.5966,3.5461,0.0,0.0,0.0,0.0,0.0,0.0,3.9366,4.0474,4.1174,4.2088,4.3158,4.3234,4.3301,4.3328,4.294,4.2807,4.2808,4.1413,3.9778,3.8048,0.0,0.0,0.0,0.0,4.1169,4.2349,4.2711,4.2953,4.3094,4.2748,4.1933,4.064,3.9383,3.8179,3.7102,3.5811,3.4812,3.4149,3.2995,0.0,0.0,0.0,0.0,0.0,0.0,0.0,0.0,0.0,0.0,0.0,0.0,0.0,0.0,0.0,0.0,0.0,0.0,0.0,3.2505,3.3304,3.3918,0.0,0.0,0.0,0.0,0.0,0.0,0.0,0.0,0.0,4.5293,4.5299,4.5536,0.0,0.0,4.8208,4.823,4.8342,4.8469,4.8534,0.0,0.0,0.0,4.7976,4.757,4.7298,4.6819,4.6605,4.6858,4.6999,4.7209,4.7544,4.7644,4.7317,4.6411,4.4966,4.4341,4.4934,4.5344,4.5843,4.6741,4.7878,4.8754,4.4279,4.0834,3.9597,3.9075,3.9078,3.9328,3.9489,3.955,3.9489,3.9565,3.9743,3.9415,3.9192,3.9101,3.8966,0.0,0.0,0.0,4.2512,4.3557,4.4051,4.48,4.5738,4.5877,4.5946,4.5925,4.5636,4.5524,4.5604,4.5299,4.4215,4.2386,0.0,0.0,4.178,4.1972,4.2656,4.3761,4.387,4.3972,4.4133,4.3679,4.2556,4.081,3.9942,3.9131,3.8231,3.7049,3.6303,3.6138,3.4838,3.3703,0.0,0.0,0.0,0.0,0.0,0.0,0.0,0.0,0.0,0.0,0.0,2.6761,2.8144,0.0,0.0,0.0,3.3481,3.4563,3.5699,3.6602,0.0,0.0,0.0,0.0,0.0,0.0,0.0,4.5352,4.6058,4.7086,4.8829,4.8544,4.8163,4.8206,4.9212,4.9829,4.951,0.0,4.9933,4.9971,4.9933,4.987,4.9755,4.9459,4.9088,4.8465,4.826,4.8373,4.8763,4.8925,4.9253,4.9998,5.0227,5.0346,5.0693,4.9705,4.854,4.8001,4.8398,4.909,4.9718,5.0607,5.1308,5.0191,4.9244,4.5402,4.3658,4.3382,4.321,4.3114,4.3114,4.313,4.3301,4.3609,4.3504,4.3307,4.3136,4.3451,0.0,4.364,4.4581,4.549,4.6325,4.6528,4.7113,4.7933,4.8086,4.8142,4.8156,4.821,4.8209,4.8167,4.8399,4.8159,4.7401,4.503,4.3816,4.3756,4.3844,4.4276,4.497,4.4936,4.5126,4.5572,4.4613,4.3288,4.1652,4.081,4.0022,3.922,3.8287,3.7809,3.7764,3.6853,3.5949,3.5086,0.0,0.0,0.0,0.0,0.0,0.0,0.0,0.0,0.0,0.0,0.0,0.0,0.0,0.0,0.0,3.7669,0.0,3.902,3.9932,0.0,0.0,0.0,4.2323,4.3933,4.4527,4.5676,4.7998,0.0,0.0,5.0773,0.0,5.1032,4.9996,5.1009,5.1592,5.0818,5.1464,5.1954,5.1699,5.1809,5.1785,5.1416,5.0868,5.0188,4.9478,4.903,4.9392,5.0156,5.0358,5.1041,5.2446,5.2841,5.3009,5.384,5.3791,5.333,5.0682,5.1224,5.2194,5.2471,5.3118,5.3771,5.3569,5.2749,5.1261,4.9211,4.691,4.6828,4.6828,4.6812,4.6812,4.6908,4.7081,4.7193,4.7376,4.7575,4.784,4.7973,4.8021,4.8478,4.9209,5.0077,5.0235,5.0793,5.1687,5.1808,5.1892,5.1857,5.1325,5.0784,5.0316,4.9798,4.9501,4.9356,4.8346,4.7375,4.648,4.6579,4.6903,4.7435,4.6876,4.6307,4.5607,4.4647,4.3841,4.3329,4.1882,4.0972,4.0663,3.9386,3.8649,3.8529,3.7782,3.7157,3.6737,3.5714,0.0,0.0,0.0,0.0,0.0,0.0,0.0,0.0,0.0,3.1985,3.455,0.0,3.6514,0.0,3.9982,4.0979,4.1016,4.19,0.0,0.0,4.4474,4.5478,4.685,4.7678,4.8721,5.0172,5.0937,5.1799,5.2999,5.371,5.3999,5.3829,5.3375,5.3002,5.2822,5.2869,5.2761,5.2318,5.2174,5.2041,5.2004,5.1727,5.1653,5.2008,5.193,5.2213,5.309,5.3271,5.3453,5.3964,5.4061,5.4181,5.4399,5.4817,5.5007,5.4304,5.3999,5.3768,5.3869,5.4555,5.5183,5.6811,5.6443,5.5716,5.4396,5.2623,5.1045,5.0409,5.0491,5.0491,5.059,5.0735,5.0656,5.0552,5.0507,5.0808,5.0942,5.0937,5.1257,5.1722,5.2212,5.2369,5.2678,5.3183,5.3358,5.3455,5.3455,5.3063,5.2719,5.2382,5.2012,5.1899,5.1976,5.1674,5.1005,4.9925,4.8857,4.8365,4.8508,4.7958,4.7195,4.6244,4.5598,4.4857,4.3928,4.2675,4.175,4.1238,4.01,3.9466,3.937,3.8912,3.861,3.8439,3.7924,3.756,0.0,0.0,0.0,0.0,0.0,0.0,0.0,0.0,0.0,0.0,0.0,3.9196,4.117,4.2638,4.3605,4.4026,4.4968,4.5847,4.6567,4.7139,4.7984,4.9055,5.0068,5.1023,5.2122,5.2988,5.3734,5.4393,5.4853,5.5277,5.5675,5.5158,5.4664,5.4326,5.4194,5.3989,5.365,5.353,5.3459,5.3364,5.3205,5.3225,5.362,5.3677,5.3795,5.4302,5.445,5.4633,5.507,5.5217,5.54,5.5799,5.6186,5.6499,5.6463,5.6425,5.6265,5.615,5.6539,5.7038,5.9764,5.974,5.9074,5.8853,5.8665,5.5569,5.4211,5.4041,5.3973,5.4039,5.4237,5.3843,5.3391,5.2952,5.3237,5.3384,5.3428,5.3731,5.3873,5.3901,5.4041,5.4118,5.4132,5.4357,5.4443,5.4349,5.4469,5.4392,5.42,5.4366,5.4479,5.4479,5.4498,5.4126,5.3354,5.1092,4.9597,4.8962,4.8622,4.8063,4.7174,4.689,4.5954,4.4249,4.3355,4.2461,4.1521,4.0777,4.0383,4.0371,4.029,4.0179,4.0187,4.0083,3.9926,0.0,3.9661,0.0,0.0,0.0,0.0,0.0,0.0,0.0,0.0,4.0934,4.2186,4.4247,4.5394,4.6338,4.7177,4.8061,4.8773,4.9309,4.953,5.0032,5.1132,5.2066,5.2977,5.3807,5.4663,5.5242,5.5358,5.5454,5.5819,5.6486,5.6559,5.6329,5.5733,5.5431,5.5251,5.5237,5.5201,5.4914,5.4821,5.4689,5.4577,5.4672,5.4757,5.4768,5.4973,5.506,5.5352,5.6042,5.6285,5.6612,5.7461,5.7534,5.7534,5.751,5.8057,5.8505,5.8353,5.8475,5.905,6.1708,6.0742,6.0589,6.0717,6.0946,6.0272,5.8823,5.6867,5.64,5.6355,5.6662,5.6713,5.6726,5.6755,5.6937,5.7087,5.7256,5.7431,5.7555,5.7683,5.786,5.793,5.7944,5.811,5.7819,5.7245,5.7236,5.6567,5.531,5.5323,5.5348,5.5348,5.4876,5.4804,5.5061,0.0,0.0,0.0,4.9521,4.8925,4.7905,4.7074,4.6343,4.5672,4.4272,0.0,4.2997,4.2286,4.1894,4.1894,4.1867,0.0,0.0,0.0,0.0,0.0,0.0,0.0,0.0,0.0,0.0,0.0,4.4025,4.385,4.3375,4.5142,4.6597,4.7237,4.784,4.8322,4.8579,4.8857,4.9694,5.1152,5.1369,5.2101,5.3833,5.4291,5.4544,5.4865,5.564,5.6184,5.6337,5.6872,5.7371,5.7574,5.7707,5.7645,5.7451,5.6666,5.5965,5.5358,5.5333,5.5237,5.5143,5.5157,5.5389,5.5812,5.603,5.6273,5.677,5.694,5.7,5.7255,5.7316,5.734,5.7595,5.7583,5.7607,5.7595,5.8324,5.8921,5.8773,5.9271,5.9782,6.4236,0.0,6.3823,6.3967,0.0,6.3537,6.2542,6.1203,6.0005,5.9406,5.9395,5.9569,5.9318,5.8764,5.8967,5.89,5.8652,5.8795,5.8894,5.8978,5.9061,5.913,5.9177,5.9349,5.9239,5.8908,5.8973,5.8347,5.7224,5.7188,5.6971,5.6573,5.6284,5.6066,5.587,5.5121,5.3609,5.1393,5.0704,4.989,4.8907,4.8269,4.7589,4.69,0.0,0.0,0.0,0.0,0.0,0.0,0.0,0.0,0.0,0.0,0.0,4.4507,4.4611,4.4694,4.4797,4.52,4.5713,4.6295,4.7155,4.719,4.606,4.7291,4.8364,4.9025,4.9783,5.0439,5.0968,5.1485,5.2231,5.323,5.3375,5.3869,5.4857,5.5401,5.5702,5.5927,5.6595,5.7153,5.7281,5.7611,5.7927,5.7985,5.7997,5.7997,5.796,5.7537,5.7017,5.6639,5.6508,5.651,5.6473,5.6415,5.6489,5.6902,5.6975,5.7157,5.751,5.7679,5.7679,5.7691,5.7726,5.781,5.781,5.781,5.7774,5.792,5.8809,5.9639,5.964,6.0225,6.0933,6.6545,6.6608,6.6808,6.6933,6.6882,6.5897,6.5538,6.543,0.0,0.0,0.0,6.2064,6.1509,6.0463,6.0748,6.0518,5.9965,6.009,6.0137,6.0192,6.0047,6.0043,6.0141,6.0102,6.0062,6.0056,6.0158,5.9807,5.9042,5.8993,5.8604,5.7875,5.7802,5.734,5.6406,5.5425,5.4455,5.3419,5.2089,5.0995,5.0127,4.9579,4.8889,4.7976,4.6419,4.5548,4.5439,4.4236,4.3621,4.3607,4.4181,4.4776,4.5391,4.6035,4.6637,4.7133,4.7344,4.7463,4.7505,4.7762,4.8142,4.8636,4.9713,4.9823,4.862,4.8947,4.9658,5.0741,5.1683,5.2527,5.3322,5.4105,5.4747,5.5112,5.5148,5.5268,5.565,5.6244,5.6692,5.6882,5.7418,5.7892,5.7948,5.796,5.7997,5.7997,5.7997,5.7997,5.7997,5.7948,5.7875,5.7827,5.7672,5.7772,5.7797,5.7665,5.7691,5.7594,5.7667,5.7655,5.7679,5.7775,5.7845,5.7845,5.7927,5.7973,5.7997,5.7948,5.7997,5.7997,5.9281,6.0407,6.0481,6.1153,6.1949,6.7385,6.6952,6.7148,6.7306,6.7497,6.7491,6.7653,6.765,6.4492,6.3171,6.3387,6.3402,6.3385,6.3304,6.3348,6.3488,6.3623,6.3687,6.3805,0.0,6.3311,6.2983,6.2973,6.2331,6.1652,6.1058,6.0998,6.061,5.9893,5.9856,5.9406,5.8713,5.8628,5.8142,5.7255,5.6308,5.5713,5.5442,5.3598,5.2338,5.1651,5.0247,4.9282,4.8903,4.781,4.7161,4.7133,4.6816,4.6677,4.6691,4.6858,4.703,4.7147,4.7362,4.7576,4.7741,4.7939,4.8087,4.8277,4.8955,5.0066,5.1626,5.2908,5.2844,5.1047,5.1563,5.2494,5.3598,5.3894,5.4262,5.4592,5.4798,5.5269,5.6041,5.6198,5.6512,5.7226,5.7469,5.7614,5.773,5.7863,5.7973,5.7997,5.7997,5.7997,5.7997,5.7997,5.7997,5.7997,5.7997,5.7997,5.7997,5.7985,5.7973,5.7962,5.7962,5.7927,5.7939,5.7927,5.7916,5.7927,5.795,5.7973,5.7985,5.8008,5.8008,5.8008,5.7997,5.7997,5.807,5.9281,6.0334,6.0407,6.1508,6.2572,6.8875,6.8752,6.8945,6.9153,6.9252,6.9044,6.8844,6.8566,6.7132,6.6187,6.574,6.5512,6.5183,6.486,6.4946,6.4885,6.4612,6.4612,6.4694,6.4781,6.4416,6.431,6.434,6.356,6.3014,6.2762,6.2287,6.1677,6.0945,6.0872,6.0469,5.9676,5.9176,5.8714,5.8239,5.7255,5.6695,5.6557,5.4551,5.3174,5.2498,5.1497,5.0665,5.0027,4.9069,4.857,4.8453,4.8004,4.7734,4.772,4.7789,4.8044,4.8542,4.8645,4.8914,4.9455,5.0002,5.0395,5.0554,5.1572,5.2539,5.3369,5.4043,5.4291,5.3907,5.3698,5.3905,5.4564,5.5036,5.5425,5.5728,5.6115,5.6588,5.7094,5.7143,5.7348,5.7782,5.7916,5.7939,5.7985,5.7997,5.7997,5.7997,5.7997,5.7997,5.7997,5.7997,5.7997,5.7997,5.7997,5.7997,5.7997,5.7997,5.7997,5.8008,5.7997,5.7997,5.7997,5.7997,5.8031,5.8077,5.8099,5.8122,5.8215,5.8182,5.8111,5.8099,5.8042,5.8008,5.8155,5.9281,6.0236,6.0554,6.1692,6.2683,7.07,7.0892,7.0851,7.0859,7.0861,7.0397,6.9961,6.9622,6.9579,6.9089,6.8254,6.7692,6.7085,6.6555,6.6711,6.6399,6.5747,6.5674,6.5628,6.5436,6.529,6.5271,6.5314,6.4545,6.4194,6.4273,6.3503,6.2768,6.2193,6.1961,6.1447,6.0664,5.9761,5.9286,5.9262,5.8276,5.7691,5.7407,5.5687,5.4278,5.3434,5.2892,5.2213,5.1473,5.0741,5.0352,5.0194,4.9594,4.9232,4.9267,4.9259,4.9606,5.0322,5.0425,5.0786,5.1444,5.2218,5.2732,5.2927,5.4018,5.4689,5.4701,5.502,5.552,5.6187,5.5834,5.5484,5.5559,5.6055,5.6479,5.6708,5.7229,5.7715,5.7797,5.7857,5.7856,5.7985,5.7997,5.7997,5.7997,5.7997,5.7997,5.7997,5.7997,5.7997,5.7997,5.7997,5.7997,5.7997,5.7997,5.8008,5.8031,5.802,5.802,5.8031,5.8042,5.8065,5.8077,5.8088,5.8145,5.8201,5.826,5.8282,5.8349,5.8316,5.8271,5.8249,5.8193,5.8111,5.8221,5.9398,6.0588,6.1188,6.2071,6.2818,7.2793,7.2756,7.2245,7.1775,7.1472,7.1375,7.1454,7.1569,7.0995,7.0615,7.0352,6.9683,6.9296,6.926,6.918,6.8828,6.8283,6.8334,6.7964,6.7353,6.6669,6.6376,6.6303,6.5532,6.5165,6.5081,6.4347,6.3906,6.3772,6.3062,6.2291,6.1484,6.0664,6.0188,6.0018,5.9274,5.8701,5.8453,5.7431,5.6269,5.5044,5.4228,5.3678,5.336,5.3117,5.3048,5.288,5.2839,5.2713,5.2727,5.2754,5.2893,5.3005,5.3224,5.3393,5.3491,5.3862,5.4141,5.434,5.5265,5.5835,5.5932,5.6745,5.728,5.751,5.8032,5.8093,5.7547,5.7413,5.757,5.7665,5.7835,5.7992,5.817,5.8157,5.7985,5.8033,5.7997,5.7997,5.7997,5.7997,5.7997,5.7997,5.7997,5.7997,5.7997,5.7997,5.8008,5.802,5.802,5.8065,5.8111,5.8077,5.8065,5.8133,5.8167,5.8238,5.8316,5.8349,5.836,5.8371,5.8382,5.8393,5.8448,5.8393,5.8382,5.8382,5.836,5.8349,5.85,5.9618,6.1154,6.2446,6.3012,6.3051,7.3386,7.3516,7.3294,7.3197,7.3156,7.2699,7.2558,7.2623,7.1983,7.1699,7.1677,7.1421,7.0762,6.9813,6.9848,6.975,6.9549,6.9513,6.9137,6.8421,6.8091,6.7687,6.7136,6.6366,6.5999,6.5962,6.5191,6.4824,6.4677,6.398,6.3172,6.2291,6.152,6.1092,6.097,6.0152,5.9652,5.9553,5.9025,5.8407,5.7664,5.592,5.4626,5.4086,5.3833,5.37,5.3654,5.3517,5.349,5.3537,5.3591,5.3735,5.3922,5.4041,5.4119,5.4245,5.4896,5.5541,5.6097,5.6635,5.7134,5.7606,5.8069,5.8519,5.9079,5.9444,5.9518,5.9322,5.9176,5.9176,5.9296,5.9308,5.9369,5.9416,5.9428,5.9245,5.8756,5.8682,5.8547,5.8107,5.7997,5.7997,5.7997,5.7997,5.7997,5.7997,5.8008,5.802,5.8088,5.8111,5.8167,5.8294,5.8282,5.8271,5.8316,5.8327,5.8349,5.8382,5.843,5.8404,5.8443,5.8454,5.8476,5.8577,5.8497,5.8454,5.8454,5.8426,5.843,5.8773,5.9734,6.1285,6.2887,6.3183,6.3123,7.4457,7.4647,7.4482,7.4404,7.4436,7.3888,7.3611,7.3636,7.3192,7.3032,7.301,7.2893,7.2144,7.1046,7.0838,7.066,7.044,7.044,7.0,6.9302,6.9229,6.8825,6.8017,6.7467,6.7026,6.6733,6.5999,6.5508,6.5288,6.4751,6.398,6.3172,6.2585,6.2144,6.1838,6.1019,6.0555,6.0505,6.0148,5.985,5.9455,5.7812,5.633,5.5379,5.4975,5.4713,5.4621,5.4514,5.4523,5.4608,5.4608,5.4736,5.4958,5.5035,5.5258,5.5674,5.6331,5.712,5.7894,5.8178,5.8592,5.9091,5.9225,5.9518,6.0152,6.0469,6.0616,6.0689,6.0811,6.0836,6.0395,6.0407,6.0407,6.0407,6.0407,6.0114,5.96,5.9526,5.9233,5.8474,5.84,5.8217,5.8045,5.8008,5.8008,5.8054,5.8054,5.8125,5.8238,5.8271,5.8316,5.8426,5.84,5.8437,5.8437,5.8437,5.8448,5.8491,5.8502,5.8534,5.8551,5.8561,5.8582,5.8614,5.8593,5.8572,5.8572,5.8534,5.8813,5.9268,6.0156,6.1451,6.3028,6.3264,6.3338,7.657,7.6498,7.5821,7.5239,7.4714,7.4677,7.468,7.4785,7.4742,7.4742,7.4558,7.3964,7.3597,7.3362,7.2642,7.1982,7.1307,7.1233,7.0793,7.011,7.0036,6.9633,6.8862,6.8788,6.8385,6.7627,6.6916,6.6145,6.5398,6.5288,6.4861,6.4053,6.3919,6.3539,6.2829,6.2022,6.1496,6.1397,6.0725,6.0212,6.0063,5.9855,5.903,5.7876,5.71,5.6655,5.6665,5.6642,5.6665,5.6642,5.6678,5.6668,5.6731,5.6927,5.7494,5.836,5.8591,5.898,5.9661,5.9846,6.003,6.0164,6.0237,6.0383,6.0603,6.1166,6.1508,6.1557,6.2132,6.1973,6.0811,6.0701,6.0603,6.0603,6.0493,6.0493,6.037,6.0346,5.9967,5.9343,5.9098,5.8816,5.8155,5.7997,5.815,5.8255,5.8252,5.8396,5.8607,5.8541,5.8622,5.8698,5.8667,5.8556,5.8556,5.8519,5.8561,5.8593,5.8604,5.8693,5.8667,5.8687,5.8687,5.8687,5.8667,5.8656,5.8677,5.9001,5.9499,6.0045,6.0591,6.1778,6.3191,6.3471,6.3534,7.6838,7.6977,7.6779,7.6563,7.6332,7.5819,7.5629,7.5616,7.5124,7.4903,7.4867,7.4588,7.4478,7.4404,7.3634,7.2826,7.2129,7.2078,7.1637,7.0954,7.0866,7.0426,6.9743,6.9669,6.9229,6.8531,6.8151,6.7357,6.6182,6.6072,6.5668,6.5007,6.4861,6.4714,6.4297,6.3613,6.316,6.3036,6.2215,6.17,6.1613,6.1098,6.0508,6.0036,5.9105,5.8576,5.847,5.8434,5.8523,5.8579,5.8658,5.8748,5.8838,5.8927,5.9124,5.9516,5.9663,5.9822,6.0103,6.0274,6.0567,6.1056,6.1129,6.141,6.1838,6.2169,6.2352,6.2426,6.2572,6.2426,6.2169,6.1949,6.1949,6.1949,6.1912,6.1667,6.13,6.1153,6.086,6.0089,5.9634,5.9177,5.9053,5.8963,5.9057,5.9139,5.9519,5.9833,5.9997,6.0067,6.0,6.0161,6.0231,6.0231,6.0231,5.9192,5.8646,5.8667,5.8677,5.8751,5.8762,5.891,5.8947,5.9059,5.8947,5.8985,5.9096,5.9133,5.9765,6.073,6.1298,6.1993,6.3256,6.3516,6.359,7.7024,7.7171,7.7243,7.7326,7.7215,7.6738,7.6481,7.6423,7.5894,7.5674,7.5637,7.5417,7.5285,7.516,7.4441,7.3817,7.3215,7.2738,7.2188,7.1711,7.1674,7.1284,7.0624,7.0477,7.0073,6.9376,6.9302,6.8568,6.7393,6.7283,6.6696,6.5742,6.5692,6.5558,6.5251,6.4751,6.4494,6.4334,6.3817,6.3473,6.3387,6.2834,6.25,6.2376,6.1758,6.0752,5.97,5.9592,5.9631,5.9735,5.9825,5.9927,6.0052,6.0065,6.0187,6.0492,6.0579,6.0762,6.1031,6.1141,6.141,6.1924,6.1998,6.2254,6.2756,6.2793,6.2793,6.2793,6.2793,6.2805,6.2855,6.2818,6.2855,6.2867,6.2867,6.2696,6.2193,6.2132,6.1764,6.1052,6.0337,5.9941,5.9879,5.9947,5.9992,6.0037,6.0566,6.0907,6.1044,6.1078,6.1089,6.1202,6.1065,6.1028,6.0942,6.0189,5.9818,5.9802,5.9616,5.943,5.9292,5.9356,5.9356,5.943,5.9467,5.9467,5.9467,5.9467,6.021,6.125,6.177,6.229,6.307,6.3553,6.359,7.7347,7.7347,7.7326,7.7326,7.7289,7.7215,7.7252,7.7215,7.7179,7.7032,7.6922,7.6423,7.6093,7.5946,7.5285,7.4867,7.4573,7.3399,7.2679,7.2532,7.2481,7.2078,7.1344,7.1307,7.0866,7.011,7.0073,6.9669,6.8862,6.8752,6.8054,6.6843,6.6659,6.6366,6.5435,6.5435,6.5288,6.5251,6.5128,6.5128,6.5288,6.5005,6.4843,6.4862,6.4749,6.333,6.0403,6.0245,6.0305,6.0159,6.0148,6.0101,6.0396,6.0408,6.0689,6.1435,6.1594,6.1985,6.2572,6.2609,6.2536,6.2683,6.2719,6.2719,6.2756,6.2793,6.2805,6.2818,6.2818,6.2855,6.2978,6.3002,6.3002,6.3002,6.3002,6.3002,6.3049,6.3134,6.2887,6.2075,6.1274,6.0842,6.0805,6.0839,6.0933,6.0989,6.1196,6.1378,6.1541,6.16,6.1362,6.1373,6.1633,6.1819,6.151,6.1213,6.1213,6.1176,6.0916,6.0704,6.0555,6.0518,6.0444,6.0433,6.0396,6.0433,6.0396,6.047,6.0953,6.1845,6.2179,6.2513,6.3108,6.359,6.359,7.8185,7.8112,7.7546,7.7326,7.7326,7.7326,7.7326,7.7326,7.7326,7.7326,7.7252,7.7032,7.6922,7.6738,7.6078,7.5726,7.5616,7.461,7.3891,7.3413,7.3354,7.2899,7.2275,7.2151,7.1688,7.0954,7.033,7.0,6.9779,6.9743,6.9412,6.8972,6.8385,6.8054,6.765,6.6733,6.6109,6.6072,6.5582,6.5325,6.5325,6.5325,6.5299,6.5236,6.5236,6.4623,6.3705,6.2993,6.2356,6.1821,6.186,6.1959,6.1997,6.1997,6.2132,6.2389,6.2426,6.2499,6.2719,6.2829,6.2829,6.2829,6.2829,6.2793,6.2793,6.2793,6.2842,6.2917,6.2941,6.299,6.3099,6.3123,6.3123,6.316,6.3123,6.3147,6.3194,6.3194,6.3109,6.2837,6.2205,6.1806,6.1792,6.1826,6.1893,6.2001,6.2346,6.2703,6.2762,6.2662,6.2848,6.2848,6.2848,6.2636,6.2476,6.2365,6.2365,6.2179,6.1882,6.1733,6.1585,6.1548,6.1484,6.1436,6.141,6.1399,6.1362,6.151,6.1956,6.2179,6.2402,6.2885,6.3405,6.359,6.359,7.8846,7.8552,7.7986,7.7582,7.7326,7.7326,7.7326,7.7326,7.7326,7.7326,7.7326,7.7289,7.7326,7.7215,7.6775,7.657,7.6481,7.6004,7.5344,7.4625,7.4221,7.3854,7.3377,7.3046,7.2532,7.1798,7.1248,7.0844,7.055,7.055,7.0403,7.0036,6.9596,6.9339,6.9302,6.8385,6.7834,6.776,6.7393,6.71,6.7013,6.6793,6.6659,6.6609,6.6366,6.6072,6.5729,6.5137,6.4438,6.3791,6.3672,6.371,6.3747,6.371,6.371,6.3747,6.3747,6.3747,6.371,6.3527,6.3282,6.3246,6.2976,6.2793,6.2805,6.283,6.2917,6.299,6.3051,6.3123,6.323,6.3254,6.3314,6.3349,6.3314,6.3326,6.3349,6.3361,6.3324,6.3236,6.296,6.2772,6.2732,6.2754,6.2848,6.2922,6.3256,6.359,6.359,6.3553,6.359,6.359,6.3405,6.333,6.3479,6.3516,6.3516,6.3145,6.2773,6.2588,6.2476,6.2476,6.2439,6.2476,6.2476,6.2513,6.2476,6.2402,6.2625,6.2699,6.2773,6.3145,6.359,6.359,6.359,7.9433,7.8736,7.8626,7.8112,7.7472,7.7362,7.7326,7.7326,7.7326,7.7326,7.7326,7.7326,7.7326,7.7326,7.7179,7.7179,7.7252,7.7142,7.6702,7.6019,7.5469,7.4977,7.4573,7.4037,7.3413,7.2826,7.2569,7.2151,7.1615,7.1417,7.0991,7.0477,7.0293,7.0146,7.011,7.0087,6.9816,6.9706,6.9816,6.9743,6.9743,6.9229,6.8862,6.8775,6.8164,6.754,6.7026,6.683,6.6279,6.5435,6.5068,6.5068,6.5215,6.5288,6.5105,6.5068,6.5264,6.5141,6.5068,6.4517,6.4163,6.409,6.3589,6.2952,6.321,6.3272,6.3248,6.3259,6.3221,6.3291,6.3359,6.3431,6.3477,6.3545,6.3477,6.3477,6.3568,6.3579,6.3545,6.3557,6.359,6.359,6.3468,6.3479,6.3479,6.3516,6.3553,6.359,6.359,6.359,6.359,6.359,6.359,6.359,6.359,6.359,6.359,6.3479,6.3219,6.3145,6.307,6.3108,6.3182,6.3256,6.3293,6.3405,6.3405,6.3182,6.3145,6.3219,6.3368,6.3553,6.359,6.359,6.359,8.0571,8.0241,7.9103,7.8479,7.8185,7.7582,7.7326,7.7326,7.7326,7.7326,7.7326,7.7326,7.7326,7.7326,7.7326,7.7326,7.7326,7.7326,7.7252,7.6995,7.6812,7.5931,7.5087,7.472,7.4478,7.4133,7.3634,7.3266,7.3046,7.2532,7.2092,7.1872,7.1284,7.1013,7.094,7.044,7.011,7.011,7.011,7.0146,7.0146,6.9963,6.9779,6.9743,6.9522,6.9302,6.9119,6.9155,6.7871,6.5508,6.5325,6.5325,6.5398,6.5398,6.5448,6.5448,6.5411,6.5375,6.5338,6.5154,6.502,6.4971,6.4779,6.478,6.4756,6.4316,6.4143,6.4042,6.3731,6.3456,6.356,6.3545,6.3568,6.3579,6.3557,6.3557,6.3579,6.359,6.359,6.359,6.359,6.359,6.359,6.359,6.359,6.359,6.359,6.359,6.359,6.359,6.359,6.359,6.359,6.359,6.359,6.359,6.359,6.359,6.3479,6.3442,6.3405,6.3442,6.3479,6.3516,6.3442,6.3516,6.3553,6.3442,6.359,6.359,6.359,6.359,6.359,6.359,6.359,8.1305,8.0938,7.9984,7.9213,7.8589,7.8038,7.7656,7.7362,7.7326,7.7326,7.7326,7.7326,7.7326,7.7326,7.7326,7.7326,7.7326,7.7326,7.7289,7.7289,7.7252,7.6555,7.5674,7.5432,7.5234,7.4867,7.4441,7.4258,7.4147,7.3744,7.3377,7.2973,7.2532,7.2165,7.1784,7.1394,7.1101,7.1138,7.1101,7.1101,7.1101,7.077,7.0624,7.0513,7.033,7.011,7.0073,7.0128,6.9077,6.7297,6.683,6.6696,6.6329,6.6292,6.6319,6.6371,6.6384,6.6447,6.6388,6.6217,6.5996,6.5898,6.5814,6.5582,6.5508,6.5189,6.5063,6.5037,6.4726,6.4413,6.4088,6.3813,6.3628,6.359,6.359,6.359,6.359,6.359,6.359,6.359,6.359,6.359,6.359,6.359,6.359,6.359,6.359,6.359,6.359,6.359,6.359,6.359,6.359,6.359,6.359,6.359,6.359,6.359,6.359,6.359,6.359,6.359,6.359,6.359,6.359,6.359,6.359,6.359,6.359,6.359,6.359,6.359,6.359,6.359,6.359,8.1782,8.1122,8.1012,8.0167,7.8993,7.8772,7.8369,7.7693,7.7729,7.7619,7.7546,7.7472,7.7436,7.7326,7.7326,7.7326,7.7326,7.7326,7.7326,7.7326,7.7252,7.6848,7.6335,7.6225,7.5931,7.5417,7.5124,7.5014,7.494,7.4867,7.4478,7.3927,7.378,7.345,7.301,7.2753,7.2753,7.2753,7.2753,7.2606,7.2422,7.1982,7.1637,7.1358,7.0917,7.0638,7.0606,7.0579,7.0128,6.9247,6.9123,6.8613,6.8061,6.7974,6.8041,6.817,6.816,6.8175,6.8081,6.7527,6.7097,6.6949,6.6408,6.5989,6.6125,6.6112,6.6048,6.606,6.6057,6.5547,6.5002,6.4259,6.3888,6.385,6.3739,6.359,6.359,6.359,6.359,6.359,6.359,6.359,6.359,6.359,6.359,6.359,6.359,6.359,6.359,6.359,6.359,6.359,6.359,6.359,6.359,6.359,6.359,6.359,6.359,6.359,6.359,6.359,6.359,6.359,6.359,6.359,6.359,6.359,6.359,6.359,6.359,6.359,6.359,6.359,6.359,8.2113,8.1893,8.1269,8.0828,8.0424,7.98,7.9433,7.9229,7.9213,7.8809,7.8442,7.8332,7.7986,7.7399,7.7546,7.7326,7.7509,7.7436,7.7326,7.7326,7.7326,7.7252,7.7032,7.6995,7.6922,7.6592,7.6078,7.5873,7.5763,7.5307,7.483,7.4698,7.4625,7.4536,7.4316,7.4169,7.439,7.439,7.4316,7.3949,7.3487,7.3266,7.2826,7.2386,7.2092,7.2053,7.2138,7.218,7.183,7.1125,7.0552,7.0122,6.9787,6.975,6.974,6.9729,6.9816,6.9658,6.9167,6.8847,6.8502,6.7973,6.7888,6.7741,6.7716,6.7271,6.7071,6.6898,6.6488,6.6153,6.5782,6.5039,6.4631,6.4482,6.4073,6.3702,6.3628,6.359,6.359,6.359,6.359,6.359,6.359,6.359,6.359,6.359,6.359,6.359,6.359,6.359,6.359,6.359,6.359,6.359,6.359,6.359,6.359,6.359,6.359,6.359,6.359,6.359,6.359,6.359,6.359,6.359,6.359,6.359,6.359,6.359,6.359,6.359,6.359,6.359,6.359,8.2553,8.215,8.1709,8.1342,8.0975,8.0534,8.0147,7.9853,7.9816,7.9596,7.9339,7.9507,7.9433,7.905,7.9014,7.905,7.8794,7.817,7.7656,7.7436,7.7326,7.7326,7.7326,7.7326,7.7289,7.7215,7.6885,7.6665,7.6518,7.6188,7.5894,7.5469,7.5469,7.516,7.494,7.494,7.483,7.483,7.4903,7.4647,7.4331,7.4258,7.4192,7.3831,7.375,7.3675,7.3397,7.3458,7.307,7.2536,7.21,7.142,7.0634,7.0497,7.0523,7.0576,7.0589,7.048,7.0098,7.0037,6.9865,6.9444,6.9471,6.9261,6.9063,6.8618,6.8271,6.7899,6.7491,6.7131,6.6673,6.5931,6.5485,6.5373,6.5039,6.4631,6.4222,6.385,6.359,6.359,6.359,6.359,6.359,6.359,6.359,6.359,6.359,6.359,6.359,6.359,6.359,6.359,6.359,6.359,6.359,6.359,6.359,6.359,6.359,6.359,6.359,6.359,6.359,6.359,6.359,6.359,6.359,6.359,6.359,6.359,6.359,6.359,6.3628,6.3665,6.3628,8.2994,8.237,8.226,8.1782,8.1232,8.1195,8.0828,8.0293,8.0147,8.022,8.0057,8.0755,8.0702,8.0885,8.0828,8.0922,8.0571,7.9727,7.8736,7.8038,7.7729,7.7656,7.7619,7.7436,7.7326,7.7326,7.7215,7.7215,7.7215,7.7252,7.6738,7.6335,7.6276,7.6041,7.5454,7.5307,7.5491,7.5527,7.5527,7.5307,7.5139,7.5095,7.5125,7.4984,7.4976,7.4789,7.4487,7.4436,7.4286,7.3673,7.3822,7.2939,7.1706,7.0996,7.0972,7.1176,7.1324,7.1239,7.1104,7.1068,7.0994,7.0982,7.0821,7.0561,7.0004,6.9744,6.9385,6.8865,6.8419,6.8048,6.7491,6.6748,6.6339,6.6228,6.6191,6.5745,6.5113,6.4371,6.4148,6.359,6.359,6.359,6.359,6.359,6.359,6.359,6.359,6.359,6.359,6.359,6.359,6.359,6.359,6.359,6.359,6.359,6.359,6.3628,6.3628,6.3665,6.3665,6.359,6.359,6.359,6.359,6.3628,6.3628,6.359,6.359,6.359,6.359,6.359,6.3628,6.3713,6.3813,8.3308,8.3141,8.248,8.2113,8.2003,8.2003,8.1856,8.1819,8.1672,8.1379,8.0865,8.0975,8.1142,8.1069,8.1048,8.1048,8.1012,8.0645,8.0131,7.9286,7.8772,7.8479,7.8148,7.7693,7.7399,7.7326,7.7341,7.7341,7.7341,7.7289,7.7209,7.7084,7.7063,7.6879,7.6821,7.6885,7.6711,7.6667,7.6652,7.6432,7.608,7.6059,7.5971,7.5672,7.565,7.5513,7.5463,7.5421,7.5419,7.5522,7.555,7.4979,7.4021,7.3338,7.3015,7.2715,7.2665,7.2418,7.2072,7.1973,7.1589,7.1131,7.1056,7.0982,7.0759,7.0648,7.0239,6.9534,6.8902,6.8456,6.8308,6.7565,6.7193,6.6971,6.6636,6.6191,6.5931,6.5645,6.5039,6.4185,6.3888,6.3702,6.3813,6.3813,6.3739,6.3702,6.359,6.359,6.359,6.359,6.359,6.359,6.359,6.359,6.359,6.359,6.359,6.3665,6.3702,6.3813,6.3776,6.3628,6.3628,6.4036,6.3962,6.3776,6.3739,6.3776,6.3925,6.4185,6.3925,6.3702,6.4073,6.4456,6.4593,8.4168,8.3381,8.2977,8.259,8.2223,8.2186,8.2186,8.2186,8.2186,8.2003,8.1856,8.2023,8.2243,8.2243,8.2243,8.2039,8.1782,8.2096,8.1525,8.0571,8.0021,7.9286,7.8772,7.817,7.7693,7.7466,7.7402,7.7448,7.7463,7.7463,7.7493,7.7532,7.7547,7.7584,7.7584,7.7488,7.7532,7.7532,7.7532,7.7348,7.6994,7.7061,7.6905,7.6835,7.667,7.663,7.6421,7.6479,7.63,7.6098,7.6142,7.5892,7.5505,7.5069,7.4447,7.3697,7.346,7.3311,7.2902,7.2791,7.2605,7.2332,7.2146,7.1961,7.1701,7.1478,7.0995,7.0016,6.9496,6.8939,6.8531,6.8159,6.7973,6.7862,6.7528,6.7119,6.6859,6.6748,6.6005,6.5076,6.5113,6.4928,6.4296,6.4222,6.3999,6.3813,6.3702,6.3702,6.3776,6.385,6.3962,6.3888,6.3962,6.3962,6.3999,6.3999,6.4036,6.3999,6.4073,6.4185,6.4371,6.4408,6.4705,6.5113,6.4779,6.4408,6.4445,6.4668,6.4742,6.4816,6.4891,6.4939,6.5051,6.5188,6.5373,8.4939,8.3601,8.3454,8.2957,8.226,8.2186,8.2186,8.2186,8.2186,8.2186,8.226,8.2774,8.3141,8.3381,8.3418,8.3214,8.2553,8.3234,8.2757,8.1803,8.1473,8.0718,7.969,7.904,7.8725,7.7874,7.7885,7.7746,7.7605,7.7599,7.7703,7.771,7.7769,7.7783,7.7754,7.7725,7.7783,7.7783,7.7783,7.7783,7.7813,7.7827,7.79,7.8057,7.8085,7.7812,7.7439,7.7524,7.7306,7.7,7.6891,7.6817,7.6401,7.6403,7.563,7.4218,7.3906,7.3868,7.3868,7.3645,7.3608,7.3497,7.3423,7.3014,7.2605,7.2122,7.1639,7.0475,6.9979,6.9756,6.9311,6.8865,6.8753,6.8679,6.8531,6.8271,6.7751,6.7491,6.7305,6.6785,6.6636,6.6079,6.5373,6.5076,6.4928,6.4853,6.4742,6.4668,6.4705,6.4593,6.4593,6.4445,6.4445,6.4456,6.4482,6.4631,6.4668,6.4779,6.4891,6.5076,6.5262,6.5448,6.5745,6.5893,6.5931,6.5596,6.5596,6.5485,6.5448,6.5596,6.5942,6.5979,6.5708,6.5931,6.6265,8.527,8.4389,8.3728,8.2957,8.226,8.2186,8.2186,8.2186,8.2186,8.2186,8.2186,8.2333,8.2774,8.3308,8.4078,8.3895,8.3675,8.3858,8.3821,8.3014,8.2957,8.2513,8.1721,8.1113,8.0167,7.9204,7.9009,7.8315,7.8167,7.8079,7.7806,7.7813,7.7842,7.7798,7.7842,7.7893,7.7783,7.7783,7.7798,7.7856,7.7971,7.7986,7.8085,7.8248,7.8359,7.8367,7.8234,7.8304,7.8297,7.8414,7.8465,7.8127,7.7513,7.735,7.6698,7.5894,7.549,7.5503,7.5267,7.4797,7.4463,7.4314,7.3906,7.346,7.3051,7.2605,7.2159,7.2011,7.1255,7.0648,7.0276,6.9905,6.9682,6.9385,6.9162,6.8791,6.8382,6.8345,6.8159,6.7899,6.7565,6.6971,6.6339,6.6116,6.5905,6.5868,6.5794,6.5671,6.5559,6.5336,6.5262,6.5151,6.5125,6.5125,6.5088,6.5188,6.5262,6.5411,6.5708,6.5931,6.6116,6.6265,6.6265,6.6413,6.6562,6.6673,6.6525,6.6376,6.6239,6.6388,6.6711,6.6488,6.6079,6.6488,6.7131,8.5747,8.4572,8.4242,8.3361,8.226,8.2186,8.2186,8.2186,8.2186,8.2186,8.2186,8.2186,8.2406,8.2884,8.3581,8.3711,8.3601,8.4205,8.4425,8.4182,8.4048,8.3803,8.3169,8.2818,8.2012,8.1136,8.1079,8.1229,8.0259,7.8721,7.7943,7.8177,7.8154,7.8108,7.8199,7.8117,7.8094,7.8094,7.8094,7.8122,7.8127,7.8155,7.8262,7.84,7.8482,7.8549,7.8629,7.8747,7.8838,7.8902,7.8902,7.8689,7.8273,7.8069,7.775,7.7351,7.7213,7.6753,7.5899,7.5503,7.5355,7.5095,7.4537,7.3943,7.3497,7.3125,7.2605,7.2196,7.1862,7.1478,7.1056,7.0611,7.0462,7.0239,6.9905,6.9534,6.9274,6.9162,6.9013,6.8791,6.8531,6.8072,6.7564,6.7204,6.6795,6.6325,6.6251,6.6165,6.6017,6.5868,6.5831,6.5905,6.5868,6.5905,6.5831,6.5831,6.5819,6.6042,6.6562,6.6748,6.6896,6.7008,6.7045,6.7305,6.7676,6.7639,6.7416,6.7379,6.7342,6.7416,6.7491,6.7268,6.7082,6.7416,6.7936,8.5894,8.4609,8.4609,8.3654,8.2223,8.2186,8.2186,8.2186,8.2186,8.2186,8.2186,8.2186,8.2186,8.2296,8.281,8.3051,8.3141,8.3981,8.4308,8.4448,8.4621,8.4424,8.3898,8.3714,8.3291,8.2493,8.2126,8.2023,8.1296,8.0199,7.9018,7.9182,7.9548,7.9228,7.8945,7.8745,7.8583,7.8248,7.8248,7.8262,7.829,7.8318,7.84,7.8495,7.8576,7.8618,7.8747,7.889,7.8953,7.8966,7.8928,7.8776,7.8596,7.844,7.8306,7.8095,7.803,7.7658,7.6878,7.6358,7.6172,7.5875,7.5355,7.4612,7.3906,7.3683,7.3385,7.2679,7.2531,7.2159,7.1701,7.1441,7.1218,7.1143,7.0908,7.0536,7.0165,7.0054,6.9942,6.9806,6.9645,6.9508,6.8999,6.8416,6.7809,6.703,6.6746,6.666,6.666,6.6635,6.676,6.692,6.6982,6.6982,6.6933,6.6785,6.6673,6.6711,6.7231,6.7528,6.7676,6.7862,6.8011,6.8345,6.8642,6.8345,6.7936,6.8233,6.8493,6.8196,6.8048,6.8233,6.8345,6.8568,6.8716,8.538,8.4609,8.4572,8.3654,8.2186,8.2186,8.2186,8.2186,8.2186,8.2186,8.2186,8.2186,8.2186,8.2239,8.2313,8.2439,8.2386,8.3247,8.3664,8.406,8.4468,8.4511,8.4257,8.3981,8.3534,8.2467,8.2727,8.2266,8.136,8.1686,8.124,8.156,8.1054,8.0965,8.0445,7.9665,7.9145,7.8824,7.8689,7.8615,7.8606,7.86,7.862,7.8613,7.8747,7.889,7.8902,7.9004,7.9066,7.9066,7.8941,7.8801,7.8708,7.8549,7.84,7.8318,7.829,7.8067,7.7696,7.7287,7.7027,7.6767,7.6209,7.5392,7.4612,7.4537,7.4128,7.3571,7.3571,7.3348,7.2977,7.2642,7.2345,7.1998,7.1775,7.1316,7.1019,7.0871,7.0809,7.0784,7.0611,7.0338,7.0262,6.969,6.9094,6.8313,6.7782,6.7696,6.7834,6.7822,6.7984,6.8109,6.8171,6.8196,6.8233,6.8048,6.7676,6.7713,6.8122,6.8308,6.8419,6.8642,6.9051,6.8976,6.9162,6.8828,6.8679,6.9013,6.9125,6.8679,6.8605,6.8865,6.9051,6.9199,6.9385,8.4609,8.3858,8.3858,8.3214,8.2186,8.2186,8.2186,8.2186,8.2186,8.2186,8.2186,8.2186,8.2186,8.2219,8.2316,8.2348,8.2401,8.2781,8.3287,8.3772,8.4199,8.4573,8.463,8.482,8.4837,8.4198,8.4278,8.4425,8.4253,8.3464,8.357,8.3452,8.2138,8.1188,8.0594,8.0482,8.0088,7.9893,7.9837,7.9916,7.987,7.9495,7.9391,7.9497,7.8925,7.8991,7.9029,7.9041,7.9104,7.9092,7.8965,7.8886,7.8743,7.857,7.841,7.8341,7.829,7.829,7.829,7.7956,7.7658,7.7138,7.6729,7.6246,7.5466,7.5355,7.5243,7.4946,7.476,7.4537,7.4091,7.3831,7.3571,7.3051,7.2592,7.2184,7.1923,7.1812,7.1565,7.1491,7.1219,7.092,7.0943,7.0903,7.0293,6.9684,6.9141,6.8795,6.8909,6.8936,6.9023,6.9024,6.9,6.8877,6.8865,6.8716,6.8568,6.8791,6.9013,6.9125,6.9311,6.9905,7.0165,6.9967,6.9818,6.9794,6.9831,6.993,6.9707,6.9162,6.9199,6.9521,6.9682,6.9794,7.0091,8.3931,8.3381,8.3124,8.27,8.2223,8.2186,8.2186,8.2186,8.2186,8.2186,8.2186,8.2186,8.2219,8.2284,8.2343,8.2439,8.2539,8.2754,8.3112,8.3479,8.3824,8.4248,8.4703,8.486,8.4709,8.5177,8.5234,8.5068,8.4792,8.5254,8.4632,8.3562,8.2611,8.1861,8.1523,8.1231,8.1074,8.0935,8.0954,8.1061,8.0939,8.0613,8.037,8.0451,8.0077,7.9954,8.0017,8.008,7.998,7.9891,7.9712,7.9381,7.9061,7.879,7.8541,7.8402,7.8327,7.8327,7.8327,7.8253,7.8067,7.7621,7.751,7.699,7.6469,7.6172,7.6061,7.5689,7.5689,7.5578,7.4983,7.4834,7.4723,7.4277,7.3794,7.3372,7.3077,7.2867,7.2484,7.2212,7.2075,7.2196,7.2069,7.2091,7.1345,7.081,7.0401,7.0056,6.9959,6.9961,6.9839,6.9791,6.9705,6.9483,6.9311,6.9459,6.9645,6.9756,6.9905,6.9979,7.0264,7.0821,7.0932,7.0561,7.0524,7.0821,7.0747,7.0524,7.0091,6.9534,6.9831,7.0239,7.0264,7.0425,7.0834,8.3418,8.3271,8.2553,8.2223,8.2186,8.2186,8.2186,8.2186,8.2186,8.2203,8.2219,8.2219,8.23,8.2375,8.2455,8.255,8.2711,8.2843,8.3045,8.3195,8.3462,8.3541,8.3665,8.3862,8.4148,8.3737,8.398,8.4195,8.3929,8.4195,8.3873,8.3713,8.3251,8.3023,8.3053,8.2485,8.1844,8.1333,8.1384,8.1472,8.15,8.1457,8.14,8.1365,8.1167,8.1043,8.1018,8.0993,8.0917,8.0851,8.0755,8.0359,7.9752,7.9577,7.9219,7.8662,7.855,7.8476,7.8402,7.8364,7.8364,7.8179,7.7993,7.7733,7.725,7.7027,7.6841,7.6507,7.6209,7.6024,7.5838,7.5801,7.5689,7.5318,7.4797,7.4526,7.4218,7.4071,7.3726,7.3566,7.3764,7.3859,7.3607,7.3255,7.2447,7.1862,7.1539,7.1317,7.1034,7.0789,7.0592,7.0471,7.0324,7.0264,7.0153,7.0499,7.071,7.0747,7.0834,7.0871,7.1019,7.1354,7.1316,7.1094,7.1316,7.1688,7.1354,7.0982,7.0908,7.092,7.0759,7.0945,7.0982,7.1168,7.1651,8.2627,8.259,8.2313,8.2186,8.2186,8.2186,8.2186,8.2186,8.2203,8.2251,8.2348,8.2364,8.2444,8.255,8.269,8.2767,8.2874,8.3151,8.3253,8.3245,8.347,8.3527,8.356,8.3657,8.374,8.3781,8.3822,8.39,8.4015,8.39,8.3794,8.3726,8.3616,8.3546,8.3438,8.3168,8.2962,8.2868,8.29,8.293,8.2869,8.2564,8.233,8.2292,8.1944,8.1732,8.1757,8.1742,8.1651,8.1559,8.1398,8.0986,8.0516,8.0353,8.0148,7.9851,7.9851,7.9874,7.9874,7.9851,7.933,7.881,7.8439,7.8327,7.7919,7.7881,7.7696,7.7473,7.725,7.7064,7.6841,7.6692,7.6469,7.5838,7.5442,7.5458,7.5349,7.5327,7.5205,7.5222,7.532,7.4739,7.4397,7.4443,7.3807,7.3074,7.2725,7.2079,7.1695,7.1427,7.1208,7.1052,7.0956,7.0909,7.0995,7.1305,7.1354,7.1279,7.1515,7.1775,7.1923,7.2035,7.2258,7.2295,7.2444,7.2555,7.2258,7.2109,7.2444,7.2531,7.2072,7.1961,7.2184,7.2406,7.2741,8.2364,8.2364,8.2364,8.2364,8.2348,8.2235,8.2186,8.2203,8.2251,8.2295,8.2391,8.2455,8.2581,8.2736,8.2859,8.3024,8.3084,8.326,8.347,8.3498,8.3602,8.3657,8.3726,8.3808,8.3889,8.3967,8.4007,8.4097,8.4084,8.4097,8.4007,8.3913,8.3754,8.374,8.3712,8.3651,8.3573,8.3525,8.3519,8.3621,8.3535,8.3378,8.3181,8.3082,8.2795,8.2418,8.2354,8.2262,8.2104,8.1985,8.1825,8.1559,8.1391,8.1223,8.1003,8.0854,8.0705,8.0654,8.0594,8.0594,7.9999,7.9442,7.9145,7.8996,7.881,7.8699,7.8476,7.8327,7.8402,7.8067,7.7658,7.751,7.725,7.6618,7.6388,7.6441,7.6359,7.6374,7.618,7.6256,7.6192,7.561,7.5261,7.5295,7.5193,7.4508,7.3861,7.3214,7.2545,7.2304,7.2113,7.2008,7.1974,7.2087,7.2049,7.2085,7.2072,7.1799,7.2146,7.2605,7.2679,7.2778,7.3162,7.3423,7.3237,7.3125,7.3237,7.3311,7.3311,7.3162,7.2865,7.2977,7.3348,7.346,7.3497,8.268,8.268,8.268,8.2665,8.2633,8.2364,8.2235,8.2219,8.2343,8.2423,8.2439,8.2649,8.2767,8.2919,8.2949,8.3113,8.3332,8.3404,8.3504,8.3616,8.3767,8.3808,8.3862,8.398,8.402,8.4097,8.411,8.411,8.411,8.411,8.411,8.4046,8.3889,8.3913,8.3876,8.3849,8.3757,8.3757,8.373,8.3743,8.3669,8.3682,8.3637,8.3589,8.3501,8.3372,8.3356,8.3297,8.3247,8.3186,8.3189,8.2716,8.2361,8.2043,8.1523,8.1114,8.0965,8.104,8.1114,8.1151,8.1077,8.0817,8.0802,8.032,7.9762,7.9502,7.933,7.9033,7.8922,7.8625,7.8364,7.8327,7.8267,7.7825,7.7497,7.7415,7.7308,7.7164,7.6905,7.6854,7.6827,7.6545,7.6433,7.6463,7.6271,7.5788,7.5193,7.4902,7.4281,7.3622,7.3407,7.3204,7.3218,7.3367,7.3266,7.2878,7.2778,7.2518,7.3051,7.346,7.3497,7.3608,7.4017,7.4128,7.3757,7.372,7.4091,7.4054,7.3794,7.3683,7.3831,7.3423,7.3645,7.3683,7.372,8.268,8.268,8.268,8.268,8.268,8.2623,8.2476,8.2359,8.2539,8.2643,8.273,8.2813,8.2994,8.3231,8.326,8.3376,8.3504,8.3643,8.3675,8.3808,8.3902,8.3993,8.402,8.4084,8.411,8.411,8.411,8.4123,8.4123,8.4123,8.4123,8.4097,8.4007,8.3993,8.3902,8.3849,8.3771,8.373,8.3699,8.3671,8.3657,8.3657,8.3712,8.3712,8.3712,8.3671,8.363,8.3518,8.3441,8.3413,8.3297,8.3001,8.2949,8.286,8.2637,8.2563,8.2526,8.2526,8.2474,8.2437,8.2377,8.2303,8.2326,8.1583,8.0877,8.0357,8.0222,7.9851,7.9651,7.9516,7.9256,7.9145,7.9038,7.8749,7.8458,7.8328,7.8234,7.8115,7.7892,7.7853,7.7825,7.7577,7.75,7.7341,7.7126,7.6783,7.6467,7.6213,7.5744,7.5047,7.4567,7.4312,7.4176,7.4213,7.3775,7.3348,7.3348,7.3385,7.3906,7.4277,7.4351,7.4537,7.4946,7.4946,7.4686,7.4834,7.5206,7.4983,7.4612,7.4983,7.5095,7.4389,7.3906,7.4091,7.424,8.3076,8.3076,8.3076,8.2964,8.2859,8.288,8.2788,8.2643,8.2721,8.2828,8.2919,8.3039,8.3239,8.3347,8.3433,8.3546,8.3685,8.3754,8.3798,8.3929,8.4046,8.4046,8.411,8.4123,8.411,8.411,8.4123,8.415,8.4125,8.4189,8.4189,8.411,8.4046,8.3916,8.3784,8.3712,8.363,8.3602,8.356,8.3518,8.3504,8.3504,8.3532,8.356,8.3546,8.3504,8.3489,8.3398,8.3341,8.3326,8.321,8.3195,8.3195,8.3195,8.3195,8.3083,8.3083,8.3046,8.2994,8.3069,8.3143,8.318,8.318,8.2675,8.2043,8.1486,8.104,8.0631,8.058,8.0505,8.0208,7.9925,7.9777,7.9576,7.9372,7.9205,7.9112,7.9053,7.9029,7.904,7.8857,7.8606,7.8417,7.8197,7.7986,7.7647,7.7296,7.6954,7.6533,7.5899,7.5518,7.5234,7.506,7.4922,7.442,7.4128,7.4277,7.4463,7.4797,7.5095,7.5206,7.5318,7.5503,7.5652,7.5652,7.5801,7.5875,7.5763,7.554,7.5912,7.6024,7.5392,7.4946,7.4946,7.5057,8.3574,8.3574,8.3588,8.3404,8.3165,8.321,8.3121,8.2942,8.2964,8.2964,8.3024,8.326,8.3441,8.3489,8.3574,8.3699,8.3822,8.3902,8.3982,8.4099,8.4164,8.4202,8.4163,8.4099,8.415,8.4123,8.4123,8.4112,8.4216,8.424,8.4176,8.4073,8.3916,8.3784,8.3716,8.356,8.3447,8.3427,8.3413,8.3398,8.3398,8.3413,8.3418,8.3489,8.3433,8.3398,8.3355,8.3283,8.318,8.3195,8.3195,8.318,8.318,8.318,8.318,8.318,8.318,8.318,8.318,8.318,8.318,8.318,8.318,8.3083,8.2637,8.234,8.1857,8.1597,8.1545,8.1285,8.104,8.0874,8.0749,8.0464,8.025,8.0183,8.0177,7.9967,7.9641,7.9587,7.9439,7.9211,7.9158,7.8964,7.8735,7.8455,7.82,7.7819,7.7449,7.6889,7.6381,7.6081,7.5744,7.5519,7.5362,7.5206,7.5429,7.5652,7.5801,7.5912,7.5986,7.6024,7.6061,7.6358,7.6729,7.6432,7.6358,7.6432,7.6544,7.6507,7.6507,7.6209,7.6024,7.6024,7.5949,8.3588,8.3588,8.3588,8.3546,8.3475,8.3361,8.3413,8.3418,8.3318,8.3275,8.3304,8.3461,8.3602,8.3685,8.374,8.3849,8.4007,8.4099,8.4228,8.4254,8.4318,8.4267,8.4229,8.4203,8.4202,8.4136,8.4123,8.4112,8.4164,8.4189,8.4163,8.4059,8.3889,8.373,8.3643,8.3433,8.3355,8.3283,8.3268,8.3268,8.3268,8.3253,8.3268,8.3297,8.3253,8.3253,8.3239,8.3224,8.318,8.3195,8.3195,8.318,8.318,8.318,8.318,8.318,8.318,8.318,8.318,8.318,8.318,8.318,8.318,8.318,8.3121,8.2972,8.2786,8.26,8.2377,8.208,8.1886,8.1809,8.1736,8.1428,8.1129,8.1162,8.118,8.0718,8.029,8.012,7.997,7.9876,7.9872,7.9664,7.9445,7.9239,7.9081,7.8849,7.8603,7.8129,7.7205,7.6791,7.6317,7.6066,7.6093,7.6172,7.6358,7.6432,7.6507,7.6618,7.6767,7.6952,7.7138,7.7547,7.777,7.7398,7.7287,7.7696,7.7696,7.7398,7.7287,7.7138,7.7287,7.7361,7.7138,8.3832,8.3818,8.3726,8.3699,8.3671,8.3532,8.3518,8.3574,8.3574,8.3574,8.3588,8.3671,8.3754,8.3849,8.3889,8.4033,8.4202,8.4266,8.4343,8.4419,8.4419,8.4368,8.4331,8.4305,8.4215,8.415,8.4189,8.4215,8.4151,8.4151,8.4151,8.3993,8.3808,8.3657,8.3504,8.3398,8.332,8.3195,8.3269,8.3254,8.3269,8.3232,8.318,8.318,8.318,8.318,8.318,8.318,8.318,8.318,8.318,8.318,8.318,8.318,8.318,8.318,8.318,8.318,8.318,8.318,8.318,8.318,8.318,8.318,8.318,8.3083,8.3083,8.2883,8.2898,8.2675,8.2629,8.2605,8.2659,8.2552,8.2091,8.1863,8.1694,8.1344,8.1179,8.1162,8.1016,8.0832,8.067,8.0191,7.9894,7.9345,7.9261,7.929,7.9167,7.9291,7.8364,7.7687,7.7261,7.7132,7.7243,7.725,7.725,7.725,7.7213,7.7398,7.7584,7.7956,7.8253,7.8216,7.8216,7.8179,7.8216,7.829,7.829,7.7956,7.803,7.8141,7.829,7.8327,7.803,8.4097,8.4097,8.3902,8.3849,8.3835,8.3685,8.3643,8.3671,8.3767,8.3849,8.3838,8.3889,8.3889,8.3929,8.4033,8.4215,8.433,8.4406,8.4481,8.4493,8.4518,8.4456,8.4368,8.4317,8.4228,8.4202,8.4228,8.424,8.4203,8.4151,8.3996,8.3822,8.3657,8.3541,8.3436,8.3431,8.3455,8.3604,8.3641,8.3566,8.3455,8.3269,8.3232,8.318,8.318,8.318,8.318,8.318,8.318,8.318,8.318,8.318,8.318,8.318,8.318,8.318,8.318,8.318,8.318,8.318,8.318,8.318,8.318,8.318,8.318,8.318,8.318,8.3195,8.3195,8.3224,8.3231,8.3295,8.3363,8.3429,8.2944,8.2615,8.2346,8.2059,8.207,8.2105,8.1887,8.1717,8.1283,8.0813,8.0364,7.9739,7.9453,7.9367,7.9428,7.9725,7.9508,7.8952,7.8559,7.8475,7.8267,7.803,7.7807,7.7881,7.7844,7.8104,7.829,7.829,7.829,7.829,7.829,7.8364,7.8327,7.829,7.829,7.8439,7.829,7.829,7.829,7.8327,7.8439,8.411,8.411,8.4046,8.4033,8.4007,8.3849,8.3849,8.3967,8.3862,8.3942,8.4151,8.419,8.4203,8.4203,8.4216,8.4356,8.4481,8.4518,8.4579,8.4639,8.4653,8.4542,8.4443,8.4318,8.424,8.4228,8.4253,8.424,8.4177,8.4009,8.3889,8.3771,8.3606,8.3516,8.3547,8.3729,8.4198,8.4272,8.4585,8.4711,8.4027,8.373,8.3269,8.318,8.318,8.318,8.318,8.318,8.318,8.318,8.318,8.318,8.318,8.318,8.318,8.318,8.318,8.318,8.318,8.318,8.318,8.318,8.318,8.318,8.318,8.318,8.3195,8.3195,8.321,8.3283,8.3304,8.3461,8.3578,8.373,8.349,8.3543,8.3473,8.3087,8.2837,8.2673,8.2432,8.2181,8.1818,8.1494,8.1407,8.0944,8.0781,8.0692,8.0475,8.052,8.0525,8.0077,7.9642,7.8991,7.8402,7.8253,7.8141,7.8253,7.8402,7.855,7.855,7.8327,7.8364,7.8773,7.8625,7.855,7.8476,7.881,7.8662,7.8773,7.8439,7.829,7.8402,7.8625,7.8959]}]]